<?xml version="1.0" encoding="UTF-8" standalone="no" ?>
<gpx xmlns="http://www.topografix.com/GPX/1/1" xmlns:xsi="http://www.w3.org/2001/XMLSchema-instance" xsi:schemaLocation="http://www.topografix.com/GPX/1/1 http://www.topografix.com/GPX/1/1/gpx.xsd" version="1.1" creator="VisuGPX - https://www.visugpx.com">
  <metadata>
    <name>Sortie Gueb recherche des sentiers nouveaux</name>
    <desc><![CDATA[sortie VTT avec trois desentes indéties   la descente classico vers Murbach]]></desc>
  </metadata>
  <trk>
    <name><![CDATA[Tracé 24 mars 2018 13:41:48]]></name>
    <trkseg>
      <trkpt lat="47.90479" lon="7.19734">
        <ele>368</ele>
        <time>2018-03-24T12:41:48Z</time>
      </trkpt>
      <trkpt lat="47.90479" lon="7.19734">
        <ele>368</ele>
        <time>2018-03-24T12:41:54Z</time>
      </trkpt>
      <trkpt lat="47.90495" lon="7.1971">
        <ele>370</ele>
        <time>2018-03-24T12:42:02Z</time>
      </trkpt>
      <trkpt lat="47.90524" lon="7.19719">
        <ele>373</ele>
        <time>2018-03-24T12:42:06Z</time>
      </trkpt>
      <trkpt lat="47.90504" lon="7.19706">
        <ele>374</ele>
        <time>2018-03-24T12:42:10Z</time>
      </trkpt>
      <trkpt lat="47.90499" lon="7.19711">
        <ele>370</ele>
        <time>2018-03-24T12:43:43Z</time>
      </trkpt>
      <trkpt lat="47.90492" lon="7.19716">
        <ele>369</ele>
        <time>2018-03-24T12:43:48Z</time>
      </trkpt>
      <trkpt lat="47.90484" lon="7.19713">
        <ele>369</ele>
        <time>2018-03-24T12:43:52Z</time>
      </trkpt>
      <trkpt lat="47.90479" lon="7.19702">
        <ele>370</ele>
        <time>2018-03-24T12:43:57Z</time>
      </trkpt>
      <trkpt lat="47.90475" lon="7.19694">
        <ele>370</ele>
        <time>2018-03-24T12:44:01Z</time>
      </trkpt>
      <trkpt lat="47.90471" lon="7.19685">
        <ele>371</ele>
        <time>2018-03-24T12:44:05Z</time>
      </trkpt>
      <trkpt lat="47.90468" lon="7.19675">
        <ele>371</ele>
        <time>2018-03-24T12:44:09Z</time>
      </trkpt>
      <trkpt lat="47.90463" lon="7.19666">
        <ele>378</ele>
        <time>2018-03-24T12:44:14Z</time>
      </trkpt>
      <trkpt lat="47.9046" lon="7.19653">
        <ele>379</ele>
        <time>2018-03-24T12:44:19Z</time>
      </trkpt>
      <trkpt lat="47.90455" lon="7.19645">
        <ele>379</ele>
        <time>2018-03-24T12:44:24Z</time>
      </trkpt>
      <trkpt lat="47.9045" lon="7.19635">
        <ele>379</ele>
        <time>2018-03-24T12:44:30Z</time>
      </trkpt>
      <trkpt lat="47.90446" lon="7.19625">
        <ele>380</ele>
        <time>2018-03-24T12:44:36Z</time>
      </trkpt>
      <trkpt lat="47.90443" lon="7.19614">
        <ele>380</ele>
        <time>2018-03-24T12:44:41Z</time>
      </trkpt>
      <trkpt lat="47.90442" lon="7.19602">
        <ele>381</ele>
        <time>2018-03-24T12:44:46Z</time>
      </trkpt>
      <trkpt lat="47.90442" lon="7.19589">
        <ele>381</ele>
        <time>2018-03-24T12:44:51Z</time>
      </trkpt>
      <trkpt lat="47.90439" lon="7.19578">
        <ele>388</ele>
        <time>2018-03-24T12:44:57Z</time>
      </trkpt>
      <trkpt lat="47.90436" lon="7.19569">
        <ele>389</ele>
        <time>2018-03-24T12:45:03Z</time>
      </trkpt>
      <trkpt lat="47.90436" lon="7.19556">
        <ele>391</ele>
        <time>2018-03-24T12:45:07Z</time>
      </trkpt>
      <trkpt lat="47.90432" lon="7.19544">
        <ele>392</ele>
        <time>2018-03-24T12:45:13Z</time>
      </trkpt>
      <trkpt lat="47.90428" lon="7.19535">
        <ele>392</ele>
        <time>2018-03-24T12:45:18Z</time>
      </trkpt>
      <trkpt lat="47.90427" lon="7.19524">
        <ele>393</ele>
        <time>2018-03-24T12:45:22Z</time>
      </trkpt>
      <trkpt lat="47.90425" lon="7.19512">
        <ele>393</ele>
        <time>2018-03-24T12:45:27Z</time>
      </trkpt>
      <trkpt lat="47.90422" lon="7.195">
        <ele>393</ele>
        <time>2018-03-24T12:45:32Z</time>
      </trkpt>
      <trkpt lat="47.90417" lon="7.1949">
        <ele>397</ele>
        <time>2018-03-24T12:45:38Z</time>
      </trkpt>
      <trkpt lat="47.90412" lon="7.19479">
        <ele>396</ele>
        <time>2018-03-24T12:45:42Z</time>
      </trkpt>
      <trkpt lat="47.90408" lon="7.19471">
        <ele>397</ele>
        <time>2018-03-24T12:45:48Z</time>
      </trkpt>
      <trkpt lat="47.90405" lon="7.19458">
        <ele>399</ele>
        <time>2018-03-24T12:45:52Z</time>
      </trkpt>
      <trkpt lat="47.90399" lon="7.19449">
        <ele>400</ele>
        <time>2018-03-24T12:45:58Z</time>
      </trkpt>
      <trkpt lat="47.90393" lon="7.19443">
        <ele>400</ele>
        <time>2018-03-24T12:46:03Z</time>
      </trkpt>
      <trkpt lat="47.90385" lon="7.19436">
        <ele>401</ele>
        <time>2018-03-24T12:46:10Z</time>
      </trkpt>
      <trkpt lat="47.90378" lon="7.1943">
        <ele>401</ele>
        <time>2018-03-24T12:46:17Z</time>
      </trkpt>
      <trkpt lat="47.90371" lon="7.19428">
        <ele>401</ele>
        <time>2018-03-24T12:46:22Z</time>
      </trkpt>
      <trkpt lat="47.90363" lon="7.19427">
        <ele>401</ele>
        <time>2018-03-24T12:46:28Z</time>
      </trkpt>
      <trkpt lat="47.90349" lon="7.19421">
        <ele>403</ele>
        <time>2018-03-24T12:46:32Z</time>
      </trkpt>
      <trkpt lat="47.90343" lon="7.19415">
        <ele>408</ele>
        <time>2018-03-24T12:46:37Z</time>
      </trkpt>
      <trkpt lat="47.9034" lon="7.19404">
        <ele>409</ele>
        <time>2018-03-24T12:46:42Z</time>
      </trkpt>
      <trkpt lat="47.90335" lon="7.19394">
        <ele>410</ele>
        <time>2018-03-24T12:46:47Z</time>
      </trkpt>
      <trkpt lat="47.90333" lon="7.19384">
        <ele>411</ele>
        <time>2018-03-24T12:46:51Z</time>
      </trkpt>
      <trkpt lat="47.90334" lon="7.19374">
        <ele>412</ele>
        <time>2018-03-24T12:46:56Z</time>
      </trkpt>
      <trkpt lat="47.90331" lon="7.19362">
        <ele>416</ele>
        <time>2018-03-24T12:47:02Z</time>
      </trkpt>
      <trkpt lat="47.90329" lon="7.19351">
        <ele>416</ele>
        <time>2018-03-24T12:47:07Z</time>
      </trkpt>
      <trkpt lat="47.90323" lon="7.19342">
        <ele>417</ele>
        <time>2018-03-24T12:47:14Z</time>
      </trkpt>
      <trkpt lat="47.90322" lon="7.1933">
        <ele>420</ele>
        <time>2018-03-24T12:47:19Z</time>
      </trkpt>
      <trkpt lat="47.90318" lon="7.1932">
        <ele>422</ele>
        <time>2018-03-24T12:47:24Z</time>
      </trkpt>
      <trkpt lat="47.90315" lon="7.19309">
        <ele>424</ele>
        <time>2018-03-24T12:47:30Z</time>
      </trkpt>
      <trkpt lat="47.9031" lon="7.19298">
        <ele>425</ele>
        <time>2018-03-24T12:47:37Z</time>
      </trkpt>
      <trkpt lat="47.90307" lon="7.19285">
        <ele>426</ele>
        <time>2018-03-24T12:47:41Z</time>
      </trkpt>
      <trkpt lat="47.90302" lon="7.19275">
        <ele>427</ele>
        <time>2018-03-24T12:47:48Z</time>
      </trkpt>
      <trkpt lat="47.90295" lon="7.19269">
        <ele>428</ele>
        <time>2018-03-24T12:47:57Z</time>
      </trkpt>
      <trkpt lat="47.90288" lon="7.19265">
        <ele>429</ele>
        <time>2018-03-24T12:48:03Z</time>
      </trkpt>
      <trkpt lat="47.9028" lon="7.19261">
        <ele>430</ele>
        <time>2018-03-24T12:48:10Z</time>
      </trkpt>
      <trkpt lat="47.90272" lon="7.19258">
        <ele>431</ele>
        <time>2018-03-24T12:48:15Z</time>
      </trkpt>
      <trkpt lat="47.90262" lon="7.19259">
        <ele>433</ele>
        <time>2018-03-24T12:48:19Z</time>
      </trkpt>
      <trkpt lat="47.90251" lon="7.19264">
        <ele>433</ele>
        <time>2018-03-24T12:48:24Z</time>
      </trkpt>
      <trkpt lat="47.90242" lon="7.1927">
        <ele>438</ele>
        <time>2018-03-24T12:48:28Z</time>
      </trkpt>
      <trkpt lat="47.90236" lon="7.19276">
        <ele>438</ele>
        <time>2018-03-24T12:48:33Z</time>
      </trkpt>
      <trkpt lat="47.90229" lon="7.19284">
        <ele>438</ele>
        <time>2018-03-24T12:48:37Z</time>
      </trkpt>
      <trkpt lat="47.90221" lon="7.19295">
        <ele>438</ele>
        <time>2018-03-24T12:48:42Z</time>
      </trkpt>
      <trkpt lat="47.90215" lon="7.19302">
        <ele>438</ele>
        <time>2018-03-24T12:48:46Z</time>
      </trkpt>
      <trkpt lat="47.9021" lon="7.19308">
        <ele>438</ele>
        <time>2018-03-24T12:48:50Z</time>
      </trkpt>
      <trkpt lat="47.90203" lon="7.19313">
        <ele>438</ele>
        <time>2018-03-24T12:48:54Z</time>
      </trkpt>
      <trkpt lat="47.90197" lon="7.19315">
        <ele>439</ele>
        <time>2018-03-24T12:48:58Z</time>
      </trkpt>
      <trkpt lat="47.90188" lon="7.19312">
        <ele>439</ele>
        <time>2018-03-24T12:49:05Z</time>
      </trkpt>
      <trkpt lat="47.90179" lon="7.19312">
        <ele>440</ele>
        <time>2018-03-24T12:49:11Z</time>
      </trkpt>
      <trkpt lat="47.90175" lon="7.19312">
        <ele>440</ele>
        <time>2018-03-24T12:49:15Z</time>
      </trkpt>
      <trkpt lat="47.90162" lon="7.19313">
        <ele>446</ele>
        <time>2018-03-24T12:49:20Z</time>
      </trkpt>
      <trkpt lat="47.90153" lon="7.19314">
        <ele>447</ele>
        <time>2018-03-24T12:49:25Z</time>
      </trkpt>
      <trkpt lat="47.90144" lon="7.19316">
        <ele>448</ele>
        <time>2018-03-24T12:49:31Z</time>
      </trkpt>
      <trkpt lat="47.90136" lon="7.19313">
        <ele>449</ele>
        <time>2018-03-24T12:49:36Z</time>
      </trkpt>
      <trkpt lat="47.90128" lon="7.1931">
        <ele>450</ele>
        <time>2018-03-24T12:49:41Z</time>
      </trkpt>
      <trkpt lat="47.9012" lon="7.19308">
        <ele>450</ele>
        <time>2018-03-24T12:49:45Z</time>
      </trkpt>
      <trkpt lat="47.90109" lon="7.19308">
        <ele>451</ele>
        <time>2018-03-24T12:49:50Z</time>
      </trkpt>
      <trkpt lat="47.90101" lon="7.19307">
        <ele>451</ele>
        <time>2018-03-24T12:49:56Z</time>
      </trkpt>
      <trkpt lat="47.90093" lon="7.19304">
        <ele>452</ele>
        <time>2018-03-24T12:50:01Z</time>
      </trkpt>
      <trkpt lat="47.90086" lon="7.19298">
        <ele>452</ele>
        <time>2018-03-24T12:50:09Z</time>
      </trkpt>
      <trkpt lat="47.90079" lon="7.19293">
        <ele>458</ele>
        <time>2018-03-24T12:50:16Z</time>
      </trkpt>
      <trkpt lat="47.90069" lon="7.1929">
        <ele>459</ele>
        <time>2018-03-24T12:50:21Z</time>
      </trkpt>
      <trkpt lat="47.90061" lon="7.19288">
        <ele>459</ele>
        <time>2018-03-24T12:50:25Z</time>
      </trkpt>
      <trkpt lat="47.90053" lon="7.19286">
        <ele>460</ele>
        <time>2018-03-24T12:50:30Z</time>
      </trkpt>
      <trkpt lat="47.90044" lon="7.19279">
        <ele>460</ele>
        <time>2018-03-24T12:50:34Z</time>
      </trkpt>
      <trkpt lat="47.90037" lon="7.19276">
        <ele>461</ele>
        <time>2018-03-24T12:50:38Z</time>
      </trkpt>
      <trkpt lat="47.9003" lon="7.1927">
        <ele>461</ele>
        <time>2018-03-24T12:50:43Z</time>
      </trkpt>
      <trkpt lat="47.90023" lon="7.19265">
        <ele>462</ele>
        <time>2018-03-24T12:50:50Z</time>
      </trkpt>
      <trkpt lat="47.90018" lon="7.19262">
        <ele>463</ele>
        <time>2018-03-24T12:50:52Z</time>
      </trkpt>
      <trkpt lat="47.90006" lon="7.19261">
        <ele>464</ele>
        <time>2018-03-24T12:50:57Z</time>
      </trkpt>
      <trkpt lat="47.89996" lon="7.19255">
        <ele>466</ele>
        <time>2018-03-24T12:51:02Z</time>
      </trkpt>
      <trkpt lat="47.8999" lon="7.19247">
        <ele>468</ele>
        <time>2018-03-24T12:51:08Z</time>
      </trkpt>
      <trkpt lat="47.89982" lon="7.19253">
        <ele>467</ele>
        <time>2018-03-24T12:51:14Z</time>
      </trkpt>
      <trkpt lat="47.89977" lon="7.19264">
        <ele>467</ele>
        <time>2018-03-24T12:51:21Z</time>
      </trkpt>
      <trkpt lat="47.89977" lon="7.19276">
        <ele>467</ele>
        <time>2018-03-24T12:51:29Z</time>
      </trkpt>
      <trkpt lat="47.89982" lon="7.19285">
        <ele>466</ele>
        <time>2018-03-24T12:51:46Z</time>
      </trkpt>
      <trkpt lat="47.89981" lon="7.19295">
        <ele>466</ele>
        <time>2018-03-24T12:51:51Z</time>
      </trkpt>
      <trkpt lat="47.89975" lon="7.19303">
        <ele>466</ele>
        <time>2018-03-24T12:51:55Z</time>
      </trkpt>
      <trkpt lat="47.89972" lon="7.19311">
        <ele>466</ele>
        <time>2018-03-24T12:51:59Z</time>
      </trkpt>
      <trkpt lat="47.89971" lon="7.19325">
        <ele>466</ele>
        <time>2018-03-24T12:52:03Z</time>
      </trkpt>
      <trkpt lat="47.89974" lon="7.19337">
        <ele>467</ele>
        <time>2018-03-24T12:52:08Z</time>
      </trkpt>
      <trkpt lat="47.89975" lon="7.19349">
        <ele>467</ele>
        <time>2018-03-24T12:52:14Z</time>
      </trkpt>
      <trkpt lat="47.89977" lon="7.19362">
        <ele>468</ele>
        <time>2018-03-24T12:52:21Z</time>
      </trkpt>
      <trkpt lat="47.89978" lon="7.19375">
        <ele>469</ele>
        <time>2018-03-24T12:52:25Z</time>
      </trkpt>
      <trkpt lat="47.8998" lon="7.19396">
        <ele>469</ele>
        <time>2018-03-24T12:52:29Z</time>
      </trkpt>
      <trkpt lat="47.89984" lon="7.19407">
        <ele>468</ele>
        <time>2018-03-24T12:52:33Z</time>
      </trkpt>
      <trkpt lat="47.89984" lon="7.1942">
        <ele>471</ele>
        <time>2018-03-24T12:52:41Z</time>
      </trkpt>
      <trkpt lat="47.89984" lon="7.19429">
        <ele>472</ele>
        <time>2018-03-24T12:52:45Z</time>
      </trkpt>
      <trkpt lat="47.89987" lon="7.19441">
        <ele>473</ele>
        <time>2018-03-24T12:52:49Z</time>
      </trkpt>
      <trkpt lat="47.89989" lon="7.19455">
        <ele>475</ele>
        <time>2018-03-24T12:52:53Z</time>
      </trkpt>
      <trkpt lat="47.8999" lon="7.19467">
        <ele>475</ele>
        <time>2018-03-24T12:52:57Z</time>
      </trkpt>
      <trkpt lat="47.89992" lon="7.19477">
        <ele>475</ele>
        <time>2018-03-24T12:53:01Z</time>
      </trkpt>
      <trkpt lat="47.89993" lon="7.19489">
        <ele>473</ele>
        <time>2018-03-24T12:53:07Z</time>
      </trkpt>
      <trkpt lat="47.8999" lon="7.195">
        <ele>475</ele>
        <time>2018-03-24T12:53:12Z</time>
      </trkpt>
      <trkpt lat="47.89989" lon="7.19512">
        <ele>477</ele>
        <time>2018-03-24T12:53:18Z</time>
      </trkpt>
      <trkpt lat="47.89986" lon="7.19523">
        <ele>480</ele>
        <time>2018-03-24T12:53:22Z</time>
      </trkpt>
      <trkpt lat="47.89984" lon="7.19533">
        <ele>481</ele>
        <time>2018-03-24T12:53:26Z</time>
      </trkpt>
      <trkpt lat="47.89984" lon="7.19546">
        <ele>481</ele>
        <time>2018-03-24T12:53:31Z</time>
      </trkpt>
      <trkpt lat="47.89983" lon="7.19557">
        <ele>481</ele>
        <time>2018-03-24T12:53:36Z</time>
      </trkpt>
      <trkpt lat="47.89978" lon="7.19569">
        <ele>481</ele>
        <time>2018-03-24T12:53:40Z</time>
      </trkpt>
      <trkpt lat="47.89975" lon="7.19588">
        <ele>484</ele>
        <time>2018-03-24T12:53:45Z</time>
      </trkpt>
      <trkpt lat="47.89974" lon="7.19601">
        <ele>485</ele>
        <time>2018-03-24T12:53:49Z</time>
      </trkpt>
      <trkpt lat="47.89973" lon="7.19614">
        <ele>486</ele>
        <time>2018-03-24T12:53:54Z</time>
      </trkpt>
      <trkpt lat="47.89972" lon="7.19626">
        <ele>487</ele>
        <time>2018-03-24T12:53:59Z</time>
      </trkpt>
      <trkpt lat="47.89969" lon="7.19636">
        <ele>488</ele>
        <time>2018-03-24T12:54:03Z</time>
      </trkpt>
      <trkpt lat="47.89968" lon="7.19649">
        <ele>488</ele>
        <time>2018-03-24T12:54:08Z</time>
      </trkpt>
      <trkpt lat="47.89963" lon="7.19664">
        <ele>489</ele>
        <time>2018-03-24T12:54:13Z</time>
      </trkpt>
      <trkpt lat="47.89964" lon="7.19677">
        <ele>489</ele>
        <time>2018-03-24T12:54:17Z</time>
      </trkpt>
      <trkpt lat="47.89963" lon="7.19688">
        <ele>489</ele>
        <time>2018-03-24T12:54:24Z</time>
      </trkpt>
      <trkpt lat="47.89961" lon="7.19703">
        <ele>490</ele>
        <time>2018-03-24T12:54:29Z</time>
      </trkpt>
      <trkpt lat="47.89959" lon="7.19714">
        <ele>490</ele>
        <time>2018-03-24T12:54:33Z</time>
      </trkpt>
      <trkpt lat="47.89956" lon="7.19725">
        <ele>490</ele>
        <time>2018-03-24T12:54:37Z</time>
      </trkpt>
      <trkpt lat="47.89951" lon="7.19738">
        <ele>492</ele>
        <time>2018-03-24T12:54:42Z</time>
      </trkpt>
      <trkpt lat="47.89949" lon="7.19745">
        <ele>492</ele>
        <time>2018-03-24T12:54:45Z</time>
      </trkpt>
      <trkpt lat="47.89943" lon="7.19758">
        <ele>490</ele>
        <time>2018-03-24T12:54:50Z</time>
      </trkpt>
      <trkpt lat="47.89937" lon="7.1977">
        <ele>490</ele>
        <time>2018-03-24T12:54:55Z</time>
      </trkpt>
      <trkpt lat="47.89932" lon="7.19782">
        <ele>489</ele>
        <time>2018-03-24T12:54:59Z</time>
      </trkpt>
      <trkpt lat="47.89926" lon="7.19792">
        <ele>488</ele>
        <time>2018-03-24T12:55:04Z</time>
      </trkpt>
      <trkpt lat="47.89918" lon="7.19799">
        <ele>489</ele>
        <time>2018-03-24T12:55:10Z</time>
      </trkpt>
      <trkpt lat="47.89915" lon="7.19812">
        <ele>506</ele>
        <time>2018-03-24T12:55:14Z</time>
      </trkpt>
      <trkpt lat="47.89911" lon="7.19823">
        <ele>502</ele>
        <time>2018-03-24T12:55:19Z</time>
      </trkpt>
      <trkpt lat="47.89905" lon="7.19835">
        <ele>498</ele>
        <time>2018-03-24T12:55:23Z</time>
      </trkpt>
      <trkpt lat="47.899" lon="7.19849">
        <ele>502</ele>
        <time>2018-03-24T12:55:27Z</time>
      </trkpt>
      <trkpt lat="47.89895" lon="7.19859">
        <ele>503</ele>
        <time>2018-03-24T12:55:32Z</time>
      </trkpt>
      <trkpt lat="47.89894" lon="7.19869">
        <ele>504</ele>
        <time>2018-03-24T12:55:35Z</time>
      </trkpt>
      <trkpt lat="47.89891" lon="7.19881">
        <ele>503</ele>
        <time>2018-03-24T12:55:39Z</time>
      </trkpt>
      <trkpt lat="47.89886" lon="7.19893">
        <ele>503</ele>
        <time>2018-03-24T12:55:44Z</time>
      </trkpt>
      <trkpt lat="47.89882" lon="7.19905">
        <ele>504</ele>
        <time>2018-03-24T12:55:49Z</time>
      </trkpt>
      <trkpt lat="47.89878" lon="7.19917">
        <ele>505</ele>
        <time>2018-03-24T12:55:52Z</time>
      </trkpt>
      <trkpt lat="47.89873" lon="7.19927">
        <ele>501</ele>
        <time>2018-03-24T12:55:58Z</time>
      </trkpt>
      <trkpt lat="47.89868" lon="7.19943">
        <ele>502</ele>
        <time>2018-03-24T12:56:02Z</time>
      </trkpt>
      <trkpt lat="47.89865" lon="7.19952">
        <ele>502</ele>
        <time>2018-03-24T12:56:07Z</time>
      </trkpt>
      <trkpt lat="47.89862" lon="7.19965">
        <ele>502</ele>
        <time>2018-03-24T12:56:11Z</time>
      </trkpt>
      <trkpt lat="47.89859" lon="7.19976">
        <ele>503</ele>
        <time>2018-03-24T12:56:15Z</time>
      </trkpt>
      <trkpt lat="47.89857" lon="7.19986">
        <ele>504</ele>
        <time>2018-03-24T12:56:18Z</time>
      </trkpt>
      <trkpt lat="47.89858" lon="7.20001">
        <ele>502</ele>
        <time>2018-03-24T12:56:22Z</time>
      </trkpt>
      <trkpt lat="47.89857" lon="7.20018">
        <ele>500</ele>
        <time>2018-03-24T12:56:26Z</time>
      </trkpt>
      <trkpt lat="47.89856" lon="7.20027">
        <ele>500</ele>
        <time>2018-03-24T12:56:30Z</time>
      </trkpt>
      <trkpt lat="47.89856" lon="7.20041">
        <ele>499</ele>
        <time>2018-03-24T12:56:35Z</time>
      </trkpt>
      <trkpt lat="47.89853" lon="7.20056">
        <ele>500</ele>
        <time>2018-03-24T12:56:40Z</time>
      </trkpt>
      <trkpt lat="47.89851" lon="7.20068">
        <ele>501</ele>
        <time>2018-03-24T12:56:44Z</time>
      </trkpt>
      <trkpt lat="47.89851" lon="7.20081">
        <ele>502</ele>
        <time>2018-03-24T12:56:48Z</time>
      </trkpt>
      <trkpt lat="47.8985" lon="7.20093">
        <ele>502</ele>
        <time>2018-03-24T12:56:52Z</time>
      </trkpt>
      <trkpt lat="47.89849" lon="7.20104">
        <ele>500</ele>
        <time>2018-03-24T12:56:57Z</time>
      </trkpt>
      <trkpt lat="47.89849" lon="7.20116">
        <ele>500</ele>
        <time>2018-03-24T12:57:02Z</time>
      </trkpt>
      <trkpt lat="47.89846" lon="7.20128">
        <ele>500</ele>
        <time>2018-03-24T12:57:09Z</time>
      </trkpt>
      <trkpt lat="47.89838" lon="7.20123">
        <ele>501</ele>
        <time>2018-03-24T12:57:19Z</time>
      </trkpt>
      <trkpt lat="47.8983" lon="7.20116">
        <ele>516</ele>
        <time>2018-03-24T12:59:18Z</time>
      </trkpt>
      <trkpt lat="47.89829" lon="7.20104">
        <ele>515</ele>
        <time>2018-03-24T13:00:15Z</time>
      </trkpt>
      <trkpt lat="47.89829" lon="7.2009">
        <ele>512</ele>
        <time>2018-03-24T13:00:19Z</time>
      </trkpt>
      <trkpt lat="47.89828" lon="7.20076">
        <ele>513</ele>
        <time>2018-03-24T13:00:23Z</time>
      </trkpt>
      <trkpt lat="47.89828" lon="7.20063">
        <ele>515</ele>
        <time>2018-03-24T13:00:27Z</time>
      </trkpt>
      <trkpt lat="47.89827" lon="7.20051">
        <ele>517</ele>
        <time>2018-03-24T13:00:31Z</time>
      </trkpt>
      <trkpt lat="47.89829" lon="7.20033">
        <ele>518</ele>
        <time>2018-03-24T13:00:36Z</time>
      </trkpt>
      <trkpt lat="47.89829" lon="7.20011">
        <ele>516</ele>
        <time>2018-03-24T13:00:41Z</time>
      </trkpt>
      <trkpt lat="47.89834" lon="7.19997">
        <ele>512</ele>
        <time>2018-03-24T13:00:45Z</time>
      </trkpt>
      <trkpt lat="47.89836" lon="7.19982">
        <ele>508</ele>
        <time>2018-03-24T13:00:49Z</time>
      </trkpt>
      <trkpt lat="47.89837" lon="7.19962">
        <ele>506</ele>
        <time>2018-03-24T13:00:54Z</time>
      </trkpt>
      <trkpt lat="47.89837" lon="7.19947">
        <ele>507</ele>
        <time>2018-03-24T13:00:58Z</time>
      </trkpt>
      <trkpt lat="47.89836" lon="7.19931">
        <ele>512</ele>
        <time>2018-03-24T13:01:03Z</time>
      </trkpt>
      <trkpt lat="47.89833" lon="7.19918">
        <ele>521</ele>
        <time>2018-03-24T13:01:07Z</time>
      </trkpt>
      <trkpt lat="47.89839" lon="7.19887">
        <ele>513</ele>
        <time>2018-03-24T13:01:12Z</time>
      </trkpt>
      <trkpt lat="47.89834" lon="7.19873">
        <ele>514</ele>
        <time>2018-03-24T13:01:16Z</time>
      </trkpt>
      <trkpt lat="47.89836" lon="7.19854">
        <ele>518</ele>
        <time>2018-03-24T13:01:21Z</time>
      </trkpt>
      <trkpt lat="47.89845" lon="7.19835">
        <ele>522</ele>
        <time>2018-03-24T13:01:25Z</time>
      </trkpt>
      <trkpt lat="47.8985" lon="7.19822">
        <ele>522</ele>
        <time>2018-03-24T13:01:30Z</time>
      </trkpt>
      <trkpt lat="47.8986" lon="7.19811">
        <ele>519</ele>
        <time>2018-03-24T13:01:34Z</time>
      </trkpt>
      <trkpt lat="47.8987" lon="7.19792">
        <ele>518</ele>
        <time>2018-03-24T13:01:39Z</time>
      </trkpt>
      <trkpt lat="47.89873" lon="7.19781">
        <ele>518</ele>
        <time>2018-03-24T13:01:44Z</time>
      </trkpt>
      <trkpt lat="47.89873" lon="7.19768">
        <ele>519</ele>
        <time>2018-03-24T13:01:49Z</time>
      </trkpt>
      <trkpt lat="47.89869" lon="7.19756">
        <ele>521</ele>
        <time>2018-03-24T13:01:53Z</time>
      </trkpt>
      <trkpt lat="47.89867" lon="7.19744">
        <ele>526</ele>
        <time>2018-03-24T13:01:57Z</time>
      </trkpt>
      <trkpt lat="47.89865" lon="7.19732">
        <ele>527</ele>
        <time>2018-03-24T13:02:02Z</time>
      </trkpt>
      <trkpt lat="47.89864" lon="7.1972">
        <ele>527</ele>
        <time>2018-03-24T13:02:07Z</time>
      </trkpt>
      <trkpt lat="47.89865" lon="7.19707">
        <ele>527</ele>
        <time>2018-03-24T13:02:12Z</time>
      </trkpt>
      <trkpt lat="47.89866" lon="7.19695">
        <ele>528</ele>
        <time>2018-03-24T13:02:18Z</time>
      </trkpt>
      <trkpt lat="47.89868" lon="7.19687">
        <ele>528</ele>
        <time>2018-03-24T13:02:22Z</time>
      </trkpt>
      <trkpt lat="47.89869" lon="7.1967">
        <ele>528</ele>
        <time>2018-03-24T13:02:27Z</time>
      </trkpt>
      <trkpt lat="47.89869" lon="7.1965">
        <ele>527</ele>
        <time>2018-03-24T13:02:32Z</time>
      </trkpt>
      <trkpt lat="47.89867" lon="7.19638">
        <ele>527</ele>
        <time>2018-03-24T13:02:39Z</time>
      </trkpt>
      <trkpt lat="47.89862" lon="7.19629">
        <ele>527</ele>
        <time>2018-03-24T13:02:44Z</time>
      </trkpt>
      <trkpt lat="47.89856" lon="7.19616">
        <ele>528</ele>
        <time>2018-03-24T13:02:49Z</time>
      </trkpt>
      <trkpt lat="47.89851" lon="7.19603">
        <ele>529</ele>
        <time>2018-03-24T13:02:53Z</time>
      </trkpt>
      <trkpt lat="47.89845" lon="7.19594">
        <ele>531</ele>
        <time>2018-03-24T13:02:58Z</time>
      </trkpt>
      <trkpt lat="47.89837" lon="7.1959">
        <ele>533</ele>
        <time>2018-03-24T13:03:05Z</time>
      </trkpt>
      <trkpt lat="47.8983" lon="7.19583">
        <ele>537</ele>
        <time>2018-03-24T13:03:15Z</time>
      </trkpt>
      <trkpt lat="47.89823" lon="7.19575">
        <ele>534</ele>
        <time>2018-03-24T13:03:21Z</time>
      </trkpt>
      <trkpt lat="47.89817" lon="7.19569">
        <ele>533</ele>
        <time>2018-03-24T13:03:25Z</time>
      </trkpt>
      <trkpt lat="47.89809" lon="7.19566">
        <ele>533</ele>
        <time>2018-03-24T13:03:30Z</time>
      </trkpt>
      <trkpt lat="47.898" lon="7.19565">
        <ele>533</ele>
        <time>2018-03-24T13:03:34Z</time>
      </trkpt>
      <trkpt lat="47.89788" lon="7.1956">
        <ele>534</ele>
        <time>2018-03-24T13:03:39Z</time>
      </trkpt>
      <trkpt lat="47.89779" lon="7.19554">
        <ele>534</ele>
        <time>2018-03-24T13:03:43Z</time>
      </trkpt>
      <trkpt lat="47.89772" lon="7.19551">
        <ele>534</ele>
        <time>2018-03-24T13:03:47Z</time>
      </trkpt>
      <trkpt lat="47.89754" lon="7.19555">
        <ele>536</ele>
        <time>2018-03-24T13:03:51Z</time>
      </trkpt>
      <trkpt lat="47.89734" lon="7.19553">
        <ele>536</ele>
        <time>2018-03-24T13:03:55Z</time>
      </trkpt>
      <trkpt lat="47.89712" lon="7.19555">
        <ele>535</ele>
        <time>2018-03-24T13:03:59Z</time>
      </trkpt>
      <trkpt lat="47.89704" lon="7.19558">
        <ele>535</ele>
        <time>2018-03-24T13:04:08Z</time>
      </trkpt>
      <trkpt lat="47.89691" lon="7.19549">
        <ele>534</ele>
        <time>2018-03-24T13:04:13Z</time>
      </trkpt>
      <trkpt lat="47.89676" lon="7.19547">
        <ele>534</ele>
        <time>2018-03-24T13:04:18Z</time>
      </trkpt>
      <trkpt lat="47.89637" lon="7.19537">
        <ele>527</ele>
        <time>2018-03-24T13:04:23Z</time>
      </trkpt>
      <trkpt lat="47.89619" lon="7.19534">
        <ele>526</ele>
        <time>2018-03-24T13:04:27Z</time>
      </trkpt>
      <trkpt lat="47.89598" lon="7.19531">
        <ele>525</ele>
        <time>2018-03-24T13:04:32Z</time>
      </trkpt>
      <trkpt lat="47.8959" lon="7.19528">
        <ele>524</ele>
        <time>2018-03-24T13:04:37Z</time>
      </trkpt>
      <trkpt lat="47.89582" lon="7.19532">
        <ele>521</ele>
        <time>2018-03-24T13:04:40Z</time>
      </trkpt>
      <trkpt lat="47.89569" lon="7.1954">
        <ele>521</ele>
        <time>2018-03-24T13:04:45Z</time>
      </trkpt>
      <trkpt lat="47.89544" lon="7.19537">
        <ele>520</ele>
        <time>2018-03-24T13:04:49Z</time>
      </trkpt>
      <trkpt lat="47.89527" lon="7.19542">
        <ele>520</ele>
        <time>2018-03-24T13:04:53Z</time>
      </trkpt>
      <trkpt lat="47.89511" lon="7.19539">
        <ele>520</ele>
        <time>2018-03-24T13:04:57Z</time>
      </trkpt>
      <trkpt lat="47.89501" lon="7.19546">
        <ele>520</ele>
        <time>2018-03-24T13:05:02Z</time>
      </trkpt>
      <trkpt lat="47.89495" lon="7.19551">
        <ele>520</ele>
        <time>2018-03-24T13:05:05Z</time>
      </trkpt>
      <trkpt lat="47.89485" lon="7.19562">
        <ele>521</ele>
        <time>2018-03-24T13:05:10Z</time>
      </trkpt>
      <trkpt lat="47.89479" lon="7.19574">
        <ele>522</ele>
        <time>2018-03-24T13:05:14Z</time>
      </trkpt>
      <trkpt lat="47.89476" lon="7.19581">
        <ele>522</ele>
        <time>2018-03-24T13:05:19Z</time>
      </trkpt>
      <trkpt lat="47.89471" lon="7.19592">
        <ele>526</ele>
        <time>2018-03-24T13:05:24Z</time>
      </trkpt>
      <trkpt lat="47.89467" lon="7.19607">
        <ele>526</ele>
        <time>2018-03-24T13:05:29Z</time>
      </trkpt>
      <trkpt lat="47.89469" lon="7.1962">
        <ele>527</ele>
        <time>2018-03-24T13:05:37Z</time>
      </trkpt>
      <trkpt lat="47.89468" lon="7.19633">
        <ele>527</ele>
        <time>2018-03-24T13:05:45Z</time>
      </trkpt>
      <trkpt lat="47.89471" lon="7.19641">
        <ele>527</ele>
        <time>2018-03-24T13:07:19Z</time>
      </trkpt>
      <trkpt lat="47.89472" lon="7.19666">
        <ele>527</ele>
        <time>2018-03-24T13:07:24Z</time>
      </trkpt>
      <trkpt lat="47.89481" lon="7.19715">
        <ele>525</ele>
        <time>2018-03-24T13:07:29Z</time>
      </trkpt>
      <trkpt lat="47.89495" lon="7.19776">
        <ele>520</ele>
        <time>2018-03-24T13:07:34Z</time>
      </trkpt>
      <trkpt lat="47.89506" lon="7.19814">
        <ele>525</ele>
        <time>2018-03-24T13:07:37Z</time>
      </trkpt>
      <trkpt lat="47.8951" lon="7.19886">
        <ele>518</ele>
        <time>2018-03-24T13:07:42Z</time>
      </trkpt>
      <trkpt lat="47.89508" lon="7.19918">
        <ele>509</ele>
        <time>2018-03-24T13:07:44Z</time>
      </trkpt>
      <trkpt lat="47.89528" lon="7.19948">
        <ele>514</ele>
        <time>2018-03-24T13:07:49Z</time>
      </trkpt>
      <trkpt lat="47.89527" lon="7.19976">
        <ele>514</ele>
        <time>2018-03-24T13:07:53Z</time>
      </trkpt>
      <trkpt lat="47.89532" lon="7.20001">
        <ele>511</ele>
        <time>2018-03-24T13:07:58Z</time>
      </trkpt>
      <trkpt lat="47.89536" lon="7.20017">
        <ele>512</ele>
        <time>2018-03-24T13:08:03Z</time>
      </trkpt>
      <trkpt lat="47.89538" lon="7.20029">
        <ele>512</ele>
        <time>2018-03-24T13:08:06Z</time>
      </trkpt>
      <trkpt lat="47.89537" lon="7.20038">
        <ele>511</ele>
        <time>2018-03-24T13:08:11Z</time>
      </trkpt>
      <trkpt lat="47.89538" lon="7.20053">
        <ele>511</ele>
        <time>2018-03-24T13:08:16Z</time>
      </trkpt>
      <trkpt lat="47.89539" lon="7.20065">
        <ele>511</ele>
        <time>2018-03-24T13:08:21Z</time>
      </trkpt>
      <trkpt lat="47.89541" lon="7.20076">
        <ele>511</ele>
        <time>2018-03-24T13:08:25Z</time>
      </trkpt>
      <trkpt lat="47.89545" lon="7.20089">
        <ele>509</ele>
        <time>2018-03-24T13:08:29Z</time>
      </trkpt>
      <trkpt lat="47.89546" lon="7.20102">
        <ele>508</ele>
        <time>2018-03-24T13:08:49Z</time>
      </trkpt>
      <trkpt lat="47.89551" lon="7.20128">
        <ele>508</ele>
        <time>2018-03-24T13:08:53Z</time>
      </trkpt>
      <trkpt lat="47.89554" lon="7.20158">
        <ele>508</ele>
        <time>2018-03-24T13:08:57Z</time>
      </trkpt>
      <trkpt lat="47.89558" lon="7.20186">
        <ele>504</ele>
        <time>2018-03-24T13:09:01Z</time>
      </trkpt>
      <trkpt lat="47.8956" lon="7.20213">
        <ele>503</ele>
        <time>2018-03-24T13:09:05Z</time>
      </trkpt>
      <trkpt lat="47.89563" lon="7.20226">
        <ele>503</ele>
        <time>2018-03-24T13:09:08Z</time>
      </trkpt>
      <trkpt lat="47.89567" lon="7.20247">
        <ele>502</ele>
        <time>2018-03-24T13:09:13Z</time>
      </trkpt>
      <trkpt lat="47.89569" lon="7.20263">
        <ele>498</ele>
        <time>2018-03-24T13:09:17Z</time>
      </trkpt>
      <trkpt lat="47.89575" lon="7.20276">
        <ele>497</ele>
        <time>2018-03-24T13:09:22Z</time>
      </trkpt>
      <trkpt lat="47.89579" lon="7.20282">
        <ele>496</ele>
        <time>2018-03-24T13:09:43Z</time>
      </trkpt>
      <trkpt lat="47.89587" lon="7.20311">
        <ele>502</ele>
        <time>2018-03-24T13:09:48Z</time>
      </trkpt>
      <trkpt lat="47.89589" lon="7.20327">
        <ele>499</ele>
        <time>2018-03-24T13:09:52Z</time>
      </trkpt>
      <trkpt lat="47.8959" lon="7.20342">
        <ele>497</ele>
        <time>2018-03-24T13:09:57Z</time>
      </trkpt>
      <trkpt lat="47.89591" lon="7.20354">
        <ele>499</ele>
        <time>2018-03-24T13:10:02Z</time>
      </trkpt>
      <trkpt lat="47.89588" lon="7.20365">
        <ele>499</ele>
        <time>2018-03-24T13:10:06Z</time>
      </trkpt>
      <trkpt lat="47.89586" lon="7.20381">
        <ele>499</ele>
        <time>2018-03-24T13:10:11Z</time>
      </trkpt>
      <trkpt lat="47.89582" lon="7.20394">
        <ele>489</ele>
        <time>2018-03-24T13:10:15Z</time>
      </trkpt>
      <trkpt lat="47.89579" lon="7.204">
        <ele>489</ele>
        <time>2018-03-24T13:10:53Z</time>
      </trkpt>
      <trkpt lat="47.8957" lon="7.20424">
        <ele>488</ele>
        <time>2018-03-24T13:10:57Z</time>
      </trkpt>
      <trkpt lat="47.89558" lon="7.2043">
        <ele>485</ele>
        <time>2018-03-24T13:11:02Z</time>
      </trkpt>
      <trkpt lat="47.89546" lon="7.20431">
        <ele>483</ele>
        <time>2018-03-24T13:11:07Z</time>
      </trkpt>
      <trkpt lat="47.89527" lon="7.20438">
        <ele>480</ele>
        <time>2018-03-24T13:11:11Z</time>
      </trkpt>
      <trkpt lat="47.89496" lon="7.20461">
        <ele>467</ele>
        <time>2018-03-24T13:11:16Z</time>
      </trkpt>
      <trkpt lat="47.89486" lon="7.20475">
        <ele>468</ele>
        <time>2018-03-24T13:11:21Z</time>
      </trkpt>
      <trkpt lat="47.89474" lon="7.20493">
        <ele>468</ele>
        <time>2018-03-24T13:11:25Z</time>
      </trkpt>
      <trkpt lat="47.89456" lon="7.20508">
        <ele>468</ele>
        <time>2018-03-24T13:11:30Z</time>
      </trkpt>
      <trkpt lat="47.89438" lon="7.20518">
        <ele>466</ele>
        <time>2018-03-24T13:11:34Z</time>
      </trkpt>
      <trkpt lat="47.89418" lon="7.20527">
        <ele>465</ele>
        <time>2018-03-24T13:11:39Z</time>
      </trkpt>
      <trkpt lat="47.89395" lon="7.20548">
        <ele>454</ele>
        <time>2018-03-24T13:11:44Z</time>
      </trkpt>
      <trkpt lat="47.89378" lon="7.20571">
        <ele>453</ele>
        <time>2018-03-24T13:11:48Z</time>
      </trkpt>
      <trkpt lat="47.89368" lon="7.20582">
        <ele>452</ele>
        <time>2018-03-24T13:11:52Z</time>
      </trkpt>
      <trkpt lat="47.89356" lon="7.20604">
        <ele>457</ele>
        <time>2018-03-24T13:11:57Z</time>
      </trkpt>
      <trkpt lat="47.89354" lon="7.20614">
        <ele>458</ele>
        <time>2018-03-24T13:12:35Z</time>
      </trkpt>
      <trkpt lat="47.89338" lon="7.20625">
        <ele>458</ele>
        <time>2018-03-24T13:12:39Z</time>
      </trkpt>
      <trkpt lat="47.89322" lon="7.20629">
        <ele>449</ele>
        <time>2018-03-24T13:12:44Z</time>
      </trkpt>
      <trkpt lat="47.89313" lon="7.20632">
        <ele>449</ele>
        <time>2018-03-24T13:12:49Z</time>
      </trkpt>
      <trkpt lat="47.89304" lon="7.20633">
        <ele>449</ele>
        <time>2018-03-24T13:13:01Z</time>
      </trkpt>
      <trkpt lat="47.89288" lon="7.20629">
        <ele>447</ele>
        <time>2018-03-24T13:13:05Z</time>
      </trkpt>
      <trkpt lat="47.89265" lon="7.20622">
        <ele>445</ele>
        <time>2018-03-24T13:13:09Z</time>
      </trkpt>
      <trkpt lat="47.89245" lon="7.20615">
        <ele>439</ele>
        <time>2018-03-24T13:13:13Z</time>
      </trkpt>
      <trkpt lat="47.89231" lon="7.20609">
        <ele>438</ele>
        <time>2018-03-24T13:13:17Z</time>
      </trkpt>
      <trkpt lat="47.89221" lon="7.20607">
        <ele>438</ele>
        <time>2018-03-24T13:13:22Z</time>
      </trkpt>
      <trkpt lat="47.89205" lon="7.20601">
        <ele>438</ele>
        <time>2018-03-24T13:13:27Z</time>
      </trkpt>
      <trkpt lat="47.89183" lon="7.20591">
        <ele>436</ele>
        <time>2018-03-24T13:13:32Z</time>
      </trkpt>
      <trkpt lat="47.89153" lon="7.20569">
        <ele>426</ele>
        <time>2018-03-24T13:13:37Z</time>
      </trkpt>
      <trkpt lat="47.89137" lon="7.2056">
        <ele>423</ele>
        <time>2018-03-24T13:13:41Z</time>
      </trkpt>
      <trkpt lat="47.89119" lon="7.2054">
        <ele>421</ele>
        <time>2018-03-24T13:13:45Z</time>
      </trkpt>
      <trkpt lat="47.89089" lon="7.20525">
        <ele>418</ele>
        <time>2018-03-24T13:13:49Z</time>
      </trkpt>
      <trkpt lat="47.89073" lon="7.2051">
        <ele>414</ele>
        <time>2018-03-24T13:13:53Z</time>
      </trkpt>
      <trkpt lat="47.89058" lon="7.20488">
        <ele>403</ele>
        <time>2018-03-24T13:13:57Z</time>
      </trkpt>
      <trkpt lat="47.89051" lon="7.20482">
        <ele>401</ele>
        <time>2018-03-24T13:14:00Z</time>
      </trkpt>
      <trkpt lat="47.89047" lon="7.20476">
        <ele>400</ele>
        <time>2018-03-24T13:14:27Z</time>
      </trkpt>
      <trkpt lat="47.89025" lon="7.20471">
        <ele>399</ele>
        <time>2018-03-24T13:14:31Z</time>
      </trkpt>
      <trkpt lat="47.89017" lon="7.20473">
        <ele>399</ele>
        <time>2018-03-24T13:14:48Z</time>
      </trkpt>
      <trkpt lat="47.8901" lon="7.20471">
        <ele>399</ele>
        <time>2018-03-24T13:15:00Z</time>
      </trkpt>
      <trkpt lat="47.88998" lon="7.20467">
        <ele>392</ele>
        <time>2018-03-24T13:15:05Z</time>
      </trkpt>
      <trkpt lat="47.88988" lon="7.20468">
        <ele>392</ele>
        <time>2018-03-24T13:15:10Z</time>
      </trkpt>
      <trkpt lat="47.88982" lon="7.20472">
        <ele>392</ele>
        <time>2018-03-24T13:15:15Z</time>
      </trkpt>
      <trkpt lat="47.88971" lon="7.20472">
        <ele>390</ele>
        <time>2018-03-24T13:15:19Z</time>
      </trkpt>
      <trkpt lat="47.88955" lon="7.20469">
        <ele>388</ele>
        <time>2018-03-24T13:15:23Z</time>
      </trkpt>
      <trkpt lat="47.88922" lon="7.20471">
        <ele>386</ele>
        <time>2018-03-24T13:15:26Z</time>
      </trkpt>
      <trkpt lat="47.88893" lon="7.20479">
        <ele>375</ele>
        <time>2018-03-24T13:15:30Z</time>
      </trkpt>
      <trkpt lat="47.88882" lon="7.20472">
        <ele>372</ele>
        <time>2018-03-24T13:15:34Z</time>
      </trkpt>
      <trkpt lat="47.88878" lon="7.20459">
        <ele>371</ele>
        <time>2018-03-24T13:15:39Z</time>
      </trkpt>
      <trkpt lat="47.88875" lon="7.20448">
        <ele>370</ele>
        <time>2018-03-24T13:15:52Z</time>
      </trkpt>
      <trkpt lat="47.88867" lon="7.2044">
        <ele>368</ele>
        <time>2018-03-24T13:15:56Z</time>
      </trkpt>
      <trkpt lat="47.88848" lon="7.20449">
        <ele>367</ele>
        <time>2018-03-24T13:16:01Z</time>
      </trkpt>
      <trkpt lat="47.88834" lon="7.20463">
        <ele>367</ele>
        <time>2018-03-24T13:16:06Z</time>
      </trkpt>
      <trkpt lat="47.88826" lon="7.2047">
        <ele>358</ele>
        <time>2018-03-24T13:16:10Z</time>
      </trkpt>
      <trkpt lat="47.88821" lon="7.20478">
        <ele>358</ele>
        <time>2018-03-24T13:16:33Z</time>
      </trkpt>
      <trkpt lat="47.88817" lon="7.20492">
        <ele>359</ele>
        <time>2018-03-24T13:16:38Z</time>
      </trkpt>
      <trkpt lat="47.88813" lon="7.20507">
        <ele>358</ele>
        <time>2018-03-24T13:16:43Z</time>
      </trkpt>
      <trkpt lat="47.88814" lon="7.2052">
        <ele>357</ele>
        <time>2018-03-24T13:16:47Z</time>
      </trkpt>
      <trkpt lat="47.88815" lon="7.20532">
        <ele>357</ele>
        <time>2018-03-24T13:16:53Z</time>
      </trkpt>
      <trkpt lat="47.88812" lon="7.20542">
        <ele>357</ele>
        <time>2018-03-24T13:16:58Z</time>
      </trkpt>
      <trkpt lat="47.88809" lon="7.20554">
        <ele>357</ele>
        <time>2018-03-24T13:17:04Z</time>
      </trkpt>
      <trkpt lat="47.88806" lon="7.20567">
        <ele>357</ele>
        <time>2018-03-24T13:17:10Z</time>
      </trkpt>
      <trkpt lat="47.88807" lon="7.20577">
        <ele>357</ele>
        <time>2018-03-24T13:17:15Z</time>
      </trkpt>
      <trkpt lat="47.88798" lon="7.20597">
        <ele>354</ele>
        <time>2018-03-24T13:17:19Z</time>
      </trkpt>
      <trkpt lat="47.88794" lon="7.20611">
        <ele>353</ele>
        <time>2018-03-24T13:17:23Z</time>
      </trkpt>
      <trkpt lat="47.8879" lon="7.20631">
        <ele>352</ele>
        <time>2018-03-24T13:17:27Z</time>
      </trkpt>
      <trkpt lat="47.8879" lon="7.20651">
        <ele>351</ele>
        <time>2018-03-24T13:17:32Z</time>
      </trkpt>
      <trkpt lat="47.88794" lon="7.20667">
        <ele>349</ele>
        <time>2018-03-24T13:17:36Z</time>
      </trkpt>
      <trkpt lat="47.88798" lon="7.20686">
        <ele>349</ele>
        <time>2018-03-24T13:17:41Z</time>
      </trkpt>
      <trkpt lat="47.88806" lon="7.20706">
        <ele>350</ele>
        <time>2018-03-24T13:17:45Z</time>
      </trkpt>
      <trkpt lat="47.88814" lon="7.20721">
        <ele>350</ele>
        <time>2018-03-24T13:17:50Z</time>
      </trkpt>
      <trkpt lat="47.8882" lon="7.20734">
        <ele>351</ele>
        <time>2018-03-24T13:17:54Z</time>
      </trkpt>
      <trkpt lat="47.88825" lon="7.2075">
        <ele>353</ele>
        <time>2018-03-24T13:17:58Z</time>
      </trkpt>
      <trkpt lat="47.88832" lon="7.2077">
        <ele>349</ele>
        <time>2018-03-24T13:18:03Z</time>
      </trkpt>
      <trkpt lat="47.88835" lon="7.20785">
        <ele>364</ele>
        <time>2018-03-24T13:18:06Z</time>
      </trkpt>
      <trkpt lat="47.88838" lon="7.20813">
        <ele>361</ele>
        <time>2018-03-24T13:18:11Z</time>
      </trkpt>
      <trkpt lat="47.88842" lon="7.20844">
        <ele>358</ele>
        <time>2018-03-24T13:18:16Z</time>
      </trkpt>
      <trkpt lat="47.88847" lon="7.20873">
        <ele>361</ele>
        <time>2018-03-24T13:18:21Z</time>
      </trkpt>
      <trkpt lat="47.8885" lon="7.20895">
        <ele>360</ele>
        <time>2018-03-24T13:18:25Z</time>
      </trkpt>
      <trkpt lat="47.88851" lon="7.20918">
        <ele>355</ele>
        <time>2018-03-24T13:18:28Z</time>
      </trkpt>
      <trkpt lat="47.88853" lon="7.2094">
        <ele>357</ele>
        <time>2018-03-24T13:18:33Z</time>
      </trkpt>
      <trkpt lat="47.8886" lon="7.20968">
        <ele>358</ele>
        <time>2018-03-24T13:18:38Z</time>
      </trkpt>
      <trkpt lat="47.88866" lon="7.20992">
        <ele>357</ele>
        <time>2018-03-24T13:18:42Z</time>
      </trkpt>
      <trkpt lat="47.88869" lon="7.21012">
        <ele>354</ele>
        <time>2018-03-24T13:18:46Z</time>
      </trkpt>
      <trkpt lat="47.88874" lon="7.21039">
        <ele>354</ele>
        <time>2018-03-24T13:18:51Z</time>
      </trkpt>
      <trkpt lat="47.88878" lon="7.21058">
        <ele>354</ele>
        <time>2018-03-24T13:18:55Z</time>
      </trkpt>
      <trkpt lat="47.88883" lon="7.21084">
        <ele>351</ele>
        <time>2018-03-24T13:19:00Z</time>
      </trkpt>
      <trkpt lat="47.88889" lon="7.21103">
        <ele>351</ele>
        <time>2018-03-24T13:19:04Z</time>
      </trkpt>
      <trkpt lat="47.88895" lon="7.21118">
        <ele>351</ele>
        <time>2018-03-24T13:19:08Z</time>
      </trkpt>
      <trkpt lat="47.88904" lon="7.2114">
        <ele>351</ele>
        <time>2018-03-24T13:19:12Z</time>
      </trkpt>
      <trkpt lat="47.88913" lon="7.21155">
        <ele>352</ele>
        <time>2018-03-24T13:19:16Z</time>
      </trkpt>
      <trkpt lat="47.88924" lon="7.21169">
        <ele>355</ele>
        <time>2018-03-24T13:19:20Z</time>
      </trkpt>
      <trkpt lat="47.88932" lon="7.2118">
        <ele>358</ele>
        <time>2018-03-24T13:19:23Z</time>
      </trkpt>
      <trkpt lat="47.88941" lon="7.21196">
        <ele>359</ele>
        <time>2018-03-24T13:19:27Z</time>
      </trkpt>
      <trkpt lat="47.88951" lon="7.21217">
        <ele>359</ele>
        <time>2018-03-24T13:19:32Z</time>
      </trkpt>
      <trkpt lat="47.8896" lon="7.21233">
        <ele>360</ele>
        <time>2018-03-24T13:19:36Z</time>
      </trkpt>
      <trkpt lat="47.88968" lon="7.2125">
        <ele>356</ele>
        <time>2018-03-24T13:19:40Z</time>
      </trkpt>
      <trkpt lat="47.88977" lon="7.21269">
        <ele>356</ele>
        <time>2018-03-24T13:19:44Z</time>
      </trkpt>
      <trkpt lat="47.88974" lon="7.21312">
        <ele>354</ele>
        <time>2018-03-24T13:19:49Z</time>
      </trkpt>
      <trkpt lat="47.88987" lon="7.21323">
        <ele>355</ele>
        <time>2018-03-24T13:19:53Z</time>
      </trkpt>
      <trkpt lat="47.89001" lon="7.21327">
        <ele>359</ele>
        <time>2018-03-24T13:19:57Z</time>
      </trkpt>
      <trkpt lat="47.89013" lon="7.21335">
        <ele>358</ele>
        <time>2018-03-24T13:20:02Z</time>
      </trkpt>
      <trkpt lat="47.89019" lon="7.21342">
        <ele>359</ele>
        <time>2018-03-24T13:20:06Z</time>
      </trkpt>
      <trkpt lat="47.89028" lon="7.21344">
        <ele>361</ele>
        <time>2018-03-24T13:20:10Z</time>
      </trkpt>
      <trkpt lat="47.89036" lon="7.21347">
        <ele>362</ele>
        <time>2018-03-24T13:20:13Z</time>
      </trkpt>
      <trkpt lat="47.89041" lon="7.21354">
        <ele>362</ele>
        <time>2018-03-24T13:20:16Z</time>
      </trkpt>
      <trkpt lat="47.89054" lon="7.2136">
        <ele>364</ele>
        <time>2018-03-24T13:20:21Z</time>
      </trkpt>
      <trkpt lat="47.89067" lon="7.21364">
        <ele>365</ele>
        <time>2018-03-24T13:20:26Z</time>
      </trkpt>
      <trkpt lat="47.89077" lon="7.21369">
        <ele>365</ele>
        <time>2018-03-24T13:20:30Z</time>
      </trkpt>
      <trkpt lat="47.89086" lon="7.21379">
        <ele>376</ele>
        <time>2018-03-24T13:20:34Z</time>
      </trkpt>
      <trkpt lat="47.89095" lon="7.2139">
        <ele>375</ele>
        <time>2018-03-24T13:20:39Z</time>
      </trkpt>
      <trkpt lat="47.89098" lon="7.21401">
        <ele>374</ele>
        <time>2018-03-24T13:20:43Z</time>
      </trkpt>
      <trkpt lat="47.89103" lon="7.21412">
        <ele>374</ele>
        <time>2018-03-24T13:20:47Z</time>
      </trkpt>
      <trkpt lat="47.89109" lon="7.21419">
        <ele>369</ele>
        <time>2018-03-24T13:20:51Z</time>
      </trkpt>
      <trkpt lat="47.89121" lon="7.21424">
        <ele>370</ele>
        <time>2018-03-24T13:20:55Z</time>
      </trkpt>
      <trkpt lat="47.89137" lon="7.21426">
        <ele>372</ele>
        <time>2018-03-24T13:21:00Z</time>
      </trkpt>
      <trkpt lat="47.89147" lon="7.21433">
        <ele>374</ele>
        <time>2018-03-24T13:21:05Z</time>
      </trkpt>
      <trkpt lat="47.89154" lon="7.21433">
        <ele>375</ele>
        <time>2018-03-24T13:21:11Z</time>
      </trkpt>
      <trkpt lat="47.8916" lon="7.21438">
        <ele>375</ele>
        <time>2018-03-24T13:21:15Z</time>
      </trkpt>
      <trkpt lat="47.89169" lon="7.21454">
        <ele>387</ele>
        <time>2018-03-24T13:21:18Z</time>
      </trkpt>
      <trkpt lat="47.89174" lon="7.2147">
        <ele>385</ele>
        <time>2018-03-24T13:21:23Z</time>
      </trkpt>
      <trkpt lat="47.89176" lon="7.21484">
        <ele>383</ele>
        <time>2018-03-24T13:21:27Z</time>
      </trkpt>
      <trkpt lat="47.8918" lon="7.21497">
        <ele>381</ele>
        <time>2018-03-24T13:21:31Z</time>
      </trkpt>
      <trkpt lat="47.89185" lon="7.21508">
        <ele>375</ele>
        <time>2018-03-24T13:21:40Z</time>
      </trkpt>
      <trkpt lat="47.89193" lon="7.21508">
        <ele>376</ele>
        <time>2018-03-24T13:21:45Z</time>
      </trkpt>
      <trkpt lat="47.89201" lon="7.21512">
        <ele>378</ele>
        <time>2018-03-24T13:21:50Z</time>
      </trkpt>
      <trkpt lat="47.89211" lon="7.21518">
        <ele>379</ele>
        <time>2018-03-24T13:21:54Z</time>
      </trkpt>
      <trkpt lat="47.8922" lon="7.21519">
        <ele>381</ele>
        <time>2018-03-24T13:21:58Z</time>
      </trkpt>
      <trkpt lat="47.89225" lon="7.21526">
        <ele>381</ele>
        <time>2018-03-24T13:22:03Z</time>
      </trkpt>
      <trkpt lat="47.89233" lon="7.21541">
        <ele>380</ele>
        <time>2018-03-24T13:22:08Z</time>
      </trkpt>
      <trkpt lat="47.89239" lon="7.21552">
        <ele>379</ele>
        <time>2018-03-24T13:22:12Z</time>
      </trkpt>
      <trkpt lat="47.89246" lon="7.21558">
        <ele>379</ele>
        <time>2018-03-24T13:22:16Z</time>
      </trkpt>
      <trkpt lat="47.8925" lon="7.21568">
        <ele>389</ele>
        <time>2018-03-24T13:22:21Z</time>
      </trkpt>
      <trkpt lat="47.89255" lon="7.21571">
        <ele>388</ele>
        <time>2018-03-24T13:22:24Z</time>
      </trkpt>
      <trkpt lat="47.89264" lon="7.21577">
        <ele>389</ele>
        <time>2018-03-24T13:22:29Z</time>
      </trkpt>
      <trkpt lat="47.89269" lon="7.2158">
        <ele>390</ele>
        <time>2018-03-24T13:22:32Z</time>
      </trkpt>
      <trkpt lat="47.89276" lon="7.21582">
        <ele>392</ele>
        <time>2018-03-24T13:22:36Z</time>
      </trkpt>
      <trkpt lat="47.89284" lon="7.21586">
        <ele>378</ele>
        <time>2018-03-24T13:22:40Z</time>
      </trkpt>
      <trkpt lat="47.89293" lon="7.21585">
        <ele>379</ele>
        <time>2018-03-24T13:22:45Z</time>
      </trkpt>
      <trkpt lat="47.893" lon="7.21582">
        <ele>396</ele>
        <time>2018-03-24T13:22:52Z</time>
      </trkpt>
      <trkpt lat="47.89309" lon="7.2158">
        <ele>396</ele>
        <time>2018-03-24T13:22:57Z</time>
      </trkpt>
      <trkpt lat="47.89317" lon="7.21578">
        <ele>397</ele>
        <time>2018-03-24T13:23:01Z</time>
      </trkpt>
      <trkpt lat="47.89329" lon="7.2158">
        <ele>397</ele>
        <time>2018-03-24T13:23:05Z</time>
      </trkpt>
      <trkpt lat="47.89339" lon="7.21579">
        <ele>398</ele>
        <time>2018-03-24T13:23:10Z</time>
      </trkpt>
      <trkpt lat="47.89346" lon="7.21581">
        <ele>399</ele>
        <time>2018-03-24T13:23:15Z</time>
      </trkpt>
      <trkpt lat="47.89354" lon="7.21581">
        <ele>400</ele>
        <time>2018-03-24T13:23:18Z</time>
      </trkpt>
      <trkpt lat="47.89371" lon="7.21577">
        <ele>400</ele>
        <time>2018-03-24T13:23:23Z</time>
      </trkpt>
      <trkpt lat="47.89382" lon="7.21572">
        <ele>400</ele>
        <time>2018-03-24T13:23:27Z</time>
      </trkpt>
      <trkpt lat="47.89391" lon="7.21567">
        <ele>399</ele>
        <time>2018-03-24T13:23:32Z</time>
      </trkpt>
      <trkpt lat="47.89404" lon="7.21565">
        <ele>398</ele>
        <time>2018-03-24T13:23:36Z</time>
      </trkpt>
      <trkpt lat="47.89411" lon="7.21577">
        <ele>394</ele>
        <time>2018-03-24T13:23:40Z</time>
      </trkpt>
      <trkpt lat="47.89415" lon="7.21588">
        <ele>389</ele>
        <time>2018-03-24T13:24:21Z</time>
      </trkpt>
      <trkpt lat="47.89407" lon="7.21595">
        <ele>387</ele>
        <time>2018-03-24T13:25:16Z</time>
      </trkpt>
      <trkpt lat="47.89403" lon="7.21606">
        <ele>384</ele>
        <time>2018-03-24T13:25:27Z</time>
      </trkpt>
      <trkpt lat="47.89405" lon="7.21594">
        <ele>387</ele>
        <time>2018-03-24T13:26:18Z</time>
      </trkpt>
      <trkpt lat="47.89413" lon="7.21592">
        <ele>388</ele>
        <time>2018-03-24T13:26:43Z</time>
      </trkpt>
      <trkpt lat="47.89416" lon="7.21582">
        <ele>392</ele>
        <time>2018-03-24T13:26:47Z</time>
      </trkpt>
      <trkpt lat="47.89423" lon="7.21573">
        <ele>390</ele>
        <time>2018-03-24T13:26:52Z</time>
      </trkpt>
      <trkpt lat="47.89429" lon="7.21565">
        <ele>389</ele>
        <time>2018-03-24T13:27:15Z</time>
      </trkpt>
      <trkpt lat="47.89433" lon="7.21555">
        <ele>389</ele>
        <time>2018-03-24T13:27:20Z</time>
      </trkpt>
      <trkpt lat="47.89426" lon="7.21547">
        <ele>391</ele>
        <time>2018-03-24T13:28:01Z</time>
      </trkpt>
      <trkpt lat="47.89427" lon="7.21535">
        <ele>392</ele>
        <time>2018-03-24T13:29:08Z</time>
      </trkpt>
      <trkpt lat="47.89429" lon="7.21519">
        <ele>395</ele>
        <time>2018-03-24T13:29:13Z</time>
      </trkpt>
      <trkpt lat="47.89434" lon="7.215">
        <ele>404</ele>
        <time>2018-03-24T13:29:17Z</time>
      </trkpt>
      <trkpt lat="47.89435" lon="7.21487">
        <ele>404</ele>
        <time>2018-03-24T13:29:30Z</time>
      </trkpt>
      <trkpt lat="47.89431" lon="7.21499">
        <ele>405</ele>
        <time>2018-03-24T13:30:09Z</time>
      </trkpt>
      <trkpt lat="47.89428" lon="7.21511">
        <ele>398</ele>
        <time>2018-03-24T13:30:19Z</time>
      </trkpt>
      <trkpt lat="47.89423" lon="7.21521">
        <ele>396</ele>
        <time>2018-03-24T13:30:23Z</time>
      </trkpt>
      <trkpt lat="47.89419" lon="7.2153">
        <ele>394</ele>
        <time>2018-03-24T13:30:27Z</time>
      </trkpt>
      <trkpt lat="47.89407" lon="7.21537">
        <ele>403</ele>
        <time>2018-03-24T13:30:32Z</time>
      </trkpt>
      <trkpt lat="47.89393" lon="7.21536">
        <ele>403</ele>
        <time>2018-03-24T13:30:37Z</time>
      </trkpt>
      <trkpt lat="47.89387" lon="7.21528">
        <ele>404</ele>
        <time>2018-03-24T13:31:40Z</time>
      </trkpt>
      <trkpt lat="47.89389" lon="7.21514">
        <ele>405</ele>
        <time>2018-03-24T13:31:45Z</time>
      </trkpt>
      <trkpt lat="47.89391" lon="7.21502">
        <ele>406</ele>
        <time>2018-03-24T13:31:50Z</time>
      </trkpt>
      <trkpt lat="47.89393" lon="7.2149">
        <ele>416</ele>
        <time>2018-03-24T13:31:56Z</time>
      </trkpt>
      <trkpt lat="47.89391" lon="7.21479">
        <ele>417</ele>
        <time>2018-03-24T13:32:01Z</time>
      </trkpt>
      <trkpt lat="47.89391" lon="7.21466">
        <ele>418</ele>
        <time>2018-03-24T13:32:07Z</time>
      </trkpt>
      <trkpt lat="47.89391" lon="7.21454">
        <ele>420</ele>
        <time>2018-03-24T13:32:11Z</time>
      </trkpt>
      <trkpt lat="47.89388" lon="7.21439">
        <ele>421</ele>
        <time>2018-03-24T13:32:15Z</time>
      </trkpt>
      <trkpt lat="47.89382" lon="7.21427">
        <ele>422</ele>
        <time>2018-03-24T13:32:19Z</time>
      </trkpt>
      <trkpt lat="47.89376" lon="7.21414">
        <ele>430</ele>
        <time>2018-03-24T13:32:24Z</time>
      </trkpt>
      <trkpt lat="47.89373" lon="7.21403">
        <ele>431</ele>
        <time>2018-03-24T13:32:28Z</time>
      </trkpt>
      <trkpt lat="47.89369" lon="7.21391">
        <ele>431</ele>
        <time>2018-03-24T13:32:33Z</time>
      </trkpt>
      <trkpt lat="47.8937" lon="7.21378">
        <ele>432</ele>
        <time>2018-03-24T13:32:37Z</time>
      </trkpt>
      <trkpt lat="47.89372" lon="7.21366">
        <ele>433</ele>
        <time>2018-03-24T13:32:41Z</time>
      </trkpt>
      <trkpt lat="47.8937" lon="7.21348">
        <ele>434</ele>
        <time>2018-03-24T13:32:46Z</time>
      </trkpt>
      <trkpt lat="47.89366" lon="7.21334">
        <ele>434</ele>
        <time>2018-03-24T13:32:51Z</time>
      </trkpt>
      <trkpt lat="47.89362" lon="7.21325">
        <ele>439</ele>
        <time>2018-03-24T13:32:56Z</time>
      </trkpt>
      <trkpt lat="47.89357" lon="7.21315">
        <ele>439</ele>
        <time>2018-03-24T13:33:01Z</time>
      </trkpt>
      <trkpt lat="47.89356" lon="7.21304">
        <ele>440</ele>
        <time>2018-03-24T13:33:06Z</time>
      </trkpt>
      <trkpt lat="47.89351" lon="7.21291">
        <ele>440</ele>
        <time>2018-03-24T13:33:10Z</time>
      </trkpt>
      <trkpt lat="47.89347" lon="7.21278">
        <ele>441</ele>
        <time>2018-03-24T13:33:15Z</time>
      </trkpt>
      <trkpt lat="47.89346" lon="7.21265">
        <ele>442</ele>
        <time>2018-03-24T13:33:19Z</time>
      </trkpt>
      <trkpt lat="47.89346" lon="7.21252">
        <ele>442</ele>
        <time>2018-03-24T13:33:23Z</time>
      </trkpt>
      <trkpt lat="47.89347" lon="7.21238">
        <ele>444</ele>
        <time>2018-03-24T13:33:27Z</time>
      </trkpt>
      <trkpt lat="47.8935" lon="7.21223">
        <ele>444</ele>
        <time>2018-03-24T13:33:31Z</time>
      </trkpt>
      <trkpt lat="47.89352" lon="7.21211">
        <ele>444</ele>
        <time>2018-03-24T13:33:36Z</time>
      </trkpt>
      <trkpt lat="47.89354" lon="7.21197">
        <ele>444</ele>
        <time>2018-03-24T13:33:40Z</time>
      </trkpt>
      <trkpt lat="47.89355" lon="7.21181">
        <ele>445</ele>
        <time>2018-03-24T13:33:44Z</time>
      </trkpt>
      <trkpt lat="47.89356" lon="7.21169">
        <ele>445</ele>
        <time>2018-03-24T13:33:49Z</time>
      </trkpt>
      <trkpt lat="47.89358" lon="7.21155">
        <ele>447</ele>
        <time>2018-03-24T13:33:53Z</time>
      </trkpt>
      <trkpt lat="47.89359" lon="7.21142">
        <ele>447</ele>
        <time>2018-03-24T13:33:58Z</time>
      </trkpt>
      <trkpt lat="47.8936" lon="7.21127">
        <ele>448</ele>
        <time>2018-03-24T13:34:02Z</time>
      </trkpt>
      <trkpt lat="47.89361" lon="7.21116">
        <ele>448</ele>
        <time>2018-03-24T13:34:08Z</time>
      </trkpt>
      <trkpt lat="47.89361" lon="7.21097">
        <ele>449</ele>
        <time>2018-03-24T13:34:13Z</time>
      </trkpt>
      <trkpt lat="47.89362" lon="7.21084">
        <ele>449</ele>
        <time>2018-03-24T13:34:17Z</time>
      </trkpt>
      <trkpt lat="47.89361" lon="7.21069">
        <ele>453</ele>
        <time>2018-03-24T13:34:22Z</time>
      </trkpt>
      <trkpt lat="47.89361" lon="7.21057">
        <ele>453</ele>
        <time>2018-03-24T13:34:26Z</time>
      </trkpt>
      <trkpt lat="47.89361" lon="7.21046">
        <ele>454</ele>
        <time>2018-03-24T13:34:30Z</time>
      </trkpt>
      <trkpt lat="47.89359" lon="7.21033">
        <ele>454</ele>
        <time>2018-03-24T13:34:37Z</time>
      </trkpt>
      <trkpt lat="47.89356" lon="7.21021">
        <ele>455</ele>
        <time>2018-03-24T13:34:43Z</time>
      </trkpt>
      <trkpt lat="47.89355" lon="7.21009">
        <ele>456</ele>
        <time>2018-03-24T13:34:47Z</time>
      </trkpt>
      <trkpt lat="47.89355" lon="7.20991">
        <ele>459</ele>
        <time>2018-03-24T13:34:52Z</time>
      </trkpt>
      <trkpt lat="47.89357" lon="7.20976">
        <ele>460</ele>
        <time>2018-03-24T13:34:56Z</time>
      </trkpt>
      <trkpt lat="47.89356" lon="7.20964">
        <ele>460</ele>
        <time>2018-03-24T13:35:01Z</time>
      </trkpt>
      <trkpt lat="47.89358" lon="7.20953">
        <ele>460</ele>
        <time>2018-03-24T13:35:06Z</time>
      </trkpt>
      <trkpt lat="47.89364" lon="7.20933">
        <ele>461</ele>
        <time>2018-03-24T13:35:10Z</time>
      </trkpt>
      <trkpt lat="47.89364" lon="7.20919">
        <ele>461</ele>
        <time>2018-03-24T13:35:15Z</time>
      </trkpt>
      <trkpt lat="47.89367" lon="7.20906">
        <ele>465</ele>
        <time>2018-03-24T13:35:19Z</time>
      </trkpt>
      <trkpt lat="47.89368" lon="7.20892">
        <ele>465</ele>
        <time>2018-03-24T13:35:24Z</time>
      </trkpt>
      <trkpt lat="47.89369" lon="7.20879">
        <ele>466</ele>
        <time>2018-03-24T13:35:28Z</time>
      </trkpt>
      <trkpt lat="47.89371" lon="7.20866">
        <ele>466</ele>
        <time>2018-03-24T13:35:35Z</time>
      </trkpt>
      <trkpt lat="47.89372" lon="7.20858">
        <ele>467</ele>
        <time>2018-03-24T13:35:38Z</time>
      </trkpt>
      <trkpt lat="47.89375" lon="7.20844">
        <ele>467</ele>
        <time>2018-03-24T13:35:43Z</time>
      </trkpt>
      <trkpt lat="47.89377" lon="7.20833">
        <ele>469</ele>
        <time>2018-03-24T13:35:47Z</time>
      </trkpt>
      <trkpt lat="47.8938" lon="7.20819">
        <ele>469</ele>
        <time>2018-03-24T13:35:52Z</time>
      </trkpt>
      <trkpt lat="47.89382" lon="7.20807">
        <ele>469</ele>
        <time>2018-03-24T13:35:57Z</time>
      </trkpt>
      <trkpt lat="47.89384" lon="7.20796">
        <ele>469</ele>
        <time>2018-03-24T13:36:01Z</time>
      </trkpt>
      <trkpt lat="47.89391" lon="7.2078">
        <ele>469</ele>
        <time>2018-03-24T13:36:06Z</time>
      </trkpt>
      <trkpt lat="47.89395" lon="7.20768">
        <ele>470</ele>
        <time>2018-03-24T13:36:10Z</time>
      </trkpt>
      <trkpt lat="47.89396" lon="7.20754">
        <ele>470</ele>
        <time>2018-03-24T13:36:15Z</time>
      </trkpt>
      <trkpt lat="47.89393" lon="7.20742">
        <ele>468</ele>
        <time>2018-03-24T13:36:20Z</time>
      </trkpt>
      <trkpt lat="47.89394" lon="7.20724">
        <ele>468</ele>
        <time>2018-03-24T13:36:24Z</time>
      </trkpt>
      <trkpt lat="47.89404" lon="7.20701">
        <ele>468</ele>
        <time>2018-03-24T13:36:29Z</time>
      </trkpt>
      <trkpt lat="47.89413" lon="7.2068">
        <ele>469</ele>
        <time>2018-03-24T13:36:33Z</time>
      </trkpt>
      <trkpt lat="47.89424" lon="7.20663">
        <ele>470</ele>
        <time>2018-03-24T13:36:38Z</time>
      </trkpt>
      <trkpt lat="47.89432" lon="7.20652">
        <ele>471</ele>
        <time>2018-03-24T13:36:43Z</time>
      </trkpt>
      <trkpt lat="47.89435" lon="7.20639">
        <ele>471</ele>
        <time>2018-03-24T13:36:47Z</time>
      </trkpt>
      <trkpt lat="47.89438" lon="7.20626">
        <ele>471</ele>
        <time>2018-03-24T13:36:51Z</time>
      </trkpt>
      <trkpt lat="47.89443" lon="7.2061">
        <ele>471</ele>
        <time>2018-03-24T13:36:56Z</time>
      </trkpt>
      <trkpt lat="47.89449" lon="7.20598">
        <ele>471</ele>
        <time>2018-03-24T13:37:00Z</time>
      </trkpt>
      <trkpt lat="47.89454" lon="7.20589">
        <ele>471</ele>
        <time>2018-03-24T13:37:03Z</time>
      </trkpt>
      <trkpt lat="47.89462" lon="7.20576">
        <ele>471</ele>
        <time>2018-03-24T13:37:07Z</time>
      </trkpt>
      <trkpt lat="47.8947" lon="7.20569">
        <ele>471</ele>
        <time>2018-03-24T13:37:11Z</time>
      </trkpt>
      <trkpt lat="47.8948" lon="7.20565">
        <ele>472</ele>
        <time>2018-03-24T13:37:15Z</time>
      </trkpt>
      <trkpt lat="47.8949" lon="7.20556">
        <ele>472</ele>
        <time>2018-03-24T13:37:20Z</time>
      </trkpt>
      <trkpt lat="47.89495" lon="7.20547">
        <ele>472</ele>
        <time>2018-03-24T13:37:24Z</time>
      </trkpt>
      <trkpt lat="47.89501" lon="7.20539">
        <ele>480</ele>
        <time>2018-03-24T13:37:29Z</time>
      </trkpt>
      <trkpt lat="47.89509" lon="7.20532">
        <ele>480</ele>
        <time>2018-03-24T13:37:34Z</time>
      </trkpt>
      <trkpt lat="47.89515" lon="7.20528">
        <ele>480</ele>
        <time>2018-03-24T13:37:38Z</time>
      </trkpt>
      <trkpt lat="47.89528" lon="7.20524">
        <ele>481</ele>
        <time>2018-03-24T13:37:43Z</time>
      </trkpt>
      <trkpt lat="47.89538" lon="7.20518">
        <ele>482</ele>
        <time>2018-03-24T13:37:48Z</time>
      </trkpt>
      <trkpt lat="47.89547" lon="7.20516">
        <ele>483</ele>
        <time>2018-03-24T13:37:51Z</time>
      </trkpt>
      <trkpt lat="47.89556" lon="7.20516">
        <ele>484</ele>
        <time>2018-03-24T13:37:55Z</time>
      </trkpt>
      <trkpt lat="47.89566" lon="7.20513">
        <ele>485</ele>
        <time>2018-03-24T13:38:00Z</time>
      </trkpt>
      <trkpt lat="47.89576" lon="7.20516">
        <ele>486</ele>
        <time>2018-03-24T13:38:05Z</time>
      </trkpt>
      <trkpt lat="47.89586" lon="7.20513">
        <ele>491</ele>
        <time>2018-03-24T13:38:10Z</time>
      </trkpt>
      <trkpt lat="47.89595" lon="7.20519">
        <ele>492</ele>
        <time>2018-03-24T13:38:14Z</time>
      </trkpt>
      <trkpt lat="47.89604" lon="7.2052">
        <ele>492</ele>
        <time>2018-03-24T13:38:19Z</time>
      </trkpt>
      <trkpt lat="47.89611" lon="7.20518">
        <ele>493</ele>
        <time>2018-03-24T13:38:23Z</time>
      </trkpt>
      <trkpt lat="47.89621" lon="7.20513">
        <ele>494</ele>
        <time>2018-03-24T13:38:27Z</time>
      </trkpt>
      <trkpt lat="47.8963" lon="7.2051">
        <ele>495</ele>
        <time>2018-03-24T13:38:33Z</time>
      </trkpt>
      <trkpt lat="47.89638" lon="7.2051">
        <ele>496</ele>
        <time>2018-03-24T13:38:39Z</time>
      </trkpt>
      <trkpt lat="47.89646" lon="7.20508">
        <ele>498</ele>
        <time>2018-03-24T13:38:44Z</time>
      </trkpt>
      <trkpt lat="47.89654" lon="7.20507">
        <ele>499</ele>
        <time>2018-03-24T13:38:50Z</time>
      </trkpt>
      <trkpt lat="47.89663" lon="7.20505">
        <ele>502</ele>
        <time>2018-03-24T13:38:55Z</time>
      </trkpt>
      <trkpt lat="47.89669" lon="7.20498">
        <ele>505</ele>
        <time>2018-03-24T13:39:05Z</time>
      </trkpt>
      <trkpt lat="47.89677" lon="7.20496">
        <ele>506</ele>
        <time>2018-03-24T13:39:10Z</time>
      </trkpt>
      <trkpt lat="47.89685" lon="7.20493">
        <ele>507</ele>
        <time>2018-03-24T13:39:16Z</time>
      </trkpt>
      <trkpt lat="47.89691" lon="7.20486">
        <ele>507</ele>
        <time>2018-03-24T13:39:21Z</time>
      </trkpt>
      <trkpt lat="47.89699" lon="7.20483">
        <ele>507</ele>
        <time>2018-03-24T13:39:26Z</time>
      </trkpt>
      <trkpt lat="47.89704" lon="7.20479">
        <ele>507</ele>
        <time>2018-03-24T13:39:31Z</time>
      </trkpt>
      <trkpt lat="47.89716" lon="7.20476">
        <ele>508</ele>
        <time>2018-03-24T13:39:36Z</time>
      </trkpt>
      <trkpt lat="47.89724" lon="7.2048">
        <ele>508</ele>
        <time>2018-03-24T13:39:45Z</time>
      </trkpt>
      <trkpt lat="47.8973" lon="7.20488">
        <ele>508</ele>
        <time>2018-03-24T13:40:00Z</time>
      </trkpt>
      <trkpt lat="47.89737" lon="7.20492">
        <ele>507</ele>
        <time>2018-03-24T13:40:06Z</time>
      </trkpt>
      <trkpt lat="47.89745" lon="7.20497">
        <ele>507</ele>
        <time>2018-03-24T13:40:11Z</time>
      </trkpt>
      <trkpt lat="47.89751" lon="7.20508">
        <ele>503</ele>
        <time>2018-03-24T13:40:15Z</time>
      </trkpt>
      <trkpt lat="47.89758" lon="7.20516">
        <ele>499</ele>
        <time>2018-03-24T13:40:19Z</time>
      </trkpt>
      <trkpt lat="47.89767" lon="7.20525">
        <ele>496</ele>
        <time>2018-03-24T13:40:24Z</time>
      </trkpt>
      <trkpt lat="47.89778" lon="7.20532">
        <ele>494</ele>
        <time>2018-03-24T13:40:28Z</time>
      </trkpt>
      <trkpt lat="47.89784" lon="7.20526">
        <ele>494</ele>
        <time>2018-03-24T13:40:33Z</time>
      </trkpt>
      <trkpt lat="47.89787" lon="7.20514">
        <ele>495</ele>
        <time>2018-03-24T13:40:43Z</time>
      </trkpt>
      <trkpt lat="47.89791" lon="7.20503">
        <ele>495</ele>
        <time>2018-03-24T13:40:47Z</time>
      </trkpt>
      <trkpt lat="47.89795" lon="7.20493">
        <ele>504</ele>
        <time>2018-03-24T13:40:51Z</time>
      </trkpt>
      <trkpt lat="47.898" lon="7.20481">
        <ele>504</ele>
        <time>2018-03-24T13:40:55Z</time>
      </trkpt>
      <trkpt lat="47.89804" lon="7.20469">
        <ele>504</ele>
        <time>2018-03-24T13:41:00Z</time>
      </trkpt>
      <trkpt lat="47.8981" lon="7.2046">
        <ele>505</ele>
        <time>2018-03-24T13:41:04Z</time>
      </trkpt>
      <trkpt lat="47.89814" lon="7.20449">
        <ele>506</ele>
        <time>2018-03-24T13:41:08Z</time>
      </trkpt>
      <trkpt lat="47.89817" lon="7.20437">
        <ele>507</ele>
        <time>2018-03-24T13:41:13Z</time>
      </trkpt>
      <trkpt lat="47.8982" lon="7.20429">
        <ele>507</ele>
        <time>2018-03-24T13:41:17Z</time>
      </trkpt>
      <trkpt lat="47.89825" lon="7.20421">
        <ele>508</ele>
        <time>2018-03-24T13:41:22Z</time>
      </trkpt>
      <trkpt lat="47.89828" lon="7.20411">
        <ele>510</ele>
        <time>2018-03-24T13:41:26Z</time>
      </trkpt>
      <trkpt lat="47.89834" lon="7.20386">
        <ele>503</ele>
        <time>2018-03-24T13:41:31Z</time>
      </trkpt>
      <trkpt lat="47.89842" lon="7.20369">
        <ele>503</ele>
        <time>2018-03-24T13:41:35Z</time>
      </trkpt>
      <trkpt lat="47.89844" lon="7.20359">
        <ele>504</ele>
        <time>2018-03-24T13:41:39Z</time>
      </trkpt>
      <trkpt lat="47.89847" lon="7.20338">
        <ele>507</ele>
        <time>2018-03-24T13:41:43Z</time>
      </trkpt>
      <trkpt lat="47.89847" lon="7.20319">
        <ele>507</ele>
        <time>2018-03-24T13:41:47Z</time>
      </trkpt>
      <trkpt lat="47.89847" lon="7.203">
        <ele>505</ele>
        <time>2018-03-24T13:41:51Z</time>
      </trkpt>
      <trkpt lat="47.89847" lon="7.20276">
        <ele>506</ele>
        <time>2018-03-24T13:41:56Z</time>
      </trkpt>
      <trkpt lat="47.89849" lon="7.20257">
        <ele>508</ele>
        <time>2018-03-24T13:42:00Z</time>
      </trkpt>
      <trkpt lat="47.89852" lon="7.20238">
        <ele>506</ele>
        <time>2018-03-24T13:42:04Z</time>
      </trkpt>
      <trkpt lat="47.89852" lon="7.20209">
        <ele>503</ele>
        <time>2018-03-24T13:42:08Z</time>
      </trkpt>
      <trkpt lat="47.89847" lon="7.2018">
        <ele>505</ele>
        <time>2018-03-24T13:42:13Z</time>
      </trkpt>
      <trkpt lat="47.89845" lon="7.20164">
        <ele>505</ele>
        <time>2018-03-24T13:42:17Z</time>
      </trkpt>
      <trkpt lat="47.89841" lon="7.20151">
        <ele>504</ele>
        <time>2018-03-24T13:42:22Z</time>
      </trkpt>
      <trkpt lat="47.89833" lon="7.2014">
        <ele>516</ele>
        <time>2018-03-24T13:42:26Z</time>
      </trkpt>
      <trkpt lat="47.89833" lon="7.20117">
        <ele>516</ele>
        <time>2018-03-24T13:42:31Z</time>
      </trkpt>
      <trkpt lat="47.89833" lon="7.20102">
        <ele>514</ele>
        <time>2018-03-24T13:42:35Z</time>
      </trkpt>
      <trkpt lat="47.89829" lon="7.20087">
        <ele>511</ele>
        <time>2018-03-24T13:42:39Z</time>
      </trkpt>
      <trkpt lat="47.89825" lon="7.20067">
        <ele>515</ele>
        <time>2018-03-24T13:42:44Z</time>
      </trkpt>
      <trkpt lat="47.89821" lon="7.20051">
        <ele>518</ele>
        <time>2018-03-24T13:42:48Z</time>
      </trkpt>
      <trkpt lat="47.89825" lon="7.2003">
        <ele>518</ele>
        <time>2018-03-24T13:42:53Z</time>
      </trkpt>
      <trkpt lat="47.89822" lon="7.20014">
        <ele>517</ele>
        <time>2018-03-24T13:42:58Z</time>
      </trkpt>
      <trkpt lat="47.89822" lon="7.19997">
        <ele>518</ele>
        <time>2018-03-24T13:43:02Z</time>
      </trkpt>
      <trkpt lat="47.89828" lon="7.19975">
        <ele>521</ele>
        <time>2018-03-24T13:43:07Z</time>
      </trkpt>
      <trkpt lat="47.89827" lon="7.19958">
        <ele>523</ele>
        <time>2018-03-24T13:43:11Z</time>
      </trkpt>
      <trkpt lat="47.89827" lon="7.19941">
        <ele>523</ele>
        <time>2018-03-24T13:43:16Z</time>
      </trkpt>
      <trkpt lat="47.89827" lon="7.19921">
        <ele>522</ele>
        <time>2018-03-24T13:43:21Z</time>
      </trkpt>
      <trkpt lat="47.8983" lon="7.19905">
        <ele>526</ele>
        <time>2018-03-24T13:43:25Z</time>
      </trkpt>
      <trkpt lat="47.8983" lon="7.19895">
        <ele>528</ele>
        <time>2018-03-24T13:43:27Z</time>
      </trkpt>
      <trkpt lat="47.89828" lon="7.19875">
        <ele>531</ele>
        <time>2018-03-24T13:43:30Z</time>
      </trkpt>
      <trkpt lat="47.89833" lon="7.1986">
        <ele>532</ele>
        <time>2018-03-24T13:43:34Z</time>
      </trkpt>
      <trkpt lat="47.89836" lon="7.19844">
        <ele>522</ele>
        <time>2018-03-24T13:43:38Z</time>
      </trkpt>
      <trkpt lat="47.89842" lon="7.19827">
        <ele>525</ele>
        <time>2018-03-24T13:43:42Z</time>
      </trkpt>
      <trkpt lat="47.89846" lon="7.19812">
        <ele>522</ele>
        <time>2018-03-24T13:43:46Z</time>
      </trkpt>
      <trkpt lat="47.89849" lon="7.19798">
        <ele>521</ele>
        <time>2018-03-24T13:43:50Z</time>
      </trkpt>
      <trkpt lat="47.89849" lon="7.19789">
        <ele>522</ele>
        <time>2018-03-24T13:43:55Z</time>
      </trkpt>
      <trkpt lat="47.89851" lon="7.19774">
        <ele>524</ele>
        <time>2018-03-24T13:44:00Z</time>
      </trkpt>
      <trkpt lat="47.89854" lon="7.19759">
        <ele>525</ele>
        <time>2018-03-24T13:44:05Z</time>
      </trkpt>
      <trkpt lat="47.89857" lon="7.19749">
        <ele>530</ele>
        <time>2018-03-24T13:44:09Z</time>
      </trkpt>
      <trkpt lat="47.89856" lon="7.19737">
        <ele>529</ele>
        <time>2018-03-24T13:44:13Z</time>
      </trkpt>
      <trkpt lat="47.89859" lon="7.19721">
        <ele>528</ele>
        <time>2018-03-24T13:44:18Z</time>
      </trkpt>
      <trkpt lat="47.89857" lon="7.19709">
        <ele>529</ele>
        <time>2018-03-24T13:44:22Z</time>
      </trkpt>
      <trkpt lat="47.89855" lon="7.19696">
        <ele>530</ele>
        <time>2018-03-24T13:44:27Z</time>
      </trkpt>
      <trkpt lat="47.89859" lon="7.1968">
        <ele>531</ele>
        <time>2018-03-24T13:44:32Z</time>
      </trkpt>
      <trkpt lat="47.8986" lon="7.19657">
        <ele>531</ele>
        <time>2018-03-24T13:44:37Z</time>
      </trkpt>
      <trkpt lat="47.89853" lon="7.19647">
        <ele>531</ele>
        <time>2018-03-24T13:44:41Z</time>
      </trkpt>
      <trkpt lat="47.89848" lon="7.19635">
        <ele>530</ele>
        <time>2018-03-24T13:44:45Z</time>
      </trkpt>
      <trkpt lat="47.89842" lon="7.19621">
        <ele>530</ele>
        <time>2018-03-24T13:44:49Z</time>
      </trkpt>
      <trkpt lat="47.89834" lon="7.19609">
        <ele>530</ele>
        <time>2018-03-24T13:44:53Z</time>
      </trkpt>
      <trkpt lat="47.8983" lon="7.19597">
        <ele>540</ele>
        <time>2018-03-24T13:45:05Z</time>
      </trkpt>
      <trkpt lat="47.89829" lon="7.19585">
        <ele>538</ele>
        <time>2018-03-24T13:45:30Z</time>
      </trkpt>
      <trkpt lat="47.89829" lon="7.19571">
        <ele>534</ele>
        <time>2018-03-24T13:46:52Z</time>
      </trkpt>
      <trkpt lat="47.89832" lon="7.1956">
        <ele>532</ele>
        <time>2018-03-24T13:47:04Z</time>
      </trkpt>
      <trkpt lat="47.89844" lon="7.19557">
        <ele>520</ele>
        <time>2018-03-24T13:47:08Z</time>
      </trkpt>
      <trkpt lat="47.89853" lon="7.19555">
        <ele>518</ele>
        <time>2018-03-24T13:47:12Z</time>
      </trkpt>
      <trkpt lat="47.89847" lon="7.19546">
        <ele>518</ele>
        <time>2018-03-24T13:47:20Z</time>
      </trkpt>
      <trkpt lat="47.89849" lon="7.19535">
        <ele>516</ele>
        <time>2018-03-24T13:47:27Z</time>
      </trkpt>
      <trkpt lat="47.89855" lon="7.19528">
        <ele>514</ele>
        <time>2018-03-24T13:47:33Z</time>
      </trkpt>
      <trkpt lat="47.89862" lon="7.19529">
        <ele>514</ele>
        <time>2018-03-24T13:48:45Z</time>
      </trkpt>
      <trkpt lat="47.8987" lon="7.1953">
        <ele>513</ele>
        <time>2018-03-24T13:48:50Z</time>
      </trkpt>
      <trkpt lat="47.8988" lon="7.19523">
        <ele>510</ele>
        <time>2018-03-24T13:48:54Z</time>
      </trkpt>
      <trkpt lat="47.89887" lon="7.19511">
        <ele>508</ele>
        <time>2018-03-24T13:48:58Z</time>
      </trkpt>
      <trkpt lat="47.89894" lon="7.195">
        <ele>505</ele>
        <time>2018-03-24T13:49:02Z</time>
      </trkpt>
      <trkpt lat="47.89895" lon="7.19487">
        <ele>498</ele>
        <time>2018-03-24T13:49:28Z</time>
      </trkpt>
      <trkpt lat="47.89899" lon="7.19461">
        <ele>496</ele>
        <time>2018-03-24T13:49:32Z</time>
      </trkpt>
      <trkpt lat="47.89905" lon="7.19431">
        <ele>491</ele>
        <time>2018-03-24T13:49:37Z</time>
      </trkpt>
      <trkpt lat="47.89914" lon="7.19417">
        <ele>485</ele>
        <time>2018-03-24T13:49:42Z</time>
      </trkpt>
      <trkpt lat="47.89924" lon="7.19406">
        <ele>478</ele>
        <time>2018-03-24T13:49:46Z</time>
      </trkpt>
      <trkpt lat="47.89927" lon="7.19395">
        <ele>475</ele>
        <time>2018-03-24T13:49:51Z</time>
      </trkpt>
      <trkpt lat="47.89937" lon="7.19387">
        <ele>473</ele>
        <time>2018-03-24T13:49:55Z</time>
      </trkpt>
      <trkpt lat="47.89956" lon="7.19363">
        <ele>470</ele>
        <time>2018-03-24T13:49:59Z</time>
      </trkpt>
      <trkpt lat="47.89972" lon="7.19352">
        <ele>468</ele>
        <time>2018-03-24T13:50:04Z</time>
      </trkpt>
      <trkpt lat="47.89974" lon="7.19344">
        <ele>467</ele>
        <time>2018-03-24T13:51:09Z</time>
      </trkpt>
      <trkpt lat="47.89962" lon="7.1931">
        <ele>467</ele>
        <time>2018-03-24T13:51:13Z</time>
      </trkpt>
      <trkpt lat="47.89958" lon="7.19289">
        <ele>467</ele>
        <time>2018-03-24T13:51:18Z</time>
      </trkpt>
      <trkpt lat="47.89959" lon="7.19276">
        <ele>467</ele>
        <time>2018-03-24T13:54:45Z</time>
      </trkpt>
      <trkpt lat="47.89953" lon="7.1927">
        <ele>468</ele>
        <time>2018-03-24T13:57:38Z</time>
      </trkpt>
      <trkpt lat="47.89944" lon="7.19266">
        <ele>468</ele>
        <time>2018-03-24T13:57:45Z</time>
      </trkpt>
      <trkpt lat="47.89953" lon="7.19267">
        <ele>468</ele>
        <time>2018-03-24T13:58:43Z</time>
      </trkpt>
      <trkpt lat="47.89952" lon="7.19258">
        <ele>468</ele>
        <time>2018-03-24T14:02:25Z</time>
      </trkpt>
      <trkpt lat="47.89938" lon="7.19242">
        <ele>470</ele>
        <time>2018-03-24T14:02:29Z</time>
      </trkpt>
      <trkpt lat="47.89931" lon="7.19238">
        <ele>470</ele>
        <time>2018-03-24T14:02:37Z</time>
      </trkpt>
      <trkpt lat="47.89924" lon="7.19221">
        <ele>471</ele>
        <time>2018-03-24T14:02:41Z</time>
      </trkpt>
      <trkpt lat="47.8992" lon="7.1921">
        <ele>471</ele>
        <time>2018-03-24T14:02:45Z</time>
      </trkpt>
      <trkpt lat="47.89916" lon="7.19196">
        <ele>468</ele>
        <time>2018-03-24T14:02:50Z</time>
      </trkpt>
      <trkpt lat="47.89906" lon="7.1918">
        <ele>468</ele>
        <time>2018-03-24T14:02:55Z</time>
      </trkpt>
      <trkpt lat="47.89901" lon="7.19171">
        <ele>468</ele>
        <time>2018-03-24T14:02:59Z</time>
      </trkpt>
      <trkpt lat="47.89899" lon="7.19159">
        <ele>469</ele>
        <time>2018-03-24T14:03:03Z</time>
      </trkpt>
      <trkpt lat="47.89894" lon="7.1914">
        <ele>469</ele>
        <time>2018-03-24T14:03:07Z</time>
      </trkpt>
      <trkpt lat="47.89892" lon="7.19124">
        <ele>469</ele>
        <time>2018-03-24T14:03:11Z</time>
      </trkpt>
      <trkpt lat="47.89895" lon="7.19111">
        <ele>471</ele>
        <time>2018-03-24T14:03:15Z</time>
      </trkpt>
      <trkpt lat="47.89895" lon="7.19098">
        <ele>472</ele>
        <time>2018-03-24T14:03:22Z</time>
      </trkpt>
      <trkpt lat="47.89893" lon="7.19082">
        <ele>476</ele>
        <time>2018-03-24T14:03:26Z</time>
      </trkpt>
      <trkpt lat="47.89896" lon="7.19066">
        <ele>476</ele>
        <time>2018-03-24T14:03:31Z</time>
      </trkpt>
      <trkpt lat="47.89895" lon="7.19048">
        <ele>475</ele>
        <time>2018-03-24T14:03:36Z</time>
      </trkpt>
      <trkpt lat="47.89891" lon="7.19036">
        <ele>475</ele>
        <time>2018-03-24T14:03:44Z</time>
      </trkpt>
      <trkpt lat="47.89888" lon="7.19025">
        <ele>475</ele>
        <time>2018-03-24T14:03:51Z</time>
      </trkpt>
      <trkpt lat="47.89883" lon="7.1901">
        <ele>475</ele>
        <time>2018-03-24T14:03:56Z</time>
      </trkpt>
      <trkpt lat="47.89875" lon="7.18991">
        <ele>477</ele>
        <time>2018-03-24T14:04:00Z</time>
      </trkpt>
      <trkpt lat="47.89867" lon="7.18974">
        <ele>476</ele>
        <time>2018-03-24T14:04:03Z</time>
      </trkpt>
      <trkpt lat="47.89863" lon="7.18958">
        <ele>476</ele>
        <time>2018-03-24T14:04:08Z</time>
      </trkpt>
      <trkpt lat="47.89865" lon="7.18931">
        <ele>477</ele>
        <time>2018-03-24T14:04:13Z</time>
      </trkpt>
      <trkpt lat="47.89871" lon="7.18915">
        <ele>481</ele>
        <time>2018-03-24T14:04:18Z</time>
      </trkpt>
      <trkpt lat="47.89878" lon="7.18906">
        <ele>483</ele>
        <time>2018-03-24T14:04:22Z</time>
      </trkpt>
      <trkpt lat="47.89881" lon="7.18895">
        <ele>484</ele>
        <time>2018-03-24T14:04:27Z</time>
      </trkpt>
      <trkpt lat="47.89882" lon="7.18884">
        <ele>484</ele>
        <time>2018-03-24T14:04:31Z</time>
      </trkpt>
      <trkpt lat="47.89883" lon="7.18873">
        <ele>484</ele>
        <time>2018-03-24T14:04:35Z</time>
      </trkpt>
      <trkpt lat="47.89879" lon="7.18862">
        <ele>483</ele>
        <time>2018-03-24T14:04:40Z</time>
      </trkpt>
      <trkpt lat="47.89879" lon="7.18849">
        <ele>483</ele>
        <time>2018-03-24T14:04:46Z</time>
      </trkpt>
      <trkpt lat="47.89885" lon="7.1884">
        <ele>485</ele>
        <time>2018-03-24T14:04:51Z</time>
      </trkpt>
      <trkpt lat="47.89893" lon="7.18837">
        <ele>487</ele>
        <time>2018-03-24T14:04:55Z</time>
      </trkpt>
      <trkpt lat="47.89902" lon="7.18835">
        <ele>490</ele>
        <time>2018-03-24T14:05:00Z</time>
      </trkpt>
      <trkpt lat="47.8991" lon="7.18839">
        <ele>492</ele>
        <time>2018-03-24T14:05:19Z</time>
      </trkpt>
      <trkpt lat="47.89919" lon="7.18836">
        <ele>497</ele>
        <time>2018-03-24T14:05:25Z</time>
      </trkpt>
      <trkpt lat="47.89929" lon="7.18835">
        <ele>500</ele>
        <time>2018-03-24T14:05:30Z</time>
      </trkpt>
      <trkpt lat="47.89937" lon="7.18838">
        <ele>502</ele>
        <time>2018-03-24T14:05:36Z</time>
      </trkpt>
      <trkpt lat="47.89943" lon="7.18843">
        <ele>503</ele>
        <time>2018-03-24T14:05:41Z</time>
      </trkpt>
      <trkpt lat="47.89951" lon="7.18848">
        <ele>505</ele>
        <time>2018-03-24T14:05:47Z</time>
      </trkpt>
      <trkpt lat="47.89961" lon="7.18852">
        <ele>506</ele>
        <time>2018-03-24T14:05:52Z</time>
      </trkpt>
      <trkpt lat="47.89969" lon="7.18851">
        <ele>507</ele>
        <time>2018-03-24T14:05:58Z</time>
      </trkpt>
      <trkpt lat="47.89975" lon="7.18842">
        <ele>508</ele>
        <time>2018-03-24T14:06:05Z</time>
      </trkpt>
      <trkpt lat="47.8998" lon="7.18832">
        <ele>507</ele>
        <time>2018-03-24T14:06:13Z</time>
      </trkpt>
      <trkpt lat="47.89987" lon="7.18825">
        <ele>508</ele>
        <time>2018-03-24T14:06:19Z</time>
      </trkpt>
      <trkpt lat="47.89989" lon="7.18824">
        <ele>508</ele>
        <time>2018-03-24T14:06:20Z</time>
      </trkpt>
      <trkpt lat="47.90052" lon="7.18715">
        <ele>523</ele>
        <time>2018-03-24T14:07:30Z</time>
      </trkpt>
      <trkpt lat="47.90058" lon="7.1871">
        <ele>524</ele>
        <time>2018-03-24T14:07:35Z</time>
      </trkpt>
      <trkpt lat="47.90061" lon="7.18698">
        <ele>524</ele>
        <time>2018-03-24T14:07:40Z</time>
      </trkpt>
      <trkpt lat="47.90066" lon="7.18688">
        <ele>526</ele>
        <time>2018-03-24T14:07:45Z</time>
      </trkpt>
      <trkpt lat="47.90066" lon="7.18676">
        <ele>527</ele>
        <time>2018-03-24T14:07:50Z</time>
      </trkpt>
      <trkpt lat="47.90069" lon="7.18665">
        <ele>527</ele>
        <time>2018-03-24T14:07:55Z</time>
      </trkpt>
      <trkpt lat="47.90072" lon="7.18654">
        <ele>526</ele>
        <time>2018-03-24T14:08:00Z</time>
      </trkpt>
      <trkpt lat="47.90078" lon="7.18646">
        <ele>525</ele>
        <time>2018-03-24T14:08:05Z</time>
      </trkpt>
      <trkpt lat="47.90084" lon="7.18636">
        <ele>532</ele>
        <time>2018-03-24T14:08:11Z</time>
      </trkpt>
      <trkpt lat="47.90094" lon="7.18626">
        <ele>532</ele>
        <time>2018-03-24T14:08:16Z</time>
      </trkpt>
      <trkpt lat="47.90108" lon="7.1861">
        <ele>531</ele>
        <time>2018-03-24T14:08:20Z</time>
      </trkpt>
      <trkpt lat="47.9013" lon="7.18593">
        <ele>532</ele>
        <time>2018-03-24T14:08:23Z</time>
      </trkpt>
      <trkpt lat="47.90149" lon="7.18583">
        <ele>528</ele>
        <time>2018-03-24T14:08:27Z</time>
      </trkpt>
      <trkpt lat="47.90169" lon="7.18563">
        <ele>536</ele>
        <time>2018-03-24T14:08:32Z</time>
      </trkpt>
      <trkpt lat="47.90175" lon="7.18552">
        <ele>536</ele>
        <time>2018-03-24T14:08:36Z</time>
      </trkpt>
      <trkpt lat="47.9018" lon="7.18545">
        <ele>536</ele>
        <time>2018-03-24T14:08:43Z</time>
      </trkpt>
      <trkpt lat="47.90185" lon="7.18535">
        <ele>536</ele>
        <time>2018-03-24T14:08:47Z</time>
      </trkpt>
      <trkpt lat="47.90188" lon="7.18523">
        <ele>535</ele>
        <time>2018-03-24T14:08:54Z</time>
      </trkpt>
      <trkpt lat="47.90193" lon="7.18515">
        <ele>535</ele>
        <time>2018-03-24T14:08:59Z</time>
      </trkpt>
      <trkpt lat="47.902" lon="7.18508">
        <ele>537</ele>
        <time>2018-03-24T14:09:04Z</time>
      </trkpt>
      <trkpt lat="47.90206" lon="7.18501">
        <ele>538</ele>
        <time>2018-03-24T14:09:10Z</time>
      </trkpt>
      <trkpt lat="47.90211" lon="7.18491">
        <ele>535</ele>
        <time>2018-03-24T14:09:16Z</time>
      </trkpt>
      <trkpt lat="47.90217" lon="7.18481">
        <ele>536</ele>
        <time>2018-03-24T14:09:22Z</time>
      </trkpt>
      <trkpt lat="47.90223" lon="7.18473">
        <ele>537</ele>
        <time>2018-03-24T14:09:27Z</time>
      </trkpt>
      <trkpt lat="47.90226" lon="7.18464">
        <ele>537</ele>
        <time>2018-03-24T14:09:32Z</time>
      </trkpt>
      <trkpt lat="47.90229" lon="7.18456">
        <ele>537</ele>
        <time>2018-03-24T14:09:37Z</time>
      </trkpt>
      <trkpt lat="47.90232" lon="7.18447">
        <ele>537</ele>
        <time>2018-03-24T14:09:40Z</time>
      </trkpt>
      <trkpt lat="47.90234" lon="7.18435">
        <ele>538</ele>
        <time>2018-03-24T14:09:45Z</time>
      </trkpt>
      <trkpt lat="47.90238" lon="7.18424">
        <ele>541</ele>
        <time>2018-03-24T14:09:51Z</time>
      </trkpt>
      <trkpt lat="47.90241" lon="7.18413">
        <ele>539</ele>
        <time>2018-03-24T14:09:55Z</time>
      </trkpt>
      <trkpt lat="47.90244" lon="7.18402">
        <ele>536</ele>
        <time>2018-03-24T14:10:03Z</time>
      </trkpt>
      <trkpt lat="47.90247" lon="7.18393">
        <ele>533</ele>
        <time>2018-03-24T14:10:09Z</time>
      </trkpt>
      <trkpt lat="47.90248" lon="7.18387">
        <ele>531</ele>
        <time>2018-03-24T14:10:12Z</time>
      </trkpt>
      <trkpt lat="47.90253" lon="7.18377">
        <ele>551</ele>
        <time>2018-03-24T14:10:17Z</time>
      </trkpt>
      <trkpt lat="47.90258" lon="7.18364">
        <ele>550</ele>
        <time>2018-03-24T14:10:21Z</time>
      </trkpt>
      <trkpt lat="47.90266" lon="7.18351">
        <ele>548</ele>
        <time>2018-03-24T14:10:26Z</time>
      </trkpt>
      <trkpt lat="47.90275" lon="7.18339">
        <ele>549</ele>
        <time>2018-03-24T14:10:31Z</time>
      </trkpt>
      <trkpt lat="47.90282" lon="7.18332">
        <ele>543</ele>
        <time>2018-03-24T14:10:35Z</time>
      </trkpt>
      <trkpt lat="47.90287" lon="7.18324">
        <ele>544</ele>
        <time>2018-03-24T14:10:39Z</time>
      </trkpt>
      <trkpt lat="47.90293" lon="7.18315">
        <ele>545</ele>
        <time>2018-03-24T14:10:44Z</time>
      </trkpt>
      <trkpt lat="47.90297" lon="7.18308">
        <ele>545</ele>
        <time>2018-03-24T14:10:47Z</time>
      </trkpt>
      <trkpt lat="47.90301" lon="7.18297">
        <ele>544</ele>
        <time>2018-03-24T14:10:51Z</time>
      </trkpt>
      <trkpt lat="47.9031" lon="7.18287">
        <ele>545</ele>
        <time>2018-03-24T14:10:56Z</time>
      </trkpt>
      <trkpt lat="47.90316" lon="7.18276">
        <ele>545</ele>
        <time>2018-03-24T14:11:00Z</time>
      </trkpt>
      <trkpt lat="47.90322" lon="7.18267">
        <ele>546</ele>
        <time>2018-03-24T14:11:04Z</time>
      </trkpt>
      <trkpt lat="47.90326" lon="7.18254">
        <ele>548</ele>
        <time>2018-03-24T14:11:09Z</time>
      </trkpt>
      <trkpt lat="47.90334" lon="7.18249">
        <ele>550</ele>
        <time>2018-03-24T14:11:13Z</time>
      </trkpt>
      <trkpt lat="47.90342" lon="7.1824">
        <ele>550</ele>
        <time>2018-03-24T14:11:17Z</time>
      </trkpt>
      <trkpt lat="47.90348" lon="7.18231">
        <ele>549</ele>
        <time>2018-03-24T14:11:21Z</time>
      </trkpt>
      <trkpt lat="47.90359" lon="7.18226">
        <ele>550</ele>
        <time>2018-03-24T14:11:26Z</time>
      </trkpt>
      <trkpt lat="47.90367" lon="7.18222">
        <ele>550</ele>
        <time>2018-03-24T14:11:30Z</time>
      </trkpt>
      <trkpt lat="47.90376" lon="7.18221">
        <ele>551</ele>
        <time>2018-03-24T14:11:34Z</time>
      </trkpt>
      <trkpt lat="47.90385" lon="7.18222">
        <ele>553</ele>
        <time>2018-03-24T14:11:38Z</time>
      </trkpt>
      <trkpt lat="47.90394" lon="7.18219">
        <ele>554</ele>
        <time>2018-03-24T14:11:42Z</time>
      </trkpt>
      <trkpt lat="47.90403" lon="7.18214">
        <ele>554</ele>
        <time>2018-03-24T14:11:46Z</time>
      </trkpt>
      <trkpt lat="47.90411" lon="7.18209">
        <ele>553</ele>
        <time>2018-03-24T14:11:50Z</time>
      </trkpt>
      <trkpt lat="47.90422" lon="7.18202">
        <ele>565</ele>
        <time>2018-03-24T14:11:55Z</time>
      </trkpt>
      <trkpt lat="47.9043" lon="7.18197">
        <ele>564</ele>
        <time>2018-03-24T14:11:59Z</time>
      </trkpt>
      <trkpt lat="47.9044" lon="7.18195">
        <ele>565</ele>
        <time>2018-03-24T14:12:04Z</time>
      </trkpt>
      <trkpt lat="47.9045" lon="7.18192">
        <ele>566</ele>
        <time>2018-03-24T14:12:08Z</time>
      </trkpt>
      <trkpt lat="47.90457" lon="7.18187">
        <ele>567</ele>
        <time>2018-03-24T14:12:12Z</time>
      </trkpt>
      <trkpt lat="47.90463" lon="7.18177">
        <ele>567</ele>
        <time>2018-03-24T14:12:17Z</time>
      </trkpt>
      <trkpt lat="47.90468" lon="7.18165">
        <ele>555</ele>
        <time>2018-03-24T14:12:21Z</time>
      </trkpt>
      <trkpt lat="47.90475" lon="7.18153">
        <ele>556</ele>
        <time>2018-03-24T14:12:25Z</time>
      </trkpt>
      <trkpt lat="47.90477" lon="7.1814">
        <ele>555</ele>
        <time>2018-03-24T14:12:31Z</time>
      </trkpt>
      <trkpt lat="47.90479" lon="7.18117">
        <ele>552</ele>
        <time>2018-03-24T14:12:36Z</time>
      </trkpt>
      <trkpt lat="47.90481" lon="7.181">
        <ele>552</ele>
        <time>2018-03-24T14:12:40Z</time>
      </trkpt>
      <trkpt lat="47.90486" lon="7.18089">
        <ele>553</ele>
        <time>2018-03-24T14:12:43Z</time>
      </trkpt>
      <trkpt lat="47.90496" lon="7.18074">
        <ele>549</ele>
        <time>2018-03-24T14:12:48Z</time>
      </trkpt>
      <trkpt lat="47.90509" lon="7.18066">
        <ele>552</ele>
        <time>2018-03-24T14:12:53Z</time>
      </trkpt>
      <trkpt lat="47.9052" lon="7.18064">
        <ele>551</ele>
        <time>2018-03-24T14:12:57Z</time>
      </trkpt>
      <trkpt lat="47.90532" lon="7.18064">
        <ele>551</ele>
        <time>2018-03-24T14:13:02Z</time>
      </trkpt>
      <trkpt lat="47.90539" lon="7.18068">
        <ele>551</ele>
        <time>2018-03-24T14:13:06Z</time>
      </trkpt>
      <trkpt lat="47.90553" lon="7.18074">
        <ele>552</ele>
        <time>2018-03-24T14:13:11Z</time>
      </trkpt>
      <trkpt lat="47.90561" lon="7.1808">
        <ele>553</ele>
        <time>2018-03-24T14:13:15Z</time>
      </trkpt>
      <trkpt lat="47.90573" lon="7.18087">
        <ele>561</ele>
        <time>2018-03-24T14:13:20Z</time>
      </trkpt>
      <trkpt lat="47.90581" lon="7.18092">
        <ele>560</ele>
        <time>2018-03-24T14:13:24Z</time>
      </trkpt>
      <trkpt lat="47.90591" lon="7.18102">
        <ele>561</ele>
        <time>2018-03-24T14:13:28Z</time>
      </trkpt>
      <trkpt lat="47.90598" lon="7.18113">
        <ele>562</ele>
        <time>2018-03-24T14:13:33Z</time>
      </trkpt>
      <trkpt lat="47.90605" lon="7.18124">
        <ele>563</ele>
        <time>2018-03-24T14:13:37Z</time>
      </trkpt>
      <trkpt lat="47.90614" lon="7.18136">
        <ele>564</ele>
        <time>2018-03-24T14:13:41Z</time>
      </trkpt>
      <trkpt lat="47.9062" lon="7.18145">
        <ele>565</ele>
        <time>2018-03-24T14:13:45Z</time>
      </trkpt>
      <trkpt lat="47.90632" lon="7.18153">
        <ele>564</ele>
        <time>2018-03-24T14:13:49Z</time>
      </trkpt>
      <trkpt lat="47.90641" lon="7.1816">
        <ele>564</ele>
        <time>2018-03-24T14:13:54Z</time>
      </trkpt>
      <trkpt lat="47.90652" lon="7.18171">
        <ele>573</ele>
        <time>2018-03-24T14:13:59Z</time>
      </trkpt>
      <trkpt lat="47.9066" lon="7.18178">
        <ele>572</ele>
        <time>2018-03-24T14:14:02Z</time>
      </trkpt>
      <trkpt lat="47.90675" lon="7.18188">
        <ele>575</ele>
        <time>2018-03-24T14:14:07Z</time>
      </trkpt>
      <trkpt lat="47.90691" lon="7.18196">
        <ele>578</ele>
        <time>2018-03-24T14:14:12Z</time>
      </trkpt>
      <trkpt lat="47.90697" lon="7.18191">
        <ele>578</ele>
        <time>2018-03-24T14:14:16Z</time>
      </trkpt>
      <trkpt lat="47.90707" lon="7.18181">
        <ele>578</ele>
        <time>2018-03-24T14:14:20Z</time>
      </trkpt>
      <trkpt lat="47.90715" lon="7.18168">
        <ele>578</ele>
        <time>2018-03-24T14:14:24Z</time>
      </trkpt>
      <trkpt lat="47.90724" lon="7.18152">
        <ele>567</ele>
        <time>2018-03-24T14:14:28Z</time>
      </trkpt>
      <trkpt lat="47.90734" lon="7.18142">
        <ele>567</ele>
        <time>2018-03-24T14:14:31Z</time>
      </trkpt>
      <trkpt lat="47.90747" lon="7.1813">
        <ele>565</ele>
        <time>2018-03-24T14:14:35Z</time>
      </trkpt>
      <trkpt lat="47.90759" lon="7.18116">
        <ele>575</ele>
        <time>2018-03-24T14:14:39Z</time>
      </trkpt>
      <trkpt lat="47.90772" lon="7.18102">
        <ele>574</ele>
        <time>2018-03-24T14:14:43Z</time>
      </trkpt>
      <trkpt lat="47.90787" lon="7.18087">
        <ele>577</ele>
        <time>2018-03-24T14:14:47Z</time>
      </trkpt>
      <trkpt lat="47.90797" lon="7.1807">
        <ele>571</ele>
        <time>2018-03-24T14:14:51Z</time>
      </trkpt>
      <trkpt lat="47.90808" lon="7.18059">
        <ele>573</ele>
        <time>2018-03-24T14:14:55Z</time>
      </trkpt>
      <trkpt lat="47.90816" lon="7.18034">
        <ele>572</ele>
        <time>2018-03-24T14:14:59Z</time>
      </trkpt>
      <trkpt lat="47.90805" lon="7.18006">
        <ele>571</ele>
        <time>2018-03-24T14:15:04Z</time>
      </trkpt>
      <trkpt lat="47.90785" lon="7.17951">
        <ele>557</ele>
        <time>2018-03-24T14:15:08Z</time>
      </trkpt>
      <trkpt lat="47.9079" lon="7.17915">
        <ele>549</ele>
        <time>2018-03-24T14:15:13Z</time>
      </trkpt>
      <trkpt lat="47.90803" lon="7.17892">
        <ele>551</ele>
        <time>2018-03-24T14:15:17Z</time>
      </trkpt>
      <trkpt lat="47.90815" lon="7.17876">
        <ele>552</ele>
        <time>2018-03-24T14:15:21Z</time>
      </trkpt>
      <trkpt lat="47.9083" lon="7.17859">
        <ele>552</ele>
        <time>2018-03-24T14:15:26Z</time>
      </trkpt>
      <trkpt lat="47.90846" lon="7.1784">
        <ele>563</ele>
        <time>2018-03-24T14:15:31Z</time>
      </trkpt>
      <trkpt lat="47.90862" lon="7.17822">
        <ele>560</ele>
        <time>2018-03-24T14:15:36Z</time>
      </trkpt>
      <trkpt lat="47.90871" lon="7.17809">
        <ele>561</ele>
        <time>2018-03-24T14:15:40Z</time>
      </trkpt>
      <trkpt lat="47.90883" lon="7.178">
        <ele>562</ele>
        <time>2018-03-24T14:15:44Z</time>
      </trkpt>
      <trkpt lat="47.90896" lon="7.17792">
        <ele>563</ele>
        <time>2018-03-24T14:15:47Z</time>
      </trkpt>
      <trkpt lat="47.90905" lon="7.17782">
        <ele>563</ele>
        <time>2018-03-24T14:15:52Z</time>
      </trkpt>
      <trkpt lat="47.90913" lon="7.17771">
        <ele>563</ele>
        <time>2018-03-24T14:15:56Z</time>
      </trkpt>
      <trkpt lat="47.90927" lon="7.1776">
        <ele>568</ele>
        <time>2018-03-24T14:16:00Z</time>
      </trkpt>
      <trkpt lat="47.90934" lon="7.17747">
        <ele>566</ele>
        <time>2018-03-24T14:16:05Z</time>
      </trkpt>
      <trkpt lat="47.90943" lon="7.17734">
        <ele>566</ele>
        <time>2018-03-24T14:16:09Z</time>
      </trkpt>
      <trkpt lat="47.90946" lon="7.17723">
        <ele>566</ele>
        <time>2018-03-24T14:16:15Z</time>
      </trkpt>
      <trkpt lat="47.90948" lon="7.17711">
        <ele>566</ele>
        <time>2018-03-24T14:16:26Z</time>
      </trkpt>
      <trkpt lat="47.90942" lon="7.17704">
        <ele>566</ele>
        <time>2018-03-24T14:16:55Z</time>
      </trkpt>
      <trkpt lat="47.90941" lon="7.17716">
        <ele>566</ele>
        <time>2018-03-24T14:17:13Z</time>
      </trkpt>
      <trkpt lat="47.90944" lon="7.17724">
        <ele>566</ele>
        <time>2018-03-24T14:17:24Z</time>
      </trkpt>
      <trkpt lat="47.90944" lon="7.17712">
        <ele>566</ele>
        <time>2018-03-24T14:24:27Z</time>
      </trkpt>
      <trkpt lat="47.90947" lon="7.17658">
        <ele>568</ele>
        <time>2018-03-24T14:24:31Z</time>
      </trkpt>
      <trkpt lat="47.90956" lon="7.17638">
        <ele>568</ele>
        <time>2018-03-24T14:24:36Z</time>
      </trkpt>
      <trkpt lat="47.90961" lon="7.17616">
        <ele>568</ele>
        <time>2018-03-24T14:24:41Z</time>
      </trkpt>
      <trkpt lat="47.90964" lon="7.17601">
        <ele>569</ele>
        <time>2018-03-24T14:24:44Z</time>
      </trkpt>
      <trkpt lat="47.90965" lon="7.17586">
        <ele>569</ele>
        <time>2018-03-24T14:24:49Z</time>
      </trkpt>
      <trkpt lat="47.90972" lon="7.17562">
        <ele>572</ele>
        <time>2018-03-24T14:24:54Z</time>
      </trkpt>
      <trkpt lat="47.9098" lon="7.17538">
        <ele>572</ele>
        <time>2018-03-24T14:24:59Z</time>
      </trkpt>
      <trkpt lat="47.90987" lon="7.17517">
        <ele>573</ele>
        <time>2018-03-24T14:25:03Z</time>
      </trkpt>
      <trkpt lat="47.91004" lon="7.17518">
        <ele>570</ele>
        <time>2018-03-24T14:25:08Z</time>
      </trkpt>
      <trkpt lat="47.91023" lon="7.17528">
        <ele>568</ele>
        <time>2018-03-24T14:25:12Z</time>
      </trkpt>
      <trkpt lat="47.91033" lon="7.17529">
        <ele>568</ele>
        <time>2018-03-24T14:25:17Z</time>
      </trkpt>
      <trkpt lat="47.91048" lon="7.1753">
        <ele>567</ele>
        <time>2018-03-24T14:25:21Z</time>
      </trkpt>
      <trkpt lat="47.9107" lon="7.17533">
        <ele>567</ele>
        <time>2018-03-24T14:25:26Z</time>
      </trkpt>
      <trkpt lat="47.91088" lon="7.17534">
        <ele>564</ele>
        <time>2018-03-24T14:25:30Z</time>
      </trkpt>
      <trkpt lat="47.91104" lon="7.17531">
        <ele>564</ele>
        <time>2018-03-24T14:25:34Z</time>
      </trkpt>
      <trkpt lat="47.91113" lon="7.1753">
        <ele>564</ele>
        <time>2018-03-24T14:25:36Z</time>
      </trkpt>
      <trkpt lat="47.91326" lon="7.17404">
        <ele>561</ele>
        <time>2018-03-24T14:27:11Z</time>
      </trkpt>
      <trkpt lat="47.91327" lon="7.17381">
        <ele>565</ele>
        <time>2018-03-24T14:27:16Z</time>
      </trkpt>
      <trkpt lat="47.91327" lon="7.17359">
        <ele>565</ele>
        <time>2018-03-24T14:27:20Z</time>
      </trkpt>
      <trkpt lat="47.91336" lon="7.17343">
        <ele>553</ele>
        <time>2018-03-24T14:27:25Z</time>
      </trkpt>
      <trkpt lat="47.91354" lon="7.17317">
        <ele>553</ele>
        <time>2018-03-24T14:27:28Z</time>
      </trkpt>
      <trkpt lat="47.91367" lon="7.1728">
        <ele>554</ele>
        <time>2018-03-24T14:27:32Z</time>
      </trkpt>
      <trkpt lat="47.91366" lon="7.17269">
        <ele>555</ele>
        <time>2018-03-24T14:27:36Z</time>
      </trkpt>
      <trkpt lat="47.9137" lon="7.17259">
        <ele>555</ele>
        <time>2018-03-24T14:27:39Z</time>
      </trkpt>
      <trkpt lat="47.91387" lon="7.17251">
        <ele>552</ele>
        <time>2018-03-24T14:27:43Z</time>
      </trkpt>
      <trkpt lat="47.91392" lon="7.17252">
        <ele>552</ele>
        <time>2018-03-24T14:27:47Z</time>
      </trkpt>
      <trkpt lat="47.9141" lon="7.17257">
        <ele>550</ele>
        <time>2018-03-24T14:27:51Z</time>
      </trkpt>
      <trkpt lat="47.91423" lon="7.17268">
        <ele>544</ele>
        <time>2018-03-24T14:27:56Z</time>
      </trkpt>
      <trkpt lat="47.91454" lon="7.17279">
        <ele>540</ele>
        <time>2018-03-24T14:28:01Z</time>
      </trkpt>
      <trkpt lat="47.91483" lon="7.17277">
        <ele>540</ele>
        <time>2018-03-24T14:28:05Z</time>
      </trkpt>
      <trkpt lat="47.9152" lon="7.17264">
        <ele>538</ele>
        <time>2018-03-24T14:28:10Z</time>
      </trkpt>
      <trkpt lat="47.91551" lon="7.17257">
        <ele>535</ele>
        <time>2018-03-24T14:28:14Z</time>
      </trkpt>
      <trkpt lat="47.91561" lon="7.17247">
        <ele>543</ele>
        <time>2018-03-24T14:28:18Z</time>
      </trkpt>
      <trkpt lat="47.91582" lon="7.1724">
        <ele>540</ele>
        <time>2018-03-24T14:28:23Z</time>
      </trkpt>
      <trkpt lat="47.91603" lon="7.17238">
        <ele>534</ele>
        <time>2018-03-24T14:28:27Z</time>
      </trkpt>
      <trkpt lat="47.91629" lon="7.17227">
        <ele>531</ele>
        <time>2018-03-24T14:28:32Z</time>
      </trkpt>
      <trkpt lat="47.9164" lon="7.17217">
        <ele>531</ele>
        <time>2018-03-24T14:28:36Z</time>
      </trkpt>
      <trkpt lat="47.91645" lon="7.17212">
        <ele>530</ele>
        <time>2018-03-24T14:29:18Z</time>
      </trkpt>
      <trkpt lat="47.91663" lon="7.17199">
        <ele>529</ele>
        <time>2018-03-24T14:29:23Z</time>
      </trkpt>
      <trkpt lat="47.91669" lon="7.17165">
        <ele>522</ele>
        <time>2018-03-24T14:29:27Z</time>
      </trkpt>
      <trkpt lat="47.91673" lon="7.17127">
        <ele>515</ele>
        <time>2018-03-24T14:29:31Z</time>
      </trkpt>
      <trkpt lat="47.91685" lon="7.17083">
        <ele>520</ele>
        <time>2018-03-24T14:29:36Z</time>
      </trkpt>
      <trkpt lat="47.91708" lon="7.17058">
        <ele>515</ele>
        <time>2018-03-24T14:29:40Z</time>
      </trkpt>
      <trkpt lat="47.91725" lon="7.17055">
        <ele>512</ele>
        <time>2018-03-24T14:29:43Z</time>
      </trkpt>
      <trkpt lat="47.91748" lon="7.17046">
        <ele>510</ele>
        <time>2018-03-24T14:29:47Z</time>
      </trkpt>
      <trkpt lat="47.91789" lon="7.17042">
        <ele>490</ele>
        <time>2018-03-24T14:29:52Z</time>
      </trkpt>
      <trkpt lat="47.91818" lon="7.1703">
        <ele>486</ele>
        <time>2018-03-24T14:29:57Z</time>
      </trkpt>
      <trkpt lat="47.91825" lon="7.17025">
        <ele>485</ele>
        <time>2018-03-24T14:30:03Z</time>
      </trkpt>
      <trkpt lat="47.91836" lon="7.17011">
        <ele>475</ele>
        <time>2018-03-24T14:30:07Z</time>
      </trkpt>
      <trkpt lat="47.9185" lon="7.16986">
        <ele>471</ele>
        <time>2018-03-24T14:30:12Z</time>
      </trkpt>
      <trkpt lat="47.91856" lon="7.16983">
        <ele>469</ele>
        <time>2018-03-24T14:30:18Z</time>
      </trkpt>
      <trkpt lat="47.91871" lon="7.17004">
        <ele>467</ele>
        <time>2018-03-24T14:30:22Z</time>
      </trkpt>
      <trkpt lat="47.91882" lon="7.17029">
        <ele>465</ele>
        <time>2018-03-24T14:30:27Z</time>
      </trkpt>
      <trkpt lat="47.91897" lon="7.17036">
        <ele>463</ele>
        <time>2018-03-24T14:30:31Z</time>
      </trkpt>
      <trkpt lat="47.91906" lon="7.17043">
        <ele>463</ele>
        <time>2018-03-24T14:30:35Z</time>
      </trkpt>
      <trkpt lat="47.91917" lon="7.17066">
        <ele>449</ele>
        <time>2018-03-24T14:30:39Z</time>
      </trkpt>
      <trkpt lat="47.91919" lon="7.17054">
        <ele>446</ele>
        <time>2018-03-24T14:30:46Z</time>
      </trkpt>
      <trkpt lat="47.91917" lon="7.17036">
        <ele>445</ele>
        <time>2018-03-24T14:30:50Z</time>
      </trkpt>
      <trkpt lat="47.91927" lon="7.17043">
        <ele>444</ele>
        <time>2018-03-24T14:30:55Z</time>
      </trkpt>
      <trkpt lat="47.91947" lon="7.17068">
        <ele>443</ele>
        <time>2018-03-24T14:31:00Z</time>
      </trkpt>
      <trkpt lat="47.91959" lon="7.17089">
        <ele>441</ele>
        <time>2018-03-24T14:31:04Z</time>
      </trkpt>
      <trkpt lat="47.91971" lon="7.1711">
        <ele>439</ele>
        <time>2018-03-24T14:31:09Z</time>
      </trkpt>
      <trkpt lat="47.91981" lon="7.17132">
        <ele>437</ele>
        <time>2018-03-24T14:31:13Z</time>
      </trkpt>
      <trkpt lat="47.91986" lon="7.17146">
        <ele>436</ele>
        <time>2018-03-24T14:31:17Z</time>
      </trkpt>
      <trkpt lat="47.91987" lon="7.1714">
        <ele>436</ele>
        <time>2018-03-24T14:31:23Z</time>
      </trkpt>
      <trkpt lat="47.91991" lon="7.17124">
        <ele>437</ele>
        <time>2018-03-24T14:31:27Z</time>
      </trkpt>
      <trkpt lat="47.91996" lon="7.171">
        <ele>434</ele>
        <time>2018-03-24T14:31:31Z</time>
      </trkpt>
      <trkpt lat="47.92011" lon="7.1707">
        <ele>417</ele>
        <time>2018-03-24T14:31:36Z</time>
      </trkpt>
      <trkpt lat="47.92015" lon="7.17083">
        <ele>418</ele>
        <time>2018-03-24T14:31:40Z</time>
      </trkpt>
      <trkpt lat="47.92022" lon="7.17102">
        <ele>414</ele>
        <time>2018-03-24T14:31:44Z</time>
      </trkpt>
      <trkpt lat="47.92034" lon="7.17112">
        <ele>411</ele>
        <time>2018-03-24T14:31:49Z</time>
      </trkpt>
      <trkpt lat="47.92038" lon="7.17102">
        <ele>410</ele>
        <time>2018-03-24T14:31:54Z</time>
      </trkpt>
      <trkpt lat="47.92047" lon="7.17107">
        <ele>408</ele>
        <time>2018-03-24T14:31:59Z</time>
      </trkpt>
      <trkpt lat="47.92058" lon="7.1711">
        <ele>405</ele>
        <time>2018-03-24T14:32:04Z</time>
      </trkpt>
      <trkpt lat="47.92065" lon="7.17091">
        <ele>400</ele>
        <time>2018-03-24T14:32:08Z</time>
      </trkpt>
      <trkpt lat="47.92064" lon="7.17077">
        <ele>399</ele>
        <time>2018-03-24T14:32:12Z</time>
      </trkpt>
      <trkpt lat="47.92069" lon="7.17075">
        <ele>397</ele>
        <time>2018-03-24T14:33:27Z</time>
      </trkpt>
      <trkpt lat="47.9208" lon="7.17072">
        <ele>395</ele>
        <time>2018-03-24T14:33:31Z</time>
      </trkpt>
      <trkpt lat="47.92092" lon="7.1707">
        <ele>394</ele>
        <time>2018-03-24T14:33:34Z</time>
      </trkpt>
      <trkpt lat="47.92109" lon="7.17054">
        <ele>399</ele>
        <time>2018-03-24T14:33:39Z</time>
      </trkpt>
      <trkpt lat="47.92113" lon="7.17035">
        <ele>400</ele>
        <time>2018-03-24T14:33:43Z</time>
      </trkpt>
      <trkpt lat="47.92111" lon="7.17023">
        <ele>400</ele>
        <time>2018-03-24T14:33:47Z</time>
      </trkpt>
      <trkpt lat="47.92108" lon="7.17008">
        <ele>399</ele>
        <time>2018-03-24T14:33:51Z</time>
      </trkpt>
      <trkpt lat="47.92104" lon="7.16992">
        <ele>400</ele>
        <time>2018-03-24T14:33:56Z</time>
      </trkpt>
      <trkpt lat="47.921" lon="7.16975">
        <ele>402</ele>
        <time>2018-03-24T14:34:00Z</time>
      </trkpt>
      <trkpt lat="47.92098" lon="7.1696">
        <ele>403</ele>
        <time>2018-03-24T14:34:04Z</time>
      </trkpt>
      <trkpt lat="47.92098" lon="7.16937">
        <ele>402</ele>
        <time>2018-03-24T14:34:09Z</time>
      </trkpt>
      <trkpt lat="47.92099" lon="7.1692">
        <ele>401</ele>
        <time>2018-03-24T14:34:13Z</time>
      </trkpt>
      <trkpt lat="47.92098" lon="7.16907">
        <ele>401</ele>
        <time>2018-03-24T14:34:17Z</time>
      </trkpt>
      <trkpt lat="47.92102" lon="7.16895">
        <ele>403</ele>
        <time>2018-03-24T14:34:21Z</time>
      </trkpt>
      <trkpt lat="47.9211" lon="7.16882">
        <ele>404</ele>
        <time>2018-03-24T14:34:25Z</time>
      </trkpt>
      <trkpt lat="47.92121" lon="7.16864">
        <ele>405</ele>
        <time>2018-03-24T14:34:30Z</time>
      </trkpt>
      <trkpt lat="47.9213" lon="7.16849">
        <ele>406</ele>
        <time>2018-03-24T14:34:34Z</time>
      </trkpt>
      <trkpt lat="47.92139" lon="7.16839">
        <ele>407</ele>
        <time>2018-03-24T14:34:38Z</time>
      </trkpt>
      <trkpt lat="47.92148" lon="7.16824">
        <ele>405</ele>
        <time>2018-03-24T14:34:43Z</time>
      </trkpt>
      <trkpt lat="47.92155" lon="7.16811">
        <ele>405</ele>
        <time>2018-03-24T14:34:47Z</time>
      </trkpt>
      <trkpt lat="47.92161" lon="7.16803">
        <ele>404</ele>
        <time>2018-03-24T14:34:51Z</time>
      </trkpt>
      <trkpt lat="47.92175" lon="7.16785">
        <ele>412</ele>
        <time>2018-03-24T14:34:55Z</time>
      </trkpt>
      <trkpt lat="47.92182" lon="7.16773">
        <ele>411</ele>
        <time>2018-03-24T14:34:59Z</time>
      </trkpt>
      <trkpt lat="47.92191" lon="7.16764">
        <ele>411</ele>
        <time>2018-03-24T14:35:03Z</time>
      </trkpt>
      <trkpt lat="47.92202" lon="7.16756">
        <ele>413</ele>
        <time>2018-03-24T14:35:08Z</time>
      </trkpt>
      <trkpt lat="47.92214" lon="7.16744">
        <ele>409</ele>
        <time>2018-03-24T14:35:12Z</time>
      </trkpt>
      <trkpt lat="47.92223" lon="7.16738">
        <ele>410</ele>
        <time>2018-03-24T14:35:16Z</time>
      </trkpt>
      <trkpt lat="47.92233" lon="7.16722">
        <ele>410</ele>
        <time>2018-03-24T14:35:20Z</time>
      </trkpt>
      <trkpt lat="47.9224" lon="7.1671">
        <ele>410</ele>
        <time>2018-03-24T14:35:25Z</time>
      </trkpt>
      <trkpt lat="47.92246" lon="7.16692">
        <ele>410</ele>
        <time>2018-03-24T14:35:29Z</time>
      </trkpt>
      <trkpt lat="47.92253" lon="7.16677">
        <ele>417</ele>
        <time>2018-03-24T14:35:34Z</time>
      </trkpt>
      <trkpt lat="47.92258" lon="7.16661">
        <ele>414</ele>
        <time>2018-03-24T14:35:38Z</time>
      </trkpt>
      <trkpt lat="47.92265" lon="7.16646">
        <ele>416</ele>
        <time>2018-03-24T14:35:42Z</time>
      </trkpt>
      <trkpt lat="47.92271" lon="7.16632">
        <ele>417</ele>
        <time>2018-03-24T14:35:46Z</time>
      </trkpt>
      <trkpt lat="47.92276" lon="7.16619">
        <ele>417</ele>
        <time>2018-03-24T14:35:50Z</time>
      </trkpt>
      <trkpt lat="47.92283" lon="7.16611">
        <ele>417</ele>
        <time>2018-03-24T14:35:53Z</time>
      </trkpt>
      <trkpt lat="47.92295" lon="7.16595">
        <ele>418</ele>
        <time>2018-03-24T14:35:58Z</time>
      </trkpt>
      <trkpt lat="47.92303" lon="7.16582">
        <ele>414</ele>
        <time>2018-03-24T14:36:02Z</time>
      </trkpt>
      <trkpt lat="47.9231" lon="7.16564">
        <ele>414</ele>
        <time>2018-03-24T14:36:07Z</time>
      </trkpt>
      <trkpt lat="47.92317" lon="7.16543">
        <ele>412</ele>
        <time>2018-03-24T14:36:12Z</time>
      </trkpt>
      <trkpt lat="47.92324" lon="7.16523">
        <ele>411</ele>
        <time>2018-03-24T14:36:17Z</time>
      </trkpt>
      <trkpt lat="47.92326" lon="7.16507">
        <ele>410</ele>
        <time>2018-03-24T14:36:21Z</time>
      </trkpt>
      <trkpt lat="47.92327" lon="7.16492">
        <ele>410</ele>
        <time>2018-03-24T14:36:25Z</time>
      </trkpt>
      <trkpt lat="47.92326" lon="7.16474">
        <ele>410</ele>
        <time>2018-03-24T14:36:30Z</time>
      </trkpt>
      <trkpt lat="47.92327" lon="7.1646">
        <ele>411</ele>
        <time>2018-03-24T14:36:34Z</time>
      </trkpt>
      <trkpt lat="47.92328" lon="7.1644">
        <ele>410</ele>
        <time>2018-03-24T14:36:39Z</time>
      </trkpt>
      <trkpt lat="47.92329" lon="7.16423">
        <ele>409</ele>
        <time>2018-03-24T14:36:43Z</time>
      </trkpt>
      <trkpt lat="47.92331" lon="7.16403">
        <ele>413</ele>
        <time>2018-03-24T14:36:48Z</time>
      </trkpt>
      <trkpt lat="47.92332" lon="7.16386">
        <ele>416</ele>
        <time>2018-03-24T14:36:52Z</time>
      </trkpt>
      <trkpt lat="47.92332" lon="7.16368">
        <ele>418</ele>
        <time>2018-03-24T14:36:57Z</time>
      </trkpt>
      <trkpt lat="47.92334" lon="7.16357">
        <ele>417</ele>
        <time>2018-03-24T14:37:02Z</time>
      </trkpt>
      <trkpt lat="47.92335" lon="7.1634">
        <ele>417</ele>
        <time>2018-03-24T14:37:06Z</time>
      </trkpt>
      <trkpt lat="47.92336" lon="7.16321">
        <ele>423</ele>
        <time>2018-03-24T14:37:11Z</time>
      </trkpt>
      <trkpt lat="47.92337" lon="7.16305">
        <ele>427</ele>
        <time>2018-03-24T14:37:15Z</time>
      </trkpt>
      <trkpt lat="47.92341" lon="7.16287">
        <ele>430</ele>
        <time>2018-03-24T14:37:20Z</time>
      </trkpt>
      <trkpt lat="47.92339" lon="7.1627">
        <ele>432</ele>
        <time>2018-03-24T14:37:25Z</time>
      </trkpt>
      <trkpt lat="47.92336" lon="7.16255">
        <ele>432</ele>
        <time>2018-03-24T14:37:29Z</time>
      </trkpt>
      <trkpt lat="47.92333" lon="7.16236">
        <ele>438</ele>
        <time>2018-03-24T14:37:34Z</time>
      </trkpt>
      <trkpt lat="47.92333" lon="7.16216">
        <ele>439</ele>
        <time>2018-03-24T14:37:38Z</time>
      </trkpt>
      <trkpt lat="47.92332" lon="7.16193">
        <ele>440</ele>
        <time>2018-03-24T14:37:43Z</time>
      </trkpt>
      <trkpt lat="47.92331" lon="7.16174">
        <ele>439</ele>
        <time>2018-03-24T14:37:47Z</time>
      </trkpt>
      <trkpt lat="47.9233" lon="7.16155">
        <ele>440</ele>
        <time>2018-03-24T14:37:51Z</time>
      </trkpt>
      <trkpt lat="47.92329" lon="7.16139">
        <ele>443</ele>
        <time>2018-03-24T14:37:55Z</time>
      </trkpt>
      <trkpt lat="47.92329" lon="7.16122">
        <ele>443</ele>
        <time>2018-03-24T14:38:00Z</time>
      </trkpt>
      <trkpt lat="47.92328" lon="7.16106">
        <ele>442</ele>
        <time>2018-03-24T14:38:04Z</time>
      </trkpt>
      <trkpt lat="47.92325" lon="7.16085">
        <ele>440</ele>
        <time>2018-03-24T14:38:09Z</time>
      </trkpt>
      <trkpt lat="47.92323" lon="7.16069">
        <ele>441</ele>
        <time>2018-03-24T14:38:13Z</time>
      </trkpt>
      <trkpt lat="47.9232" lon="7.16045">
        <ele>443</ele>
        <time>2018-03-24T14:38:17Z</time>
      </trkpt>
      <trkpt lat="47.92318" lon="7.16028">
        <ele>443</ele>
        <time>2018-03-24T14:38:21Z</time>
      </trkpt>
      <trkpt lat="47.92316" lon="7.16008">
        <ele>442</ele>
        <time>2018-03-24T14:38:26Z</time>
      </trkpt>
      <trkpt lat="47.92314" lon="7.1599">
        <ele>443</ele>
        <time>2018-03-24T14:38:31Z</time>
      </trkpt>
      <trkpt lat="47.92312" lon="7.15972">
        <ele>444</ele>
        <time>2018-03-24T14:38:36Z</time>
      </trkpt>
      <trkpt lat="47.92312" lon="7.15959">
        <ele>445</ele>
        <time>2018-03-24T14:38:40Z</time>
      </trkpt>
      <trkpt lat="47.92321" lon="7.1594">
        <ele>445</ele>
        <time>2018-03-24T14:38:45Z</time>
      </trkpt>
      <trkpt lat="47.92325" lon="7.15923">
        <ele>444</ele>
        <time>2018-03-24T14:38:49Z</time>
      </trkpt>
      <trkpt lat="47.92328" lon="7.15906">
        <ele>445</ele>
        <time>2018-03-24T14:38:53Z</time>
      </trkpt>
      <trkpt lat="47.92332" lon="7.15888">
        <ele>447</ele>
        <time>2018-03-24T14:38:58Z</time>
      </trkpt>
      <trkpt lat="47.92334" lon="7.15871">
        <ele>453</ele>
        <time>2018-03-24T14:39:03Z</time>
      </trkpt>
      <trkpt lat="47.92337" lon="7.15856">
        <ele>453</ele>
        <time>2018-03-24T14:39:07Z</time>
      </trkpt>
      <trkpt lat="47.92342" lon="7.15836">
        <ele>450</ele>
        <time>2018-03-24T14:39:12Z</time>
      </trkpt>
      <trkpt lat="47.92347" lon="7.1582">
        <ele>452</ele>
        <time>2018-03-24T14:39:16Z</time>
      </trkpt>
      <trkpt lat="47.92354" lon="7.15801">
        <ele>455</ele>
        <time>2018-03-24T14:39:21Z</time>
      </trkpt>
      <trkpt lat="47.92355" lon="7.15782">
        <ele>454</ele>
        <time>2018-03-24T14:39:25Z</time>
      </trkpt>
      <trkpt lat="47.92356" lon="7.15766">
        <ele>453</ele>
        <time>2018-03-24T14:39:30Z</time>
      </trkpt>
      <trkpt lat="47.92362" lon="7.1574">
        <ele>452</ele>
        <time>2018-03-24T14:39:35Z</time>
      </trkpt>
      <trkpt lat="47.92364" lon="7.15721">
        <ele>453</ele>
        <time>2018-03-24T14:39:40Z</time>
      </trkpt>
      <trkpt lat="47.92369" lon="7.1571">
        <ele>454</ele>
        <time>2018-03-24T14:39:43Z</time>
      </trkpt>
      <trkpt lat="47.92378" lon="7.15713">
        <ele>455</ele>
        <time>2018-03-24T14:39:52Z</time>
      </trkpt>
      <trkpt lat="47.92383" lon="7.15713">
        <ele>456</ele>
        <time>2018-03-24T14:40:01Z</time>
      </trkpt>
      <trkpt lat="47.92392" lon="7.15714">
        <ele>457</ele>
        <time>2018-03-24T14:40:06Z</time>
      </trkpt>
      <trkpt lat="47.92395" lon="7.15724">
        <ele>458</ele>
        <time>2018-03-24T14:40:23Z</time>
      </trkpt>
      <trkpt lat="47.92395" lon="7.15737">
        <ele>459</ele>
        <time>2018-03-24T14:40:28Z</time>
      </trkpt>
      <trkpt lat="47.92394" lon="7.15749">
        <ele>459</ele>
        <time>2018-03-24T14:40:35Z</time>
      </trkpt>
      <trkpt lat="47.92393" lon="7.15761">
        <ele>460</ele>
        <time>2018-03-24T14:40:40Z</time>
      </trkpt>
      <trkpt lat="47.92392" lon="7.15773">
        <ele>460</ele>
        <time>2018-03-24T14:40:44Z</time>
      </trkpt>
      <trkpt lat="47.92391" lon="7.15784">
        <ele>460</ele>
        <time>2018-03-24T14:40:51Z</time>
      </trkpt>
      <trkpt lat="47.92393" lon="7.15796">
        <ele>461</ele>
        <time>2018-03-24T14:40:57Z</time>
      </trkpt>
      <trkpt lat="47.92398" lon="7.15807">
        <ele>463</ele>
        <time>2018-03-24T14:41:03Z</time>
      </trkpt>
      <trkpt lat="47.924" lon="7.15819">
        <ele>465</ele>
        <time>2018-03-24T14:41:13Z</time>
      </trkpt>
      <trkpt lat="47.92404" lon="7.15829">
        <ele>468</ele>
        <time>2018-03-24T14:41:20Z</time>
      </trkpt>
      <trkpt lat="47.92409" lon="7.15838">
        <ele>471</ele>
        <time>2018-03-24T14:41:26Z</time>
      </trkpt>
      <trkpt lat="47.92411" lon="7.15851">
        <ele>467</ele>
        <time>2018-03-24T14:41:32Z</time>
      </trkpt>
      <trkpt lat="47.9241" lon="7.15864">
        <ele>465</ele>
        <time>2018-03-24T14:41:38Z</time>
      </trkpt>
      <trkpt lat="47.92408" lon="7.15877">
        <ele>463</ele>
        <time>2018-03-24T14:41:51Z</time>
      </trkpt>
      <trkpt lat="47.92414" lon="7.15883">
        <ele>464</ele>
        <time>2018-03-24T14:45:46Z</time>
      </trkpt>
      <trkpt lat="47.92426" lon="7.159">
        <ele>478</ele>
        <time>2018-03-24T14:45:51Z</time>
      </trkpt>
      <trkpt lat="47.92428" lon="7.15926">
        <ele>476</ele>
        <time>2018-03-24T14:45:55Z</time>
      </trkpt>
      <trkpt lat="47.92424" lon="7.15949">
        <ele>478</ele>
        <time>2018-03-24T14:46:00Z</time>
      </trkpt>
      <trkpt lat="47.92419" lon="7.15971">
        <ele>477</ele>
        <time>2018-03-24T14:46:04Z</time>
      </trkpt>
      <trkpt lat="47.92414" lon="7.15995">
        <ele>465</ele>
        <time>2018-03-24T14:46:08Z</time>
      </trkpt>
      <trkpt lat="47.92408" lon="7.16022">
        <ele>460</ele>
        <time>2018-03-24T14:46:13Z</time>
      </trkpt>
      <trkpt lat="47.92403" lon="7.16052">
        <ele>460</ele>
        <time>2018-03-24T14:46:18Z</time>
      </trkpt>
      <trkpt lat="47.92399" lon="7.16081">
        <ele>463</ele>
        <time>2018-03-24T14:46:22Z</time>
      </trkpt>
      <trkpt lat="47.924" lon="7.1611">
        <ele>459</ele>
        <time>2018-03-24T14:46:26Z</time>
      </trkpt>
      <trkpt lat="47.92403" lon="7.1615">
        <ele>458</ele>
        <time>2018-03-24T14:46:30Z</time>
      </trkpt>
      <trkpt lat="47.92405" lon="7.16198">
        <ele>453</ele>
        <time>2018-03-24T14:46:35Z</time>
      </trkpt>
      <trkpt lat="47.92412" lon="7.16233">
        <ele>453</ele>
        <time>2018-03-24T14:46:40Z</time>
      </trkpt>
      <trkpt lat="47.92434" lon="7.16247">
        <ele>467</ele>
        <time>2018-03-24T14:46:44Z</time>
      </trkpt>
      <trkpt lat="47.92455" lon="7.16259">
        <ele>456</ele>
        <time>2018-03-24T14:46:48Z</time>
      </trkpt>
      <trkpt lat="47.92473" lon="7.16268">
        <ele>458</ele>
        <time>2018-03-24T14:46:52Z</time>
      </trkpt>
      <trkpt lat="47.92489" lon="7.16274">
        <ele>460</ele>
        <time>2018-03-24T14:46:56Z</time>
      </trkpt>
      <trkpt lat="47.92508" lon="7.16279">
        <ele>467</ele>
        <time>2018-03-24T14:47:00Z</time>
      </trkpt>
      <trkpt lat="47.92521" lon="7.16284">
        <ele>466</ele>
        <time>2018-03-24T14:47:04Z</time>
      </trkpt>
      <trkpt lat="47.9254" lon="7.1629">
        <ele>466</ele>
        <time>2018-03-24T14:47:08Z</time>
      </trkpt>
      <trkpt lat="47.92565" lon="7.16285">
        <ele>468</ele>
        <time>2018-03-24T14:47:12Z</time>
      </trkpt>
      <trkpt lat="47.92582" lon="7.16275">
        <ele>473</ele>
        <time>2018-03-24T14:47:16Z</time>
      </trkpt>
      <trkpt lat="47.92599" lon="7.16273">
        <ele>476</ele>
        <time>2018-03-24T14:47:20Z</time>
      </trkpt>
      <trkpt lat="47.92616" lon="7.16274">
        <ele>475</ele>
        <time>2018-03-24T14:47:24Z</time>
      </trkpt>
      <trkpt lat="47.92646" lon="7.16277">
        <ele>474</ele>
        <time>2018-03-24T14:47:28Z</time>
      </trkpt>
      <trkpt lat="47.92671" lon="7.16284">
        <ele>475</ele>
        <time>2018-03-24T14:47:33Z</time>
      </trkpt>
      <trkpt lat="47.92688" lon="7.16279">
        <ele>476</ele>
        <time>2018-03-24T14:47:37Z</time>
      </trkpt>
      <trkpt lat="47.92716" lon="7.16273">
        <ele>476</ele>
        <time>2018-03-24T14:47:41Z</time>
      </trkpt>
      <trkpt lat="47.9275" lon="7.16298">
        <ele>474</ele>
        <time>2018-03-24T14:47:46Z</time>
      </trkpt>
      <trkpt lat="47.92759" lon="7.16298">
        <ele>480</ele>
        <time>2018-03-24T14:47:50Z</time>
      </trkpt>
      <trkpt lat="47.92769" lon="7.16305">
        <ele>480</ele>
        <time>2018-03-24T14:47:54Z</time>
      </trkpt>
      <trkpt lat="47.92783" lon="7.16305">
        <ele>481</ele>
        <time>2018-03-24T14:47:59Z</time>
      </trkpt>
      <trkpt lat="47.92796" lon="7.16304">
        <ele>483</ele>
        <time>2018-03-24T14:48:03Z</time>
      </trkpt>
      <trkpt lat="47.92807" lon="7.16308">
        <ele>484</ele>
        <time>2018-03-24T14:48:08Z</time>
      </trkpt>
      <trkpt lat="47.92819" lon="7.16314">
        <ele>484</ele>
        <time>2018-03-24T14:48:13Z</time>
      </trkpt>
      <trkpt lat="47.92822" lon="7.16326">
        <ele>484</ele>
        <time>2018-03-24T14:48:25Z</time>
      </trkpt>
      <trkpt lat="47.92819" lon="7.16335">
        <ele>484</ele>
        <time>2018-03-24T14:48:28Z</time>
      </trkpt>
      <trkpt lat="47.92805" lon="7.16353">
        <ele>484</ele>
        <time>2018-03-24T14:48:33Z</time>
      </trkpt>
      <trkpt lat="47.92797" lon="7.16352">
        <ele>483</ele>
        <time>2018-03-24T14:48:41Z</time>
      </trkpt>
      <trkpt lat="47.92788" lon="7.16354">
        <ele>482</ele>
        <time>2018-03-24T14:48:50Z</time>
      </trkpt>
      <trkpt lat="47.92792" lon="7.16365">
        <ele>483</ele>
        <time>2018-03-24T14:49:04Z</time>
      </trkpt>
      <trkpt lat="47.92789" lon="7.16377">
        <ele>484</ele>
        <time>2018-03-24T14:49:11Z</time>
      </trkpt>
      <trkpt lat="47.92782" lon="7.16383">
        <ele>484</ele>
        <time>2018-03-24T14:49:18Z</time>
      </trkpt>
      <trkpt lat="47.92774" lon="7.16386">
        <ele>484</ele>
        <time>2018-03-24T14:49:22Z</time>
      </trkpt>
      <trkpt lat="47.92766" lon="7.16393">
        <ele>484</ele>
        <time>2018-03-24T14:49:28Z</time>
      </trkpt>
      <trkpt lat="47.92761" lon="7.16401">
        <ele>484</ele>
        <time>2018-03-24T14:49:34Z</time>
      </trkpt>
      <trkpt lat="47.92758" lon="7.16412">
        <ele>485</ele>
        <time>2018-03-24T14:49:38Z</time>
      </trkpt>
      <trkpt lat="47.92751" lon="7.1642">
        <ele>487</ele>
        <time>2018-03-24T14:49:51Z</time>
      </trkpt>
      <trkpt lat="47.92745" lon="7.16427">
        <ele>488</ele>
        <time>2018-03-24T14:49:58Z</time>
      </trkpt>
      <trkpt lat="47.92741" lon="7.1644">
        <ele>491</ele>
        <time>2018-03-24T14:50:10Z</time>
      </trkpt>
      <trkpt lat="47.92747" lon="7.16446">
        <ele>492</ele>
        <time>2018-03-24T14:51:32Z</time>
      </trkpt>
      <trkpt lat="47.92755" lon="7.16445">
        <ele>498</ele>
        <time>2018-03-24T14:51:38Z</time>
      </trkpt>
      <trkpt lat="47.92763" lon="7.16443">
        <ele>498</ele>
        <time>2018-03-24T14:51:45Z</time>
      </trkpt>
      <trkpt lat="47.9277" lon="7.16441">
        <ele>499</ele>
        <time>2018-03-24T14:51:51Z</time>
      </trkpt>
      <trkpt lat="47.92777" lon="7.16441">
        <ele>499</ele>
        <time>2018-03-24T14:51:56Z</time>
      </trkpt>
      <trkpt lat="47.92786" lon="7.16443">
        <ele>501</ele>
        <time>2018-03-24T14:52:02Z</time>
      </trkpt>
      <trkpt lat="47.92794" lon="7.16445">
        <ele>501</ele>
        <time>2018-03-24T14:52:07Z</time>
      </trkpt>
      <trkpt lat="47.92801" lon="7.16446">
        <ele>502</ele>
        <time>2018-03-24T14:52:12Z</time>
      </trkpt>
      <trkpt lat="47.9281" lon="7.16447">
        <ele>502</ele>
        <time>2018-03-24T14:52:18Z</time>
      </trkpt>
      <trkpt lat="47.92818" lon="7.1645">
        <ele>503</ele>
        <time>2018-03-24T14:52:24Z</time>
      </trkpt>
      <trkpt lat="47.92826" lon="7.16453">
        <ele>504</ele>
        <time>2018-03-24T14:52:29Z</time>
      </trkpt>
      <trkpt lat="47.92833" lon="7.16456">
        <ele>504</ele>
        <time>2018-03-24T14:52:34Z</time>
      </trkpt>
      <trkpt lat="47.92841" lon="7.16453">
        <ele>511</ele>
        <time>2018-03-24T14:52:39Z</time>
      </trkpt>
      <trkpt lat="47.92849" lon="7.16454">
        <ele>512</ele>
        <time>2018-03-24T14:52:46Z</time>
      </trkpt>
      <trkpt lat="47.92857" lon="7.16453">
        <ele>512</ele>
        <time>2018-03-24T14:52:55Z</time>
      </trkpt>
      <trkpt lat="47.92866" lon="7.16452">
        <ele>513</ele>
        <time>2018-03-24T14:53:04Z</time>
      </trkpt>
      <trkpt lat="47.92875" lon="7.16455">
        <ele>514</ele>
        <time>2018-03-24T14:53:11Z</time>
      </trkpt>
      <trkpt lat="47.92878" lon="7.16458">
        <ele>514</ele>
        <time>2018-03-24T14:53:13Z</time>
      </trkpt>
      <trkpt lat="47.92883" lon="7.16464">
        <ele>515</ele>
        <time>2018-03-24T14:53:18Z</time>
      </trkpt>
      <trkpt lat="47.92888" lon="7.1647">
        <ele>517</ele>
        <time>2018-03-24T14:53:22Z</time>
      </trkpt>
      <trkpt lat="47.92895" lon="7.16474">
        <ele>518</ele>
        <time>2018-03-24T14:53:27Z</time>
      </trkpt>
      <trkpt lat="47.92903" lon="7.16479">
        <ele>519</ele>
        <time>2018-03-24T14:53:32Z</time>
      </trkpt>
      <trkpt lat="47.92909" lon="7.16486">
        <ele>522</ele>
        <time>2018-03-24T14:53:35Z</time>
      </trkpt>
      <trkpt lat="47.92916" lon="7.1649">
        <ele>524</ele>
        <time>2018-03-24T14:53:42Z</time>
      </trkpt>
      <trkpt lat="47.92924" lon="7.16496">
        <ele>528</ele>
        <time>2018-03-24T14:53:48Z</time>
      </trkpt>
      <trkpt lat="47.92932" lon="7.16496">
        <ele>529</ele>
        <time>2018-03-24T14:53:57Z</time>
      </trkpt>
      <trkpt lat="47.9294" lon="7.16496">
        <ele>530</ele>
        <time>2018-03-24T14:54:03Z</time>
      </trkpt>
      <trkpt lat="47.92947" lon="7.16505">
        <ele>537</ele>
        <time>2018-03-24T14:54:08Z</time>
      </trkpt>
      <trkpt lat="47.92955" lon="7.16508">
        <ele>538</ele>
        <time>2018-03-24T14:54:13Z</time>
      </trkpt>
      <trkpt lat="47.92962" lon="7.16513">
        <ele>539</ele>
        <time>2018-03-24T14:54:20Z</time>
      </trkpt>
      <trkpt lat="47.92969" lon="7.16516">
        <ele>540</ele>
        <time>2018-03-24T14:54:26Z</time>
      </trkpt>
      <trkpt lat="47.92975" lon="7.16525">
        <ele>540</ele>
        <time>2018-03-24T14:54:31Z</time>
      </trkpt>
      <trkpt lat="47.9298" lon="7.16537">
        <ele>541</ele>
        <time>2018-03-24T14:54:36Z</time>
      </trkpt>
      <trkpt lat="47.92986" lon="7.16547">
        <ele>542</ele>
        <time>2018-03-24T14:54:41Z</time>
      </trkpt>
      <trkpt lat="47.92994" lon="7.16551">
        <ele>543</ele>
        <time>2018-03-24T14:54:47Z</time>
      </trkpt>
      <trkpt lat="47.93001" lon="7.1656">
        <ele>550</ele>
        <time>2018-03-24T14:54:52Z</time>
      </trkpt>
      <trkpt lat="47.93006" lon="7.16568">
        <ele>550</ele>
        <time>2018-03-24T14:54:56Z</time>
      </trkpt>
      <trkpt lat="47.93014" lon="7.16575">
        <ele>550</ele>
        <time>2018-03-24T14:55:02Z</time>
      </trkpt>
      <trkpt lat="47.93022" lon="7.16579">
        <ele>551</ele>
        <time>2018-03-24T14:55:08Z</time>
      </trkpt>
      <trkpt lat="47.93029" lon="7.16583">
        <ele>551</ele>
        <time>2018-03-24T14:55:14Z</time>
      </trkpt>
      <trkpt lat="47.93036" lon="7.16589">
        <ele>554</ele>
        <time>2018-03-24T14:55:19Z</time>
      </trkpt>
      <trkpt lat="47.93041" lon="7.16595">
        <ele>555</ele>
        <time>2018-03-24T14:55:23Z</time>
      </trkpt>
      <trkpt lat="47.93049" lon="7.166">
        <ele>555</ele>
        <time>2018-03-24T14:55:28Z</time>
      </trkpt>
      <trkpt lat="47.93056" lon="7.16605">
        <ele>555</ele>
        <time>2018-03-24T14:55:33Z</time>
      </trkpt>
      <trkpt lat="47.93064" lon="7.16607">
        <ele>555</ele>
        <time>2018-03-24T14:55:39Z</time>
      </trkpt>
      <trkpt lat="47.93073" lon="7.16609">
        <ele>555</ele>
        <time>2018-03-24T14:55:45Z</time>
      </trkpt>
      <trkpt lat="47.93079" lon="7.16614">
        <ele>556</ele>
        <time>2018-03-24T14:55:50Z</time>
      </trkpt>
      <trkpt lat="47.93085" lon="7.16622">
        <ele>554</ele>
        <time>2018-03-24T14:55:56Z</time>
      </trkpt>
      <trkpt lat="47.93089" lon="7.16612">
        <ele>554</ele>
        <time>2018-03-24T14:56:35Z</time>
      </trkpt>
      <trkpt lat="47.93087" lon="7.16624">
        <ele>554</ele>
        <time>2018-03-24T14:56:45Z</time>
      </trkpt>
      <trkpt lat="47.93091" lon="7.16614">
        <ele>554</ele>
        <time>2018-03-24T14:57:01Z</time>
      </trkpt>
      <trkpt lat="47.93092" lon="7.16626">
        <ele>554</ele>
        <time>2018-03-24T14:57:16Z</time>
      </trkpt>
      <trkpt lat="47.93092" lon="7.16613">
        <ele>554</ele>
        <time>2018-03-24T15:02:43Z</time>
      </trkpt>
      <trkpt lat="47.93092" lon="7.166">
        <ele>554</ele>
        <time>2018-03-24T15:02:53Z</time>
      </trkpt>
      <trkpt lat="47.93086" lon="7.1659">
        <ele>555</ele>
        <time>2018-03-24T15:03:01Z</time>
      </trkpt>
      <trkpt lat="47.93082" lon="7.1658">
        <ele>555</ele>
        <time>2018-03-24T15:03:08Z</time>
      </trkpt>
      <trkpt lat="47.93078" lon="7.16569">
        <ele>554</ele>
        <time>2018-03-24T15:03:14Z</time>
      </trkpt>
      <trkpt lat="47.93075" lon="7.16558">
        <ele>554</ele>
        <time>2018-03-24T15:03:19Z</time>
      </trkpt>
      <trkpt lat="47.93073" lon="7.16548">
        <ele>554</ele>
        <time>2018-03-24T15:03:24Z</time>
      </trkpt>
      <trkpt lat="47.93071" lon="7.16541">
        <ele>554</ele>
        <time>2018-03-24T15:03:27Z</time>
      </trkpt>
      <trkpt lat="47.93069" lon="7.16528">
        <ele>555</ele>
        <time>2018-03-24T15:03:32Z</time>
      </trkpt>
      <trkpt lat="47.93066" lon="7.16517">
        <ele>556</ele>
        <time>2018-03-24T15:03:37Z</time>
      </trkpt>
      <trkpt lat="47.93065" lon="7.16505">
        <ele>557</ele>
        <time>2018-03-24T15:03:42Z</time>
      </trkpt>
      <trkpt lat="47.93063" lon="7.16492">
        <ele>558</ele>
        <time>2018-03-24T15:03:47Z</time>
      </trkpt>
      <trkpt lat="47.93061" lon="7.16482">
        <ele>558</ele>
        <time>2018-03-24T15:03:51Z</time>
      </trkpt>
      <trkpt lat="47.93058" lon="7.1647">
        <ele>557</ele>
        <time>2018-03-24T15:03:55Z</time>
      </trkpt>
      <trkpt lat="47.93056" lon="7.16459">
        <ele>558</ele>
        <time>2018-03-24T15:03:59Z</time>
      </trkpt>
      <trkpt lat="47.93056" lon="7.16445">
        <ele>559</ele>
        <time>2018-03-24T15:04:04Z</time>
      </trkpt>
      <trkpt lat="47.93054" lon="7.16433">
        <ele>559</ele>
        <time>2018-03-24T15:04:08Z</time>
      </trkpt>
      <trkpt lat="47.93049" lon="7.16422">
        <ele>559</ele>
        <time>2018-03-24T15:04:13Z</time>
      </trkpt>
      <trkpt lat="47.93046" lon="7.16409">
        <ele>564</ele>
        <time>2018-03-24T15:04:18Z</time>
      </trkpt>
      <trkpt lat="47.93044" lon="7.16399">
        <ele>564</ele>
        <time>2018-03-24T15:04:22Z</time>
      </trkpt>
      <trkpt lat="47.93038" lon="7.16386">
        <ele>563</ele>
        <time>2018-03-24T15:04:26Z</time>
      </trkpt>
      <trkpt lat="47.93034" lon="7.16374">
        <ele>563</ele>
        <time>2018-03-24T15:04:32Z</time>
      </trkpt>
      <trkpt lat="47.93031" lon="7.16361">
        <ele>563</ele>
        <time>2018-03-24T15:04:37Z</time>
      </trkpt>
      <trkpt lat="47.9303" lon="7.1635">
        <ele>563</ele>
        <time>2018-03-24T15:04:41Z</time>
      </trkpt>
      <trkpt lat="47.93027" lon="7.16338">
        <ele>562</ele>
        <time>2018-03-24T15:04:46Z</time>
      </trkpt>
      <trkpt lat="47.93025" lon="7.16326">
        <ele>568</ele>
        <time>2018-03-24T15:04:51Z</time>
      </trkpt>
      <trkpt lat="47.93023" lon="7.16318">
        <ele>568</ele>
        <time>2018-03-24T15:04:54Z</time>
      </trkpt>
      <trkpt lat="47.93021" lon="7.16304">
        <ele>570</ele>
        <time>2018-03-24T15:04:59Z</time>
      </trkpt>
      <trkpt lat="47.93019" lon="7.16292">
        <ele>571</ele>
        <time>2018-03-24T15:05:03Z</time>
      </trkpt>
      <trkpt lat="47.93018" lon="7.1628">
        <ele>572</ele>
        <time>2018-03-24T15:05:07Z</time>
      </trkpt>
      <trkpt lat="47.93017" lon="7.16268">
        <ele>571</ele>
        <time>2018-03-24T15:05:11Z</time>
      </trkpt>
      <trkpt lat="47.93015" lon="7.16258">
        <ele>569</ele>
        <time>2018-03-24T15:05:15Z</time>
      </trkpt>
      <trkpt lat="47.93014" lon="7.1625">
        <ele>572</ele>
        <time>2018-03-24T15:05:18Z</time>
      </trkpt>
      <trkpt lat="47.93013" lon="7.16237">
        <ele>575</ele>
        <time>2018-03-24T15:05:22Z</time>
      </trkpt>
      <trkpt lat="47.93014" lon="7.16221">
        <ele>579</ele>
        <time>2018-03-24T15:05:27Z</time>
      </trkpt>
      <trkpt lat="47.93012" lon="7.1621">
        <ele>581</ele>
        <time>2018-03-24T15:05:31Z</time>
      </trkpt>
      <trkpt lat="47.9301" lon="7.162">
        <ele>581</ele>
        <time>2018-03-24T15:05:35Z</time>
      </trkpt>
      <trkpt lat="47.93006" lon="7.16186">
        <ele>580</ele>
        <time>2018-03-24T15:05:40Z</time>
      </trkpt>
      <trkpt lat="47.93004" lon="7.16175">
        <ele>577</ele>
        <time>2018-03-24T15:05:44Z</time>
      </trkpt>
      <trkpt lat="47.93003" lon="7.16164">
        <ele>576</ele>
        <time>2018-03-24T15:05:48Z</time>
      </trkpt>
      <trkpt lat="47.93001" lon="7.16151">
        <ele>583</ele>
        <time>2018-03-24T15:05:53Z</time>
      </trkpt>
      <trkpt lat="47.92999" lon="7.1614">
        <ele>566</ele>
        <time>2018-03-24T15:05:59Z</time>
      </trkpt>
      <trkpt lat="47.92997" lon="7.16124">
        <ele>566</ele>
        <time>2018-03-24T15:06:03Z</time>
      </trkpt>
      <trkpt lat="47.92996" lon="7.16112">
        <ele>568</ele>
        <time>2018-03-24T15:06:07Z</time>
      </trkpt>
      <trkpt lat="47.92995" lon="7.16098">
        <ele>572</ele>
        <time>2018-03-24T15:06:12Z</time>
      </trkpt>
      <trkpt lat="47.92994" lon="7.16083">
        <ele>580</ele>
        <time>2018-03-24T15:06:17Z</time>
      </trkpt>
      <trkpt lat="47.92992" lon="7.16072">
        <ele>579</ele>
        <time>2018-03-24T15:06:21Z</time>
      </trkpt>
      <trkpt lat="47.92991" lon="7.16056">
        <ele>579</ele>
        <time>2018-03-24T15:06:26Z</time>
      </trkpt>
      <trkpt lat="47.9299" lon="7.16043">
        <ele>580</ele>
        <time>2018-03-24T15:06:30Z</time>
      </trkpt>
      <trkpt lat="47.92989" lon="7.16031">
        <ele>581</ele>
        <time>2018-03-24T15:06:34Z</time>
      </trkpt>
      <trkpt lat="47.92988" lon="7.16018">
        <ele>584</ele>
        <time>2018-03-24T15:06:38Z</time>
      </trkpt>
      <trkpt lat="47.92986" lon="7.16004">
        <ele>586</ele>
        <time>2018-03-24T15:06:43Z</time>
      </trkpt>
      <trkpt lat="47.92983" lon="7.15991">
        <ele>595</ele>
        <time>2018-03-24T15:06:48Z</time>
      </trkpt>
      <trkpt lat="47.9298" lon="7.15979">
        <ele>596</ele>
        <time>2018-03-24T15:06:52Z</time>
      </trkpt>
      <trkpt lat="47.92977" lon="7.15964">
        <ele>598</ele>
        <time>2018-03-24T15:06:57Z</time>
      </trkpt>
      <trkpt lat="47.92973" lon="7.15953">
        <ele>599</ele>
        <time>2018-03-24T15:07:01Z</time>
      </trkpt>
      <trkpt lat="47.92968" lon="7.15943">
        <ele>600</ele>
        <time>2018-03-24T15:07:05Z</time>
      </trkpt>
      <trkpt lat="47.92961" lon="7.15932">
        <ele>601</ele>
        <time>2018-03-24T15:07:09Z</time>
      </trkpt>
      <trkpt lat="47.92954" lon="7.15926">
        <ele>601</ele>
        <time>2018-03-24T15:07:14Z</time>
      </trkpt>
      <trkpt lat="47.92946" lon="7.15922">
        <ele>601</ele>
        <time>2018-03-24T15:07:18Z</time>
      </trkpt>
      <trkpt lat="47.92937" lon="7.15924">
        <ele>601</ele>
        <time>2018-03-24T15:07:23Z</time>
      </trkpt>
      <trkpt lat="47.9293" lon="7.15927">
        <ele>601</ele>
        <time>2018-03-24T15:07:28Z</time>
      </trkpt>
      <trkpt lat="47.92922" lon="7.15935">
        <ele>600</ele>
        <time>2018-03-24T15:07:33Z</time>
      </trkpt>
      <trkpt lat="47.92921" lon="7.15947">
        <ele>597</ele>
        <time>2018-03-24T15:07:38Z</time>
      </trkpt>
      <trkpt lat="47.92913" lon="7.1595">
        <ele>591</ele>
        <time>2018-03-24T15:07:42Z</time>
      </trkpt>
      <trkpt lat="47.92907" lon="7.15947">
        <ele>592</ele>
        <time>2018-03-24T15:07:46Z</time>
      </trkpt>
      <trkpt lat="47.92895" lon="7.15947">
        <ele>591</ele>
        <time>2018-03-24T15:07:51Z</time>
      </trkpt>
      <trkpt lat="47.92886" lon="7.15949">
        <ele>591</ele>
        <time>2018-03-24T15:07:55Z</time>
      </trkpt>
      <trkpt lat="47.92871" lon="7.15945">
        <ele>591</ele>
        <time>2018-03-24T15:08:00Z</time>
      </trkpt>
      <trkpt lat="47.9286" lon="7.15939">
        <ele>592</ele>
        <time>2018-03-24T15:08:04Z</time>
      </trkpt>
      <trkpt lat="47.92852" lon="7.15931">
        <ele>593</ele>
        <time>2018-03-24T15:08:08Z</time>
      </trkpt>
      <trkpt lat="47.92845" lon="7.15923">
        <ele>595</ele>
        <time>2018-03-24T15:08:13Z</time>
      </trkpt>
      <trkpt lat="47.92839" lon="7.15917">
        <ele>597</ele>
        <time>2018-03-24T15:08:17Z</time>
      </trkpt>
      <trkpt lat="47.92832" lon="7.15908">
        <ele>598</ele>
        <time>2018-03-24T15:08:22Z</time>
      </trkpt>
      <trkpt lat="47.92827" lon="7.159">
        <ele>597</ele>
        <time>2018-03-24T15:08:27Z</time>
      </trkpt>
      <trkpt lat="47.92821" lon="7.15888">
        <ele>597</ele>
        <time>2018-03-24T15:08:31Z</time>
      </trkpt>
      <trkpt lat="47.92817" lon="7.15882">
        <ele>597</ele>
        <time>2018-03-24T15:08:35Z</time>
      </trkpt>
      <trkpt lat="47.9281" lon="7.15869">
        <ele>597</ele>
        <time>2018-03-24T15:08:39Z</time>
      </trkpt>
      <trkpt lat="47.92803" lon="7.15865">
        <ele>597</ele>
        <time>2018-03-24T15:08:45Z</time>
      </trkpt>
      <trkpt lat="47.92797" lon="7.15852">
        <ele>597</ele>
        <time>2018-03-24T15:08:49Z</time>
      </trkpt>
      <trkpt lat="47.92793" lon="7.15842">
        <ele>597</ele>
        <time>2018-03-24T15:08:53Z</time>
      </trkpt>
      <trkpt lat="47.92786" lon="7.15832">
        <ele>599</ele>
        <time>2018-03-24T15:08:58Z</time>
      </trkpt>
      <trkpt lat="47.92781" lon="7.15822">
        <ele>599</ele>
        <time>2018-03-24T15:09:02Z</time>
      </trkpt>
      <trkpt lat="47.92776" lon="7.15812">
        <ele>598</ele>
        <time>2018-03-24T15:09:06Z</time>
      </trkpt>
      <trkpt lat="47.9277" lon="7.15805">
        <ele>597</ele>
        <time>2018-03-24T15:09:10Z</time>
      </trkpt>
      <trkpt lat="47.92764" lon="7.15792">
        <ele>597</ele>
        <time>2018-03-24T15:09:15Z</time>
      </trkpt>
      <trkpt lat="47.92761" lon="7.15781">
        <ele>597</ele>
        <time>2018-03-24T15:09:19Z</time>
      </trkpt>
      <trkpt lat="47.92759" lon="7.1577">
        <ele>596</ele>
        <time>2018-03-24T15:09:23Z</time>
      </trkpt>
      <trkpt lat="47.92763" lon="7.15758">
        <ele>595</ele>
        <time>2018-03-24T15:09:27Z</time>
      </trkpt>
      <trkpt lat="47.92772" lon="7.1575">
        <ele>595</ele>
        <time>2018-03-24T15:09:32Z</time>
      </trkpt>
      <trkpt lat="47.9278" lon="7.15748">
        <ele>596</ele>
        <time>2018-03-24T15:09:36Z</time>
      </trkpt>
      <trkpt lat="47.92787" lon="7.15746">
        <ele>598</ele>
        <time>2018-03-24T15:09:40Z</time>
      </trkpt>
      <trkpt lat="47.92796" lon="7.15746">
        <ele>600</ele>
        <time>2018-03-24T15:09:45Z</time>
      </trkpt>
      <trkpt lat="47.92804" lon="7.15748">
        <ele>601</ele>
        <time>2018-03-24T15:09:50Z</time>
      </trkpt>
      <trkpt lat="47.92811" lon="7.15747">
        <ele>603</ele>
        <time>2018-03-24T15:09:54Z</time>
      </trkpt>
      <trkpt lat="47.9282" lon="7.15746">
        <ele>605</ele>
        <time>2018-03-24T15:09:58Z</time>
      </trkpt>
      <trkpt lat="47.92828" lon="7.15742">
        <ele>607</ele>
        <time>2018-03-24T15:10:03Z</time>
      </trkpt>
      <trkpt lat="47.92836" lon="7.15742">
        <ele>616</ele>
        <time>2018-03-24T15:10:07Z</time>
      </trkpt>
      <trkpt lat="47.92844" lon="7.1574">
        <ele>618</ele>
        <time>2018-03-24T15:10:11Z</time>
      </trkpt>
      <trkpt lat="47.92849" lon="7.15735">
        <ele>621</ele>
        <time>2018-03-24T15:10:15Z</time>
      </trkpt>
      <trkpt lat="47.92853" lon="7.15726">
        <ele>623</ele>
        <time>2018-03-24T15:10:20Z</time>
      </trkpt>
      <trkpt lat="47.92856" lon="7.15714">
        <ele>624</ele>
        <time>2018-03-24T15:10:25Z</time>
      </trkpt>
      <trkpt lat="47.92854" lon="7.15703">
        <ele>624</ele>
        <time>2018-03-24T15:10:30Z</time>
      </trkpt>
      <trkpt lat="47.92851" lon="7.15694">
        <ele>623</ele>
        <time>2018-03-24T15:10:34Z</time>
      </trkpt>
      <trkpt lat="47.92848" lon="7.15684">
        <ele>622</ele>
        <time>2018-03-24T15:10:38Z</time>
      </trkpt>
      <trkpt lat="47.92846" lon="7.15671">
        <ele>619</ele>
        <time>2018-03-24T15:10:43Z</time>
      </trkpt>
      <trkpt lat="47.92845" lon="7.15658">
        <ele>623</ele>
        <time>2018-03-24T15:10:48Z</time>
      </trkpt>
      <trkpt lat="47.92843" lon="7.15647">
        <ele>626</ele>
        <time>2018-03-24T15:10:52Z</time>
      </trkpt>
      <trkpt lat="47.92841" lon="7.15639">
        <ele>628</ele>
        <time>2018-03-24T15:10:56Z</time>
      </trkpt>
      <trkpt lat="47.9284" lon="7.15628">
        <ele>629</ele>
        <time>2018-03-24T15:10:59Z</time>
      </trkpt>
      <trkpt lat="47.92839" lon="7.15613">
        <ele>629</ele>
        <time>2018-03-24T15:11:04Z</time>
      </trkpt>
      <trkpt lat="47.92836" lon="7.15603">
        <ele>627</ele>
        <time>2018-03-24T15:11:08Z</time>
      </trkpt>
      <trkpt lat="47.92834" lon="7.15588">
        <ele>621</ele>
        <time>2018-03-24T15:11:13Z</time>
      </trkpt>
      <trkpt lat="47.92831" lon="7.15577">
        <ele>613</ele>
        <time>2018-03-24T15:11:17Z</time>
      </trkpt>
      <trkpt lat="47.92828" lon="7.15564">
        <ele>608</ele>
        <time>2018-03-24T15:11:22Z</time>
      </trkpt>
      <trkpt lat="47.92828" lon="7.15552">
        <ele>606</ele>
        <time>2018-03-24T15:11:26Z</time>
      </trkpt>
      <trkpt lat="47.92828" lon="7.1554">
        <ele>607</ele>
        <time>2018-03-24T15:11:30Z</time>
      </trkpt>
      <trkpt lat="47.92826" lon="7.15535">
        <ele>607</ele>
        <time>2018-03-24T15:11:33Z</time>
      </trkpt>
      <trkpt lat="47.92824" lon="7.15521">
        <ele>610</ele>
        <time>2018-03-24T15:11:37Z</time>
      </trkpt>
      <trkpt lat="47.92823" lon="7.15505">
        <ele>615</ele>
        <time>2018-03-24T15:11:42Z</time>
      </trkpt>
      <trkpt lat="47.92827" lon="7.15493">
        <ele>617</ele>
        <time>2018-03-24T15:11:46Z</time>
      </trkpt>
      <trkpt lat="47.92835" lon="7.1548">
        <ele>638</ele>
        <time>2018-03-24T15:11:51Z</time>
      </trkpt>
      <trkpt lat="47.92842" lon="7.15467">
        <ele>643</ele>
        <time>2018-03-24T15:11:56Z</time>
      </trkpt>
      <trkpt lat="47.92847" lon="7.15454">
        <ele>645</ele>
        <time>2018-03-24T15:12:01Z</time>
      </trkpt>
      <trkpt lat="47.92848" lon="7.15442">
        <ele>644</ele>
        <time>2018-03-24T15:12:05Z</time>
      </trkpt>
      <trkpt lat="47.92848" lon="7.15429">
        <ele>641</ele>
        <time>2018-03-24T15:12:09Z</time>
      </trkpt>
      <trkpt lat="47.92843" lon="7.15416">
        <ele>640</ele>
        <time>2018-03-24T15:12:14Z</time>
      </trkpt>
      <trkpt lat="47.92837" lon="7.15408">
        <ele>640</ele>
        <time>2018-03-24T15:12:18Z</time>
      </trkpt>
      <trkpt lat="47.92829" lon="7.15397">
        <ele>623</ele>
        <time>2018-03-24T15:12:23Z</time>
      </trkpt>
      <trkpt lat="47.92824" lon="7.15385">
        <ele>622</ele>
        <time>2018-03-24T15:12:28Z</time>
      </trkpt>
      <trkpt lat="47.9282" lon="7.15374">
        <ele>624</ele>
        <time>2018-03-24T15:12:32Z</time>
      </trkpt>
      <trkpt lat="47.92816" lon="7.15363">
        <ele>626</ele>
        <time>2018-03-24T15:12:36Z</time>
      </trkpt>
      <trkpt lat="47.92809" lon="7.1535">
        <ele>627</ele>
        <time>2018-03-24T15:12:41Z</time>
      </trkpt>
      <trkpt lat="47.92802" lon="7.15339">
        <ele>626</ele>
        <time>2018-03-24T15:12:46Z</time>
      </trkpt>
      <trkpt lat="47.92801" lon="7.15328">
        <ele>643</ele>
        <time>2018-03-24T15:12:51Z</time>
      </trkpt>
      <trkpt lat="47.92795" lon="7.15318">
        <ele>642</ele>
        <time>2018-03-24T15:12:56Z</time>
      </trkpt>
      <trkpt lat="47.92793" lon="7.15306">
        <ele>643</ele>
        <time>2018-03-24T15:13:01Z</time>
      </trkpt>
      <trkpt lat="47.92791" lon="7.15292">
        <ele>645</ele>
        <time>2018-03-24T15:13:06Z</time>
      </trkpt>
      <trkpt lat="47.92788" lon="7.1528">
        <ele>647</ele>
        <time>2018-03-24T15:13:11Z</time>
      </trkpt>
      <trkpt lat="47.92782" lon="7.1527">
        <ele>646</ele>
        <time>2018-03-24T15:13:16Z</time>
      </trkpt>
      <trkpt lat="47.92776" lon="7.15262">
        <ele>646</ele>
        <time>2018-03-24T15:13:20Z</time>
      </trkpt>
      <trkpt lat="47.92767" lon="7.1526">
        <ele>644</ele>
        <time>2018-03-24T15:13:25Z</time>
      </trkpt>
      <trkpt lat="47.92759" lon="7.15256">
        <ele>643</ele>
        <time>2018-03-24T15:13:30Z</time>
      </trkpt>
      <trkpt lat="47.92751" lon="7.15253">
        <ele>641</ele>
        <time>2018-03-24T15:13:35Z</time>
      </trkpt>
      <trkpt lat="47.92743" lon="7.15254">
        <ele>633</ele>
        <time>2018-03-24T15:13:39Z</time>
      </trkpt>
      <trkpt lat="47.92734" lon="7.15252">
        <ele>627</ele>
        <time>2018-03-24T15:13:44Z</time>
      </trkpt>
      <trkpt lat="47.92724" lon="7.15249">
        <ele>640</ele>
        <time>2018-03-24T15:13:49Z</time>
      </trkpt>
      <trkpt lat="47.92717" lon="7.15244">
        <ele>640</ele>
        <time>2018-03-24T15:13:53Z</time>
      </trkpt>
      <trkpt lat="47.9271" lon="7.15239">
        <ele>639</ele>
        <time>2018-03-24T15:13:57Z</time>
      </trkpt>
      <trkpt lat="47.92701" lon="7.1523">
        <ele>638</ele>
        <time>2018-03-24T15:14:02Z</time>
      </trkpt>
      <trkpt lat="47.92695" lon="7.15223">
        <ele>638</ele>
        <time>2018-03-24T15:14:07Z</time>
      </trkpt>
      <trkpt lat="47.9269" lon="7.15216">
        <ele>638</ele>
        <time>2018-03-24T15:14:11Z</time>
      </trkpt>
      <trkpt lat="47.92685" lon="7.15206">
        <ele>639</ele>
        <time>2018-03-24T15:14:16Z</time>
      </trkpt>
      <trkpt lat="47.92681" lon="7.15196">
        <ele>639</ele>
        <time>2018-03-24T15:14:21Z</time>
      </trkpt>
      <trkpt lat="47.92677" lon="7.15184">
        <ele>639</ele>
        <time>2018-03-24T15:14:25Z</time>
      </trkpt>
      <trkpt lat="47.92677" lon="7.15173">
        <ele>638</ele>
        <time>2018-03-24T15:14:29Z</time>
      </trkpt>
      <trkpt lat="47.92677" lon="7.15161">
        <ele>643</ele>
        <time>2018-03-24T15:14:34Z</time>
      </trkpt>
      <trkpt lat="47.92676" lon="7.15146">
        <ele>646</ele>
        <time>2018-03-24T15:14:38Z</time>
      </trkpt>
      <trkpt lat="47.92676" lon="7.15134">
        <ele>648</ele>
        <time>2018-03-24T15:14:43Z</time>
      </trkpt>
      <trkpt lat="47.92675" lon="7.15119">
        <ele>648</ele>
        <time>2018-03-24T15:14:47Z</time>
      </trkpt>
      <trkpt lat="47.92675" lon="7.15103">
        <ele>645</ele>
        <time>2018-03-24T15:14:52Z</time>
      </trkpt>
      <trkpt lat="47.92678" lon="7.15091">
        <ele>642</ele>
        <time>2018-03-24T15:14:57Z</time>
      </trkpt>
      <trkpt lat="47.92683" lon="7.15079">
        <ele>643</ele>
        <time>2018-03-24T15:15:02Z</time>
      </trkpt>
      <trkpt lat="47.92687" lon="7.15073">
        <ele>646</ele>
        <time>2018-03-24T15:15:05Z</time>
      </trkpt>
      <trkpt lat="47.92692" lon="7.15064">
        <ele>648</ele>
        <time>2018-03-24T15:15:09Z</time>
      </trkpt>
      <trkpt lat="47.92694" lon="7.15051">
        <ele>649</ele>
        <time>2018-03-24T15:15:14Z</time>
      </trkpt>
      <trkpt lat="47.92694" lon="7.1504">
        <ele>648</ele>
        <time>2018-03-24T15:15:18Z</time>
      </trkpt>
      <trkpt lat="47.92694" lon="7.15027">
        <ele>647</ele>
        <time>2018-03-24T15:15:22Z</time>
      </trkpt>
      <trkpt lat="47.92696" lon="7.15015">
        <ele>646</ele>
        <time>2018-03-24T15:15:27Z</time>
      </trkpt>
      <trkpt lat="47.927" lon="7.15002">
        <ele>647</ele>
        <time>2018-03-24T15:15:31Z</time>
      </trkpt>
      <trkpt lat="47.92706" lon="7.14986">
        <ele>645</ele>
        <time>2018-03-24T15:15:36Z</time>
      </trkpt>
      <trkpt lat="47.92711" lon="7.14974">
        <ele>647</ele>
        <time>2018-03-24T15:15:41Z</time>
      </trkpt>
      <trkpt lat="47.92716" lon="7.14964">
        <ele>648</ele>
        <time>2018-03-24T15:15:45Z</time>
      </trkpt>
      <trkpt lat="47.92721" lon="7.14955">
        <ele>649</ele>
        <time>2018-03-24T15:15:49Z</time>
      </trkpt>
      <trkpt lat="47.92726" lon="7.14944">
        <ele>650</ele>
        <time>2018-03-24T15:15:54Z</time>
      </trkpt>
      <trkpt lat="47.92733" lon="7.14931">
        <ele>654</ele>
        <time>2018-03-24T15:15:58Z</time>
      </trkpt>
      <trkpt lat="47.92736" lon="7.1492">
        <ele>657</ele>
        <time>2018-03-24T15:16:02Z</time>
      </trkpt>
      <trkpt lat="47.92735" lon="7.14906">
        <ele>656</ele>
        <time>2018-03-24T15:16:07Z</time>
      </trkpt>
      <trkpt lat="47.92735" lon="7.14893">
        <ele>654</ele>
        <time>2018-03-24T15:16:12Z</time>
      </trkpt>
      <trkpt lat="47.92731" lon="7.14881">
        <ele>652</ele>
        <time>2018-03-24T15:16:17Z</time>
      </trkpt>
      <trkpt lat="47.9273" lon="7.14868">
        <ele>653</ele>
        <time>2018-03-24T15:16:21Z</time>
      </trkpt>
      <trkpt lat="47.9273" lon="7.14852">
        <ele>655</ele>
        <time>2018-03-24T15:16:26Z</time>
      </trkpt>
      <trkpt lat="47.92732" lon="7.1484">
        <ele>657</ele>
        <time>2018-03-24T15:16:30Z</time>
      </trkpt>
      <trkpt lat="47.92733" lon="7.14827">
        <ele>664</ele>
        <time>2018-03-24T15:16:35Z</time>
      </trkpt>
      <trkpt lat="47.92735" lon="7.1481">
        <ele>664</ele>
        <time>2018-03-24T15:16:39Z</time>
      </trkpt>
      <trkpt lat="47.92737" lon="7.14794">
        <ele>665</ele>
        <time>2018-03-24T15:16:44Z</time>
      </trkpt>
      <trkpt lat="47.92738" lon="7.14783">
        <ele>666</ele>
        <time>2018-03-24T15:16:47Z</time>
      </trkpt>
      <trkpt lat="47.92741" lon="7.14769">
        <ele>670</ele>
        <time>2018-03-24T15:16:51Z</time>
      </trkpt>
      <trkpt lat="47.92742" lon="7.14755">
        <ele>673</ele>
        <time>2018-03-24T15:16:55Z</time>
      </trkpt>
      <trkpt lat="47.9274" lon="7.14742">
        <ele>682</ele>
        <time>2018-03-24T15:16:59Z</time>
      </trkpt>
      <trkpt lat="47.92734" lon="7.14736">
        <ele>683</ele>
        <time>2018-03-24T15:17:03Z</time>
      </trkpt>
      <trkpt lat="47.92727" lon="7.14726">
        <ele>685</ele>
        <time>2018-03-24T15:17:08Z</time>
      </trkpt>
      <trkpt lat="47.92719" lon="7.14724">
        <ele>685</ele>
        <time>2018-03-24T15:17:12Z</time>
      </trkpt>
      <trkpt lat="47.92711" lon="7.1472">
        <ele>685</ele>
        <time>2018-03-24T15:17:17Z</time>
      </trkpt>
      <trkpt lat="47.92703" lon="7.14715">
        <ele>685</ele>
        <time>2018-03-24T15:17:24Z</time>
      </trkpt>
      <trkpt lat="47.92696" lon="7.14713">
        <ele>685</ele>
        <time>2018-03-24T15:17:28Z</time>
      </trkpt>
      <trkpt lat="47.92685" lon="7.14708">
        <ele>685</ele>
        <time>2018-03-24T15:17:33Z</time>
      </trkpt>
      <trkpt lat="47.92676" lon="7.14706">
        <ele>685</ele>
        <time>2018-03-24T15:17:37Z</time>
      </trkpt>
      <trkpt lat="47.92664" lon="7.14704">
        <ele>674</ele>
        <time>2018-03-24T15:17:42Z</time>
      </trkpt>
      <trkpt lat="47.92653" lon="7.14705">
        <ele>673</ele>
        <time>2018-03-24T15:17:46Z</time>
      </trkpt>
      <trkpt lat="47.9264" lon="7.14705">
        <ele>672</ele>
        <time>2018-03-24T15:17:51Z</time>
      </trkpt>
      <trkpt lat="47.92633" lon="7.14706">
        <ele>670</ele>
        <time>2018-03-24T15:17:56Z</time>
      </trkpt>
      <trkpt lat="47.92619" lon="7.14706">
        <ele>669</ele>
        <time>2018-03-24T15:18:01Z</time>
      </trkpt>
      <trkpt lat="47.92611" lon="7.14704">
        <ele>668</ele>
        <time>2018-03-24T15:18:05Z</time>
      </trkpt>
      <trkpt lat="47.92607" lon="7.14702">
        <ele>668</ele>
        <time>2018-03-24T15:18:09Z</time>
      </trkpt>
      <trkpt lat="47.92598" lon="7.14698">
        <ele>667</ele>
        <time>2018-03-24T15:18:13Z</time>
      </trkpt>
      <trkpt lat="47.92587" lon="7.14689">
        <ele>667</ele>
        <time>2018-03-24T15:18:17Z</time>
      </trkpt>
      <trkpt lat="47.92579" lon="7.14681">
        <ele>656</ele>
        <time>2018-03-24T15:18:21Z</time>
      </trkpt>
      <trkpt lat="47.92573" lon="7.14668">
        <ele>658</ele>
        <time>2018-03-24T15:18:26Z</time>
      </trkpt>
      <trkpt lat="47.9257" lon="7.14656">
        <ele>665</ele>
        <time>2018-03-24T15:18:30Z</time>
      </trkpt>
      <trkpt lat="47.92572" lon="7.14641">
        <ele>666</ele>
        <time>2018-03-24T15:18:35Z</time>
      </trkpt>
      <trkpt lat="47.92573" lon="7.1463">
        <ele>668</ele>
        <time>2018-03-24T15:18:39Z</time>
      </trkpt>
      <trkpt lat="47.92571" lon="7.14618">
        <ele>670</ele>
        <time>2018-03-24T15:18:44Z</time>
      </trkpt>
      <trkpt lat="47.92566" lon="7.14605">
        <ele>673</ele>
        <time>2018-03-24T15:18:49Z</time>
      </trkpt>
      <trkpt lat="47.92563" lon="7.14597">
        <ele>675</ele>
        <time>2018-03-24T15:18:52Z</time>
      </trkpt>
      <trkpt lat="47.92556" lon="7.14584">
        <ele>674</ele>
        <time>2018-03-24T15:18:57Z</time>
      </trkpt>
      <trkpt lat="47.92548" lon="7.14579">
        <ele>689</ele>
        <time>2018-03-24T15:19:01Z</time>
      </trkpt>
      <trkpt lat="47.92537" lon="7.14571">
        <ele>687</ele>
        <time>2018-03-24T15:19:06Z</time>
      </trkpt>
      <trkpt lat="47.92529" lon="7.14566">
        <ele>685</ele>
        <time>2018-03-24T15:19:10Z</time>
      </trkpt>
      <trkpt lat="47.92521" lon="7.14561">
        <ele>684</ele>
        <time>2018-03-24T15:19:15Z</time>
      </trkpt>
      <trkpt lat="47.92513" lon="7.14558">
        <ele>683</ele>
        <time>2018-03-24T15:19:20Z</time>
      </trkpt>
      <trkpt lat="47.92503" lon="7.14551">
        <ele>685</ele>
        <time>2018-03-24T15:19:24Z</time>
      </trkpt>
      <trkpt lat="47.92492" lon="7.14542">
        <ele>670</ele>
        <time>2018-03-24T15:19:28Z</time>
      </trkpt>
      <trkpt lat="47.92484" lon="7.14529">
        <ele>672</ele>
        <time>2018-03-24T15:19:32Z</time>
      </trkpt>
      <trkpt lat="47.92475" lon="7.14518">
        <ele>673</ele>
        <time>2018-03-24T15:19:36Z</time>
      </trkpt>
      <trkpt lat="47.92469" lon="7.14507">
        <ele>672</ele>
        <time>2018-03-24T15:19:40Z</time>
      </trkpt>
      <trkpt lat="47.92461" lon="7.14499">
        <ele>680</ele>
        <time>2018-03-24T15:19:44Z</time>
      </trkpt>
      <trkpt lat="47.92455" lon="7.14489">
        <ele>679</ele>
        <time>2018-03-24T15:19:51Z</time>
      </trkpt>
      <trkpt lat="47.92464" lon="7.14489">
        <ele>681</ele>
        <time>2018-03-24T15:20:05Z</time>
      </trkpt>
      <trkpt lat="47.92468" lon="7.14499">
        <ele>683</ele>
        <time>2018-03-24T15:20:33Z</time>
      </trkpt>
      <trkpt lat="47.92478" lon="7.14504">
        <ele>676</ele>
        <time>2018-03-24T15:20:37Z</time>
      </trkpt>
      <trkpt lat="47.92487" lon="7.1451">
        <ele>679</ele>
        <time>2018-03-24T15:20:41Z</time>
      </trkpt>
      <trkpt lat="47.92496" lon="7.14518">
        <ele>679</ele>
        <time>2018-03-24T15:20:45Z</time>
      </trkpt>
      <trkpt lat="47.92503" lon="7.14526">
        <ele>691</ele>
        <time>2018-03-24T15:20:50Z</time>
      </trkpt>
      <trkpt lat="47.92509" lon="7.14536">
        <ele>689</ele>
        <time>2018-03-24T15:21:09Z</time>
      </trkpt>
      <trkpt lat="47.92513" lon="7.14535">
        <ele>690</ele>
        <time>2018-03-24T15:21:15Z</time>
      </trkpt>
      <trkpt lat="47.92523" lon="7.14532">
        <ele>691</ele>
        <time>2018-03-24T15:21:19Z</time>
      </trkpt>
      <trkpt lat="47.92532" lon="7.14533">
        <ele>692</ele>
        <time>2018-03-24T15:21:24Z</time>
      </trkpt>
      <trkpt lat="47.9254" lon="7.14536">
        <ele>693</ele>
        <time>2018-03-24T15:22:15Z</time>
      </trkpt>
      <trkpt lat="47.9255" lon="7.14538">
        <ele>694</ele>
        <time>2018-03-24T15:22:20Z</time>
      </trkpt>
      <trkpt lat="47.92558" lon="7.14538">
        <ele>696</ele>
        <time>2018-03-24T15:22:25Z</time>
      </trkpt>
      <trkpt lat="47.92566" lon="7.14536">
        <ele>697</ele>
        <time>2018-03-24T15:22:29Z</time>
      </trkpt>
      <trkpt lat="47.92573" lon="7.14539">
        <ele>697</ele>
        <time>2018-03-24T15:22:34Z</time>
      </trkpt>
      <trkpt lat="47.92579" lon="7.14545">
        <ele>696</ele>
        <time>2018-03-24T15:22:38Z</time>
      </trkpt>
      <trkpt lat="47.92585" lon="7.14552">
        <ele>710</ele>
        <time>2018-03-24T15:22:43Z</time>
      </trkpt>
      <trkpt lat="47.92591" lon="7.14561">
        <ele>708</ele>
        <time>2018-03-24T15:22:48Z</time>
      </trkpt>
      <trkpt lat="47.92595" lon="7.14574">
        <ele>704</ele>
        <time>2018-03-24T15:22:53Z</time>
      </trkpt>
      <trkpt lat="47.92601" lon="7.14583">
        <ele>705</ele>
        <time>2018-03-24T15:22:58Z</time>
      </trkpt>
      <trkpt lat="47.92606" lon="7.14593">
        <ele>695</ele>
        <time>2018-03-24T15:23:04Z</time>
      </trkpt>
      <trkpt lat="47.92607" lon="7.14603">
        <ele>694</ele>
        <time>2018-03-24T15:23:09Z</time>
      </trkpt>
      <trkpt lat="47.92613" lon="7.14612">
        <ele>694</ele>
        <time>2018-03-24T15:23:16Z</time>
      </trkpt>
      <trkpt lat="47.92618" lon="7.14622">
        <ele>694</ele>
        <time>2018-03-24T15:23:27Z</time>
      </trkpt>
      <trkpt lat="47.92622" lon="7.14633">
        <ele>693</ele>
        <time>2018-03-24T15:23:37Z</time>
      </trkpt>
      <trkpt lat="47.92629" lon="7.14637">
        <ele>694</ele>
        <time>2018-03-24T15:23:41Z</time>
      </trkpt>
      <trkpt lat="47.92637" lon="7.14639">
        <ele>695</ele>
        <time>2018-03-24T15:23:46Z</time>
      </trkpt>
      <trkpt lat="47.92644" lon="7.14637">
        <ele>696</ele>
        <time>2018-03-24T15:23:51Z</time>
      </trkpt>
      <trkpt lat="47.92652" lon="7.14637">
        <ele>697</ele>
        <time>2018-03-24T15:23:56Z</time>
      </trkpt>
      <trkpt lat="47.92661" lon="7.14639">
        <ele>697</ele>
        <time>2018-03-24T15:24:03Z</time>
      </trkpt>
      <trkpt lat="47.92666" lon="7.14632">
        <ele>699</ele>
        <time>2018-03-24T15:24:07Z</time>
      </trkpt>
      <trkpt lat="47.92675" lon="7.1463">
        <ele>712</ele>
        <time>2018-03-24T15:24:10Z</time>
      </trkpt>
      <trkpt lat="47.92683" lon="7.14632">
        <ele>712</ele>
        <time>2018-03-24T15:24:17Z</time>
      </trkpt>
      <trkpt lat="47.92691" lon="7.14632">
        <ele>712</ele>
        <time>2018-03-24T15:24:22Z</time>
      </trkpt>
      <trkpt lat="47.927" lon="7.14635">
        <ele>712</ele>
        <time>2018-03-24T15:24:27Z</time>
      </trkpt>
      <trkpt lat="47.92708" lon="7.14635">
        <ele>713</ele>
        <time>2018-03-24T15:24:34Z</time>
      </trkpt>
      <trkpt lat="47.92714" lon="7.14634">
        <ele>713</ele>
        <time>2018-03-24T15:24:39Z</time>
      </trkpt>
      <trkpt lat="47.92724" lon="7.14628">
        <ele>715</ele>
        <time>2018-03-24T15:24:43Z</time>
      </trkpt>
      <trkpt lat="47.92732" lon="7.14629">
        <ele>715</ele>
        <time>2018-03-24T15:24:48Z</time>
      </trkpt>
      <trkpt lat="47.92741" lon="7.14631">
        <ele>715</ele>
        <time>2018-03-24T15:24:55Z</time>
      </trkpt>
      <trkpt lat="47.92749" lon="7.1463">
        <ele>715</ele>
        <time>2018-03-24T15:25:01Z</time>
      </trkpt>
      <trkpt lat="47.92758" lon="7.14628">
        <ele>719</ele>
        <time>2018-03-24T15:25:06Z</time>
      </trkpt>
      <trkpt lat="47.92765" lon="7.14622">
        <ele>720</ele>
        <time>2018-03-24T15:25:10Z</time>
      </trkpt>
      <trkpt lat="47.92768" lon="7.14617">
        <ele>721</ele>
        <time>2018-03-24T15:25:15Z</time>
      </trkpt>
      <trkpt lat="47.92778" lon="7.14614">
        <ele>721</ele>
        <time>2018-03-24T15:25:19Z</time>
      </trkpt>
      <trkpt lat="47.92786" lon="7.14614">
        <ele>721</ele>
        <time>2018-03-24T15:25:24Z</time>
      </trkpt>
      <trkpt lat="47.92795" lon="7.14616">
        <ele>721</ele>
        <time>2018-03-24T15:25:31Z</time>
      </trkpt>
      <trkpt lat="47.92803" lon="7.14615">
        <ele>721</ele>
        <time>2018-03-24T15:25:38Z</time>
      </trkpt>
      <trkpt lat="47.9281" lon="7.14615">
        <ele>721</ele>
        <time>2018-03-24T15:25:42Z</time>
      </trkpt>
      <trkpt lat="47.92819" lon="7.14613">
        <ele>721</ele>
        <time>2018-03-24T15:25:47Z</time>
      </trkpt>
      <trkpt lat="47.92827" lon="7.14613">
        <ele>721</ele>
        <time>2018-03-24T15:25:52Z</time>
      </trkpt>
      <trkpt lat="47.92836" lon="7.14613">
        <ele>716</ele>
        <time>2018-03-24T15:25:58Z</time>
      </trkpt>
      <trkpt lat="47.92843" lon="7.14607">
        <ele>716</ele>
        <time>2018-03-24T15:26:05Z</time>
      </trkpt>
      <trkpt lat="47.92852" lon="7.14607">
        <ele>715</ele>
        <time>2018-03-24T15:26:11Z</time>
      </trkpt>
      <trkpt lat="47.92859" lon="7.14614">
        <ele>714</ele>
        <time>2018-03-24T15:26:18Z</time>
      </trkpt>
      <trkpt lat="47.92856" lon="7.14627">
        <ele>714</ele>
        <time>2018-03-24T15:26:30Z</time>
      </trkpt>
      <trkpt lat="47.92853" lon="7.14638">
        <ele>715</ele>
        <time>2018-03-24T15:28:06Z</time>
      </trkpt>
      <trkpt lat="47.92851" lon="7.14651">
        <ele>716</ele>
        <time>2018-03-24T15:28:10Z</time>
      </trkpt>
      <trkpt lat="47.92852" lon="7.14665">
        <ele>717</ele>
        <time>2018-03-24T15:28:13Z</time>
      </trkpt>
      <trkpt lat="47.92852" lon="7.14678">
        <ele>722</ele>
        <time>2018-03-24T15:28:18Z</time>
      </trkpt>
      <trkpt lat="47.92849" lon="7.14688">
        <ele>722</ele>
        <time>2018-03-24T15:28:23Z</time>
      </trkpt>
      <trkpt lat="47.92849" lon="7.147">
        <ele>722</ele>
        <time>2018-03-24T15:28:27Z</time>
      </trkpt>
      <trkpt lat="47.9285" lon="7.14712">
        <ele>723</ele>
        <time>2018-03-24T15:28:32Z</time>
      </trkpt>
      <trkpt lat="47.92851" lon="7.14723">
        <ele>723</ele>
        <time>2018-03-24T15:28:37Z</time>
      </trkpt>
      <trkpt lat="47.92851" lon="7.14734">
        <ele>723</ele>
        <time>2018-03-24T15:28:42Z</time>
      </trkpt>
      <trkpt lat="47.92848" lon="7.14745">
        <ele>722</ele>
        <time>2018-03-24T15:28:48Z</time>
      </trkpt>
      <trkpt lat="47.92854" lon="7.14739">
        <ele>723</ele>
        <time>2018-03-24T15:29:21Z</time>
      </trkpt>
      <trkpt lat="47.9286" lon="7.14729">
        <ele>723</ele>
        <time>2018-03-24T15:29:28Z</time>
      </trkpt>
      <trkpt lat="47.92866" lon="7.14721">
        <ele>724</ele>
        <time>2018-03-24T15:29:34Z</time>
      </trkpt>
      <trkpt lat="47.92872" lon="7.14729">
        <ele>725</ele>
        <time>2018-03-24T15:29:57Z</time>
      </trkpt>
      <trkpt lat="47.92874" lon="7.14742">
        <ele>725</ele>
        <time>2018-03-24T15:30:03Z</time>
      </trkpt>
      <trkpt lat="47.92871" lon="7.14754">
        <ele>733</ele>
        <time>2018-03-24T15:30:10Z</time>
      </trkpt>
      <trkpt lat="47.92869" lon="7.14767">
        <ele>733</ele>
        <time>2018-03-24T15:30:18Z</time>
      </trkpt>
      <trkpt lat="47.92868" lon="7.14778">
        <ele>733</ele>
        <time>2018-03-24T15:30:23Z</time>
      </trkpt>
      <trkpt lat="47.92865" lon="7.14789">
        <ele>734</ele>
        <time>2018-03-24T15:30:29Z</time>
      </trkpt>
      <trkpt lat="47.92865" lon="7.14801">
        <ele>734</ele>
        <time>2018-03-24T15:30:35Z</time>
      </trkpt>
      <trkpt lat="47.92865" lon="7.14815">
        <ele>734</ele>
        <time>2018-03-24T15:30:41Z</time>
      </trkpt>
      <trkpt lat="47.92867" lon="7.14826">
        <ele>735</ele>
        <time>2018-03-24T15:30:47Z</time>
      </trkpt>
      <trkpt lat="47.92867" lon="7.14838">
        <ele>741</ele>
        <time>2018-03-24T15:30:55Z</time>
      </trkpt>
      <trkpt lat="47.92865" lon="7.14854">
        <ele>742</ele>
        <time>2018-03-24T15:31:00Z</time>
      </trkpt>
      <trkpt lat="47.92867" lon="7.14865">
        <ele>743</ele>
        <time>2018-03-24T15:31:06Z</time>
      </trkpt>
      <trkpt lat="47.92869" lon="7.14877">
        <ele>745</ele>
        <time>2018-03-24T15:31:12Z</time>
      </trkpt>
      <trkpt lat="47.92868" lon="7.1489">
        <ele>745</ele>
        <time>2018-03-24T15:31:19Z</time>
      </trkpt>
      <trkpt lat="47.92871" lon="7.14902">
        <ele>746</ele>
        <time>2018-03-24T15:31:26Z</time>
      </trkpt>
      <trkpt lat="47.92872" lon="7.14914">
        <ele>747</ele>
        <time>2018-03-24T15:31:32Z</time>
      </trkpt>
      <trkpt lat="47.92871" lon="7.14925">
        <ele>750</ele>
        <time>2018-03-24T15:31:37Z</time>
      </trkpt>
      <trkpt lat="47.92871" lon="7.14939">
        <ele>750</ele>
        <time>2018-03-24T15:31:44Z</time>
      </trkpt>
      <trkpt lat="47.92874" lon="7.14949">
        <ele>752</ele>
        <time>2018-03-24T15:31:51Z</time>
      </trkpt>
      <trkpt lat="47.92876" lon="7.14963">
        <ele>752</ele>
        <time>2018-03-24T15:31:56Z</time>
      </trkpt>
      <trkpt lat="47.92879" lon="7.14973">
        <ele>753</ele>
        <time>2018-03-24T15:32:00Z</time>
      </trkpt>
      <trkpt lat="47.92882" lon="7.14984">
        <ele>754</ele>
        <time>2018-03-24T15:32:05Z</time>
      </trkpt>
      <trkpt lat="47.92881" lon="7.14996">
        <ele>755</ele>
        <time>2018-03-24T15:32:15Z</time>
      </trkpt>
      <trkpt lat="47.92876" lon="7.15007">
        <ele>752</ele>
        <time>2018-03-24T15:32:26Z</time>
      </trkpt>
      <trkpt lat="47.9288" lon="7.14997">
        <ele>754</ele>
        <time>2018-03-24T15:36:22Z</time>
      </trkpt>
      <trkpt lat="47.92884" lon="7.14976">
        <ele>755</ele>
        <time>2018-03-24T15:36:27Z</time>
      </trkpt>
      <trkpt lat="47.92887" lon="7.14963">
        <ele>755</ele>
        <time>2018-03-24T15:36:31Z</time>
      </trkpt>
      <trkpt lat="47.92891" lon="7.14948">
        <ele>757</ele>
        <time>2018-03-24T15:36:35Z</time>
      </trkpt>
      <trkpt lat="47.92898" lon="7.14931">
        <ele>762</ele>
        <time>2018-03-24T15:36:40Z</time>
      </trkpt>
      <trkpt lat="47.92901" lon="7.14919">
        <ele>766</ele>
        <time>2018-03-24T15:36:45Z</time>
      </trkpt>
      <trkpt lat="47.92903" lon="7.14907">
        <ele>763</ele>
        <time>2018-03-24T15:36:49Z</time>
      </trkpt>
      <trkpt lat="47.92903" lon="7.14893">
        <ele>758</ele>
        <time>2018-03-24T15:36:54Z</time>
      </trkpt>
      <trkpt lat="47.92903" lon="7.1488">
        <ele>755</ele>
        <time>2018-03-24T15:37:03Z</time>
      </trkpt>
      <trkpt lat="47.92906" lon="7.14869">
        <ele>754</ele>
        <time>2018-03-24T15:37:10Z</time>
      </trkpt>
      <trkpt lat="47.92914" lon="7.1487">
        <ele>755</ele>
        <time>2018-03-24T15:37:25Z</time>
      </trkpt>
      <trkpt lat="47.92916" lon="7.14883">
        <ele>757</ele>
        <time>2018-03-24T15:38:08Z</time>
      </trkpt>
      <trkpt lat="47.92915" lon="7.14895">
        <ele>761</ele>
        <time>2018-03-24T15:38:18Z</time>
      </trkpt>
      <trkpt lat="47.92916" lon="7.14908">
        <ele>770</ele>
        <time>2018-03-24T15:38:24Z</time>
      </trkpt>
      <trkpt lat="47.92915" lon="7.1492">
        <ele>775</ele>
        <time>2018-03-24T15:38:28Z</time>
      </trkpt>
      <trkpt lat="47.92919" lon="7.14931">
        <ele>780</ele>
        <time>2018-03-24T15:38:34Z</time>
      </trkpt>
      <trkpt lat="47.92919" lon="7.14943">
        <ele>781</ele>
        <time>2018-03-24T15:38:39Z</time>
      </trkpt>
      <trkpt lat="47.92921" lon="7.14955">
        <ele>781</ele>
        <time>2018-03-24T15:38:43Z</time>
      </trkpt>
      <trkpt lat="47.92924" lon="7.14972">
        <ele>780</ele>
        <time>2018-03-24T15:38:48Z</time>
      </trkpt>
      <trkpt lat="47.92926" lon="7.14983">
        <ele>779</ele>
        <time>2018-03-24T15:38:52Z</time>
      </trkpt>
      <trkpt lat="47.92928" lon="7.14995">
        <ele>779</ele>
        <time>2018-03-24T15:38:56Z</time>
      </trkpt>
      <trkpt lat="47.9293" lon="7.15002">
        <ele>776</ele>
        <time>2018-03-24T15:39:01Z</time>
      </trkpt>
      <trkpt lat="47.92933" lon="7.15015">
        <ele>776</ele>
        <time>2018-03-24T15:39:06Z</time>
      </trkpt>
      <trkpt lat="47.92936" lon="7.15029">
        <ele>775</ele>
        <time>2018-03-24T15:39:11Z</time>
      </trkpt>
      <trkpt lat="47.92942" lon="7.15042">
        <ele>775</ele>
        <time>2018-03-24T15:39:15Z</time>
      </trkpt>
      <trkpt lat="47.92948" lon="7.15048">
        <ele>774</ele>
        <time>2018-03-24T15:39:19Z</time>
      </trkpt>
      <trkpt lat="47.92955" lon="7.15055">
        <ele>774</ele>
        <time>2018-03-24T15:39:24Z</time>
      </trkpt>
      <trkpt lat="47.92963" lon="7.15054">
        <ele>775</ele>
        <time>2018-03-24T15:39:29Z</time>
      </trkpt>
      <trkpt lat="47.92961" lon="7.15041">
        <ele>775</ele>
        <time>2018-03-24T15:39:34Z</time>
      </trkpt>
      <trkpt lat="47.92956" lon="7.15032">
        <ele>776</ele>
        <time>2018-03-24T15:39:41Z</time>
      </trkpt>
      <trkpt lat="47.92951" lon="7.15022">
        <ele>776</ele>
        <time>2018-03-24T15:39:46Z</time>
      </trkpt>
      <trkpt lat="47.92947" lon="7.15013">
        <ele>776</ele>
        <time>2018-03-24T15:39:52Z</time>
      </trkpt>
      <trkpt lat="47.92944" lon="7.15002">
        <ele>776</ele>
        <time>2018-03-24T15:39:57Z</time>
      </trkpt>
      <trkpt lat="47.92945" lon="7.14989">
        <ele>781</ele>
        <time>2018-03-24T15:40:04Z</time>
      </trkpt>
      <trkpt lat="47.92947" lon="7.14976">
        <ele>782</ele>
        <time>2018-03-24T15:41:32Z</time>
      </trkpt>
      <trkpt lat="47.92947" lon="7.14963">
        <ele>782</ele>
        <time>2018-03-24T15:41:36Z</time>
      </trkpt>
      <trkpt lat="47.92944" lon="7.14953">
        <ele>782</ele>
        <time>2018-03-24T15:41:41Z</time>
      </trkpt>
      <trkpt lat="47.92943" lon="7.14941">
        <ele>782</ele>
        <time>2018-03-24T15:41:46Z</time>
      </trkpt>
      <trkpt lat="47.92944" lon="7.14929">
        <ele>782</ele>
        <time>2018-03-24T15:41:53Z</time>
      </trkpt>
      <trkpt lat="47.92949" lon="7.1492">
        <ele>783</ele>
        <time>2018-03-24T15:42:05Z</time>
      </trkpt>
      <trkpt lat="47.92954" lon="7.14909">
        <ele>779</ele>
        <time>2018-03-24T15:42:11Z</time>
      </trkpt>
      <trkpt lat="47.92962" lon="7.14902">
        <ele>779</ele>
        <time>2018-03-24T15:42:17Z</time>
      </trkpt>
      <trkpt lat="47.9297" lon="7.14904">
        <ele>780</ele>
        <time>2018-03-24T15:43:30Z</time>
      </trkpt>
      <trkpt lat="47.92974" lon="7.14915">
        <ele>782</ele>
        <time>2018-03-24T15:43:46Z</time>
      </trkpt>
      <trkpt lat="47.92982" lon="7.14908">
        <ele>783</ele>
        <time>2018-03-24T15:49:47Z</time>
      </trkpt>
      <trkpt lat="47.9299" lon="7.14914">
        <ele>786</ele>
        <time>2018-03-24T15:53:28Z</time>
      </trkpt>
      <trkpt lat="47.92981" lon="7.14915">
        <ele>784</ele>
        <time>2018-03-24T15:54:18Z</time>
      </trkpt>
      <trkpt lat="47.92976" lon="7.14906">
        <ele>782</ele>
        <time>2018-03-24T15:55:08Z</time>
      </trkpt>
      <trkpt lat="47.92967" lon="7.14904">
        <ele>780</ele>
        <time>2018-03-24T15:55:38Z</time>
      </trkpt>
      <trkpt lat="47.92954" lon="7.14916">
        <ele>779</ele>
        <time>2018-03-24T15:55:43Z</time>
      </trkpt>
      <trkpt lat="47.92945" lon="7.14934">
        <ele>782</ele>
        <time>2018-03-24T15:55:48Z</time>
      </trkpt>
      <trkpt lat="47.92953" lon="7.14968">
        <ele>782</ele>
        <time>2018-03-24T15:55:52Z</time>
      </trkpt>
      <trkpt lat="47.92949" lon="7.14991">
        <ele>781</ele>
        <time>2018-03-24T15:55:57Z</time>
      </trkpt>
      <trkpt lat="47.92961" lon="7.15021">
        <ele>777</ele>
        <time>2018-03-24T15:56:01Z</time>
      </trkpt>
      <trkpt lat="47.92966" lon="7.15049">
        <ele>775</ele>
        <time>2018-03-24T15:56:05Z</time>
      </trkpt>
      <trkpt lat="47.92964" lon="7.15059">
        <ele>774</ele>
        <time>2018-03-24T15:56:08Z</time>
      </trkpt>
      <trkpt lat="47.92941" lon="7.15054">
        <ele>774</ele>
        <time>2018-03-24T15:56:13Z</time>
      </trkpt>
      <trkpt lat="47.92931" lon="7.15041">
        <ele>774</ele>
        <time>2018-03-24T15:56:17Z</time>
      </trkpt>
      <trkpt lat="47.92923" lon="7.15015">
        <ele>776</ele>
        <time>2018-03-24T15:56:21Z</time>
      </trkpt>
      <trkpt lat="47.92917" lon="7.1497">
        <ele>780</ele>
        <time>2018-03-24T15:56:26Z</time>
      </trkpt>
      <trkpt lat="47.92912" lon="7.14933">
        <ele>766</ele>
        <time>2018-03-24T15:56:30Z</time>
      </trkpt>
      <trkpt lat="47.92912" lon="7.14909">
        <ele>769</ele>
        <time>2018-03-24T15:56:35Z</time>
      </trkpt>
      <trkpt lat="47.92911" lon="7.1488">
        <ele>756</ele>
        <time>2018-03-24T15:56:39Z</time>
      </trkpt>
      <trkpt lat="47.92907" lon="7.14892">
        <ele>759</ele>
        <time>2018-03-24T15:56:47Z</time>
      </trkpt>
      <trkpt lat="47.929" lon="7.14925">
        <ele>764</ele>
        <time>2018-03-24T15:56:51Z</time>
      </trkpt>
      <trkpt lat="47.92891" lon="7.14946">
        <ele>757</ele>
        <time>2018-03-24T15:56:54Z</time>
      </trkpt>
      <trkpt lat="47.92888" lon="7.14969">
        <ele>756</ele>
        <time>2018-03-24T15:56:59Z</time>
      </trkpt>
      <trkpt lat="47.92886" lon="7.1499">
        <ele>757</ele>
        <time>2018-03-24T15:57:04Z</time>
      </trkpt>
      <trkpt lat="47.92886" lon="7.14999">
        <ele>757</ele>
        <time>2018-03-24T16:00:40Z</time>
      </trkpt>
      <trkpt lat="47.92886" lon="7.15049">
        <ele>753</ele>
        <time>2018-03-24T16:00:45Z</time>
      </trkpt>
      <trkpt lat="47.92889" lon="7.15071">
        <ele>755</ele>
        <time>2018-03-24T16:00:49Z</time>
      </trkpt>
      <trkpt lat="47.92897" lon="7.15104">
        <ele>748</ele>
        <time>2018-03-24T16:00:54Z</time>
      </trkpt>
      <trkpt lat="47.92907" lon="7.15131">
        <ele>744</ele>
        <time>2018-03-24T16:00:59Z</time>
      </trkpt>
      <trkpt lat="47.92919" lon="7.15151">
        <ele>754</ele>
        <time>2018-03-24T16:01:03Z</time>
      </trkpt>
      <trkpt lat="47.92925" lon="7.15167">
        <ele>746</ele>
        <time>2018-03-24T16:01:06Z</time>
      </trkpt>
      <trkpt lat="47.92935" lon="7.15189">
        <ele>746</ele>
        <time>2018-03-24T16:01:10Z</time>
      </trkpt>
      <trkpt lat="47.92942" lon="7.15212">
        <ele>743</ele>
        <time>2018-03-24T16:01:14Z</time>
      </trkpt>
      <trkpt lat="47.92957" lon="7.15239">
        <ele>743</ele>
        <time>2018-03-24T16:01:18Z</time>
      </trkpt>
      <trkpt lat="47.9297" lon="7.15272">
        <ele>732</ele>
        <time>2018-03-24T16:01:22Z</time>
      </trkpt>
      <trkpt lat="47.92985" lon="7.15303">
        <ele>730</ele>
        <time>2018-03-24T16:01:26Z</time>
      </trkpt>
      <trkpt lat="47.92998" lon="7.15323">
        <ele>731</ele>
        <time>2018-03-24T16:01:30Z</time>
      </trkpt>
      <trkpt lat="47.92993" lon="7.15322">
        <ele>731</ele>
        <time>2018-03-24T16:01:34Z</time>
      </trkpt>
      <trkpt lat="47.92964" lon="7.15298">
        <ele>727</ele>
        <time>2018-03-24T16:01:39Z</time>
      </trkpt>
      <trkpt lat="47.92949" lon="7.15276">
        <ele>727</ele>
        <time>2018-03-24T16:01:43Z</time>
      </trkpt>
      <trkpt lat="47.92942" lon="7.15267">
        <ele>726</ele>
        <time>2018-03-24T16:01:47Z</time>
      </trkpt>
      <trkpt lat="47.92936" lon="7.15259">
        <ele>726</ele>
        <time>2018-03-24T16:01:54Z</time>
      </trkpt>
      <trkpt lat="47.92921" lon="7.15241">
        <ele>730</ele>
        <time>2018-03-24T16:01:59Z</time>
      </trkpt>
      <trkpt lat="47.92906" lon="7.15218">
        <ele>720</ele>
        <time>2018-03-24T16:02:03Z</time>
      </trkpt>
      <trkpt lat="47.9289" lon="7.15197">
        <ele>721</ele>
        <time>2018-03-24T16:02:08Z</time>
      </trkpt>
      <trkpt lat="47.92874" lon="7.15183">
        <ele>719</ele>
        <time>2018-03-24T16:02:12Z</time>
      </trkpt>
      <trkpt lat="47.92857" lon="7.15173">
        <ele>716</ele>
        <time>2018-03-24T16:02:16Z</time>
      </trkpt>
      <trkpt lat="47.92834" lon="7.15155">
        <ele>723</ele>
        <time>2018-03-24T16:02:21Z</time>
      </trkpt>
      <trkpt lat="47.92812" lon="7.15136">
        <ele>705</ele>
        <time>2018-03-24T16:02:26Z</time>
      </trkpt>
      <trkpt lat="47.92793" lon="7.15113">
        <ele>702</ele>
        <time>2018-03-24T16:02:30Z</time>
      </trkpt>
      <trkpt lat="47.92784" lon="7.15093">
        <ele>700</ele>
        <time>2018-03-24T16:02:34Z</time>
      </trkpt>
      <trkpt lat="47.92778" lon="7.15052">
        <ele>701</ele>
        <time>2018-03-24T16:02:38Z</time>
      </trkpt>
      <trkpt lat="47.92777" lon="7.15021">
        <ele>698</ele>
        <time>2018-03-24T16:02:43Z</time>
      </trkpt>
      <trkpt lat="47.92771" lon="7.15032">
        <ele>698</ele>
        <time>2018-03-24T16:02:52Z</time>
      </trkpt>
      <trkpt lat="47.92768" lon="7.1506">
        <ele>698</ele>
        <time>2018-03-24T16:02:56Z</time>
      </trkpt>
      <trkpt lat="47.92764" lon="7.15101">
        <ele>694</ele>
        <time>2018-03-24T16:03:01Z</time>
      </trkpt>
      <trkpt lat="47.92771" lon="7.15146">
        <ele>692</ele>
        <time>2018-03-24T16:03:06Z</time>
      </trkpt>
      <trkpt lat="47.92786" lon="7.15184">
        <ele>680</ele>
        <time>2018-03-24T16:03:11Z</time>
      </trkpt>
      <trkpt lat="47.92801" lon="7.15207">
        <ele>680</ele>
        <time>2018-03-24T16:03:15Z</time>
      </trkpt>
      <trkpt lat="47.92818" lon="7.15231">
        <ele>680</ele>
        <time>2018-03-24T16:03:19Z</time>
      </trkpt>
      <trkpt lat="47.92832" lon="7.15246">
        <ele>682</ele>
        <time>2018-03-24T16:03:22Z</time>
      </trkpt>
      <trkpt lat="47.92842" lon="7.15272">
        <ele>686</ele>
        <time>2018-03-24T16:03:26Z</time>
      </trkpt>
      <trkpt lat="47.92846" lon="7.15306">
        <ele>679</ele>
        <time>2018-03-24T16:03:30Z</time>
      </trkpt>
      <trkpt lat="47.92855" lon="7.15333">
        <ele>675</ele>
        <time>2018-03-24T16:03:34Z</time>
      </trkpt>
      <trkpt lat="47.92852" lon="7.15333">
        <ele>673</ele>
        <time>2018-03-24T16:03:40Z</time>
      </trkpt>
      <trkpt lat="47.92828" lon="7.15296">
        <ele>653</ele>
        <time>2018-03-24T16:03:45Z</time>
      </trkpt>
      <trkpt lat="47.92817" lon="7.15269">
        <ele>660</ele>
        <time>2018-03-24T16:03:49Z</time>
      </trkpt>
      <trkpt lat="47.92792" lon="7.15257">
        <ele>651</ele>
        <time>2018-03-24T16:03:54Z</time>
      </trkpt>
      <trkpt lat="47.92776" lon="7.15247">
        <ele>665</ele>
        <time>2018-03-24T16:03:58Z</time>
      </trkpt>
      <trkpt lat="47.9276" lon="7.15239">
        <ele>657</ele>
        <time>2018-03-24T16:04:02Z</time>
      </trkpt>
      <trkpt lat="47.92739" lon="7.15236">
        <ele>642</ele>
        <time>2018-03-24T16:04:07Z</time>
      </trkpt>
      <trkpt lat="47.92726" lon="7.15229">
        <ele>642</ele>
        <time>2018-03-24T16:04:11Z</time>
      </trkpt>
      <trkpt lat="47.92714" lon="7.15221">
        <ele>641</ele>
        <time>2018-03-24T16:04:15Z</time>
      </trkpt>
      <trkpt lat="47.92699" lon="7.15217">
        <ele>639</ele>
        <time>2018-03-24T16:04:20Z</time>
      </trkpt>
      <trkpt lat="47.92697" lon="7.15229">
        <ele>637</ele>
        <time>2018-03-24T16:04:25Z</time>
      </trkpt>
      <trkpt lat="47.92708" lon="7.15234">
        <ele>639</ele>
        <time>2018-03-24T16:04:30Z</time>
      </trkpt>
      <trkpt lat="47.92702" lon="7.15239">
        <ele>637</ele>
        <time>2018-03-24T16:05:16Z</time>
      </trkpt>
      <trkpt lat="47.92704" lon="7.15249">
        <ele>637</ele>
        <time>2018-03-24T16:05:23Z</time>
      </trkpt>
      <trkpt lat="47.9272" lon="7.1526">
        <ele>620</ele>
        <time>2018-03-24T16:05:27Z</time>
      </trkpt>
      <trkpt lat="47.92715" lon="7.15263">
        <ele>618</ele>
        <time>2018-03-24T16:05:32Z</time>
      </trkpt>
      <trkpt lat="47.92695" lon="7.15269">
        <ele>614</ele>
        <time>2018-03-24T16:05:36Z</time>
      </trkpt>
      <trkpt lat="47.92673" lon="7.15271">
        <ele>613</ele>
        <time>2018-03-24T16:05:39Z</time>
      </trkpt>
      <trkpt lat="47.92647" lon="7.15271">
        <ele>599</ele>
        <time>2018-03-24T16:05:44Z</time>
      </trkpt>
      <trkpt lat="47.92662" lon="7.15289">
        <ele>595</ele>
        <time>2018-03-24T16:05:49Z</time>
      </trkpt>
      <trkpt lat="47.92672" lon="7.15306">
        <ele>601</ele>
        <time>2018-03-24T16:05:53Z</time>
      </trkpt>
      <trkpt lat="47.92698" lon="7.15317">
        <ele>603</ele>
        <time>2018-03-24T16:05:57Z</time>
      </trkpt>
      <trkpt lat="47.92697" lon="7.1532">
        <ele>602</ele>
        <time>2018-03-24T16:06:03Z</time>
      </trkpt>
      <trkpt lat="47.92675" lon="7.15327">
        <ele>590</ele>
        <time>2018-03-24T16:06:08Z</time>
      </trkpt>
      <trkpt lat="47.92664" lon="7.15331">
        <ele>581</ele>
        <time>2018-03-24T16:06:12Z</time>
      </trkpt>
      <trkpt lat="47.92656" lon="7.15327">
        <ele>584</ele>
        <time>2018-03-24T16:06:21Z</time>
      </trkpt>
      <trkpt lat="47.92648" lon="7.15331">
        <ele>585</ele>
        <time>2018-03-24T16:06:45Z</time>
      </trkpt>
      <trkpt lat="47.9264" lon="7.15328">
        <ele>586</ele>
        <time>2018-03-24T16:06:59Z</time>
      </trkpt>
      <trkpt lat="47.92629" lon="7.15329">
        <ele>586</ele>
        <time>2018-03-24T16:07:03Z</time>
      </trkpt>
      <trkpt lat="47.92633" lon="7.1534">
        <ele>569</ele>
        <time>2018-03-24T16:07:09Z</time>
      </trkpt>
      <trkpt lat="47.92626" lon="7.15347">
        <ele>568</ele>
        <time>2018-03-24T16:07:21Z</time>
      </trkpt>
      <trkpt lat="47.9262" lon="7.15337">
        <ele>569</ele>
        <time>2018-03-24T16:08:30Z</time>
      </trkpt>
      <trkpt lat="47.92627" lon="7.15345">
        <ele>568</ele>
        <time>2018-03-24T16:13:12Z</time>
      </trkpt>
      <trkpt lat="47.92621" lon="7.15336">
        <ele>569</ele>
        <time>2018-03-24T16:14:47Z</time>
      </trkpt>
      <trkpt lat="47.92627" lon="7.15346">
        <ele>568</ele>
        <time>2018-03-24T16:15:47Z</time>
      </trkpt>
      <trkpt lat="47.92638" lon="7.15349">
        <ele>568</ele>
        <time>2018-03-24T16:15:51Z</time>
      </trkpt>
      <trkpt lat="47.92656" lon="7.15357">
        <ele>568</ele>
        <time>2018-03-24T16:15:55Z</time>
      </trkpt>
      <trkpt lat="47.92671" lon="7.15364">
        <ele>575</ele>
        <time>2018-03-24T16:16:00Z</time>
      </trkpt>
      <trkpt lat="47.92665" lon="7.15367">
        <ele>566</ele>
        <time>2018-03-24T16:16:06Z</time>
      </trkpt>
      <trkpt lat="47.92632" lon="7.15379">
        <ele>563</ele>
        <time>2018-03-24T16:16:11Z</time>
      </trkpt>
      <trkpt lat="47.9261" lon="7.15386">
        <ele>562</ele>
        <time>2018-03-24T16:16:15Z</time>
      </trkpt>
      <trkpt lat="47.92579" lon="7.15406">
        <ele>553</ele>
        <time>2018-03-24T16:16:19Z</time>
      </trkpt>
      <trkpt lat="47.9256" lon="7.15429">
        <ele>540</ele>
        <time>2018-03-24T16:16:23Z</time>
      </trkpt>
      <trkpt lat="47.92519" lon="7.1546">
        <ele>532</ele>
        <time>2018-03-24T16:16:28Z</time>
      </trkpt>
      <trkpt lat="47.92492" lon="7.1546">
        <ele>521</ele>
        <time>2018-03-24T16:16:33Z</time>
      </trkpt>
      <trkpt lat="47.92472" lon="7.15449">
        <ele>521</ele>
        <time>2018-03-24T16:16:37Z</time>
      </trkpt>
      <trkpt lat="47.92469" lon="7.15437">
        <ele>522</ele>
        <time>2018-03-24T16:16:50Z</time>
      </trkpt>
      <trkpt lat="47.92474" lon="7.15442">
        <ele>522</ele>
        <time>2018-03-24T16:17:19Z</time>
      </trkpt>
      <trkpt lat="47.92479" lon="7.15462">
        <ele>520</ele>
        <time>2018-03-24T16:17:23Z</time>
      </trkpt>
      <trkpt lat="47.92488" lon="7.1549">
        <ele>518</ele>
        <time>2018-03-24T16:17:28Z</time>
      </trkpt>
      <trkpt lat="47.92505" lon="7.15494">
        <ele>522</ele>
        <time>2018-03-24T16:17:32Z</time>
      </trkpt>
      <trkpt lat="47.92547" lon="7.15493">
        <ele>529</ele>
        <time>2018-03-24T16:17:37Z</time>
      </trkpt>
      <trkpt lat="47.92581" lon="7.15496">
        <ele>525</ele>
        <time>2018-03-24T16:17:42Z</time>
      </trkpt>
      <trkpt lat="47.926" lon="7.15518">
        <ele>528</ele>
        <time>2018-03-24T16:17:46Z</time>
      </trkpt>
      <trkpt lat="47.92609" lon="7.15557">
        <ele>528</ele>
        <time>2018-03-24T16:17:51Z</time>
      </trkpt>
      <trkpt lat="47.92577" lon="7.15581">
        <ele>514</ele>
        <time>2018-03-24T16:17:55Z</time>
      </trkpt>
      <trkpt lat="47.92552" lon="7.156">
        <ele>509</ele>
        <time>2018-03-24T16:17:59Z</time>
      </trkpt>
      <trkpt lat="47.92535" lon="7.15607">
        <ele>506</ele>
        <time>2018-03-24T16:18:03Z</time>
      </trkpt>
      <trkpt lat="47.92508" lon="7.15632">
        <ele>503</ele>
        <time>2018-03-24T16:18:06Z</time>
      </trkpt>
      <trkpt lat="47.92502" lon="7.15665">
        <ele>495</ele>
        <time>2018-03-24T16:18:11Z</time>
      </trkpt>
      <trkpt lat="47.92496" lon="7.1569">
        <ele>488</ele>
        <time>2018-03-24T16:18:14Z</time>
      </trkpt>
      <trkpt lat="47.92473" lon="7.15729">
        <ele>486</ele>
        <time>2018-03-24T16:18:19Z</time>
      </trkpt>
      <trkpt lat="47.92463" lon="7.15757">
        <ele>487</ele>
        <time>2018-03-24T16:18:23Z</time>
      </trkpt>
      <trkpt lat="47.92442" lon="7.15775">
        <ele>482</ele>
        <time>2018-03-24T16:18:27Z</time>
      </trkpt>
      <trkpt lat="47.92418" lon="7.15772">
        <ele>478</ele>
        <time>2018-03-24T16:18:32Z</time>
      </trkpt>
      <trkpt lat="47.92413" lon="7.158">
        <ele>464</ele>
        <time>2018-03-24T16:18:37Z</time>
      </trkpt>
      <trkpt lat="47.92411" lon="7.15828">
        <ele>471</ele>
        <time>2018-03-24T16:18:41Z</time>
      </trkpt>
      <trkpt lat="47.92412" lon="7.15845">
        <ele>469</ele>
        <time>2018-03-24T16:18:45Z</time>
      </trkpt>
      <trkpt lat="47.92411" lon="7.15858">
        <ele>466</ele>
        <time>2018-03-24T16:18:54Z</time>
      </trkpt>
      <trkpt lat="47.92407" lon="7.1587">
        <ele>464</ele>
        <time>2018-03-24T16:20:27Z</time>
      </trkpt>
      <trkpt lat="47.92405" lon="7.15886">
        <ele>463</ele>
        <time>2018-03-24T16:20:32Z</time>
      </trkpt>
      <trkpt lat="47.92398" lon="7.15905">
        <ele>463</ele>
        <time>2018-03-24T16:20:36Z</time>
      </trkpt>
      <trkpt lat="47.92385" lon="7.15908">
        <ele>460</ele>
        <time>2018-03-24T16:20:40Z</time>
      </trkpt>
      <trkpt lat="47.92381" lon="7.15918">
        <ele>457</ele>
        <time>2018-03-24T16:20:51Z</time>
      </trkpt>
      <trkpt lat="47.92373" lon="7.15906">
        <ele>458</ele>
        <time>2018-03-24T16:20:55Z</time>
      </trkpt>
      <trkpt lat="47.92366" lon="7.15898">
        <ele>456</ele>
        <time>2018-03-24T16:21:04Z</time>
      </trkpt>
      <trkpt lat="47.92365" lon="7.15908">
        <ele>456</ele>
        <time>2018-03-24T16:21:08Z</time>
      </trkpt>
      <trkpt lat="47.92357" lon="7.15913">
        <ele>453</ele>
        <time>2018-03-24T16:21:18Z</time>
      </trkpt>
      <trkpt lat="47.92351" lon="7.15908">
        <ele>452</ele>
        <time>2018-03-24T16:21:25Z</time>
      </trkpt>
      <trkpt lat="47.92347" lon="7.15917">
        <ele>448</ele>
        <time>2018-03-24T16:21:31Z</time>
      </trkpt>
      <trkpt lat="47.92339" lon="7.1591">
        <ele>448</ele>
        <time>2018-03-24T16:22:09Z</time>
      </trkpt>
      <trkpt lat="47.92332" lon="7.15906">
        <ele>445</ele>
        <time>2018-03-24T16:22:27Z</time>
      </trkpt>
      <trkpt lat="47.92327" lon="7.15887">
        <ele>447</ele>
        <time>2018-03-24T16:22:32Z</time>
      </trkpt>
      <trkpt lat="47.92325" lon="7.15875">
        <ele>447</ele>
        <time>2018-03-24T16:22:40Z</time>
      </trkpt>
      <trkpt lat="47.92323" lon="7.15861">
        <ele>448</ele>
        <time>2018-03-24T16:22:44Z</time>
      </trkpt>
      <trkpt lat="47.92329" lon="7.15846">
        <ele>447</ele>
        <time>2018-03-24T16:22:49Z</time>
      </trkpt>
      <trkpt lat="47.92336" lon="7.15839">
        <ele>449</ele>
        <time>2018-03-24T16:23:07Z</time>
      </trkpt>
      <trkpt lat="47.92332" lon="7.15849">
        <ele>447</ele>
        <time>2018-03-24T16:23:35Z</time>
      </trkpt>
      <trkpt lat="47.92329" lon="7.1587">
        <ele>447</ele>
        <time>2018-03-24T16:23:39Z</time>
      </trkpt>
      <trkpt lat="47.92321" lon="7.15915">
        <ele>445</ele>
        <time>2018-03-24T16:23:44Z</time>
      </trkpt>
      <trkpt lat="47.92314" lon="7.15941">
        <ele>445</ele>
        <time>2018-03-24T16:23:48Z</time>
      </trkpt>
      <trkpt lat="47.92313" lon="7.15975">
        <ele>444</ele>
        <time>2018-03-24T16:23:53Z</time>
      </trkpt>
      <trkpt lat="47.92316" lon="7.16024">
        <ele>443</ele>
        <time>2018-03-24T16:23:58Z</time>
      </trkpt>
      <trkpt lat="47.92324" lon="7.16074">
        <ele>441</ele>
        <time>2018-03-24T16:24:02Z</time>
      </trkpt>
      <trkpt lat="47.92331" lon="7.16145">
        <ele>442</ele>
        <time>2018-03-24T16:24:07Z</time>
      </trkpt>
      <trkpt lat="47.92334" lon="7.16219">
        <ele>441</ele>
        <time>2018-03-24T16:24:12Z</time>
      </trkpt>
      <trkpt lat="47.92333" lon="7.16295">
        <ele>429</ele>
        <time>2018-03-24T16:24:17Z</time>
      </trkpt>
      <trkpt lat="47.92332" lon="7.1636">
        <ele>418</ele>
        <time>2018-03-24T16:24:21Z</time>
      </trkpt>
      <trkpt lat="47.92331" lon="7.16416">
        <ele>409</ele>
        <time>2018-03-24T16:24:25Z</time>
      </trkpt>
      <trkpt lat="47.92331" lon="7.16472">
        <ele>410</ele>
        <time>2018-03-24T16:24:29Z</time>
      </trkpt>
      <trkpt lat="47.9232" lon="7.16525">
        <ele>411</ele>
        <time>2018-03-24T16:24:33Z</time>
      </trkpt>
      <trkpt lat="47.92296" lon="7.16583">
        <ele>413</ele>
        <time>2018-03-24T16:24:38Z</time>
      </trkpt>
      <trkpt lat="47.92277" lon="7.16628">
        <ele>418</ele>
        <time>2018-03-24T16:24:42Z</time>
      </trkpt>
      <trkpt lat="47.92267" lon="7.1665">
        <ele>416</ele>
        <time>2018-03-24T16:24:44Z</time>
      </trkpt>
      <trkpt lat="47.92244" lon="7.16704">
        <ele>410</ele>
        <time>2018-03-24T16:24:49Z</time>
      </trkpt>
      <trkpt lat="47.9222" lon="7.16739">
        <ele>410</ele>
        <time>2018-03-24T16:24:53Z</time>
      </trkpt>
      <trkpt lat="47.92184" lon="7.16774">
        <ele>412</ele>
        <time>2018-03-24T16:24:58Z</time>
      </trkpt>
      <trkpt lat="47.9215" lon="7.16806">
        <ele>404</ele>
        <time>2018-03-24T16:25:02Z</time>
      </trkpt>
      <trkpt lat="47.92125" lon="7.16842">
        <ele>405</ele>
        <time>2018-03-24T16:25:07Z</time>
      </trkpt>
      <trkpt lat="47.92103" lon="7.16899">
        <ele>403</ele>
        <time>2018-03-24T16:25:11Z</time>
      </trkpt>
      <trkpt lat="47.92104" lon="7.16939">
        <ele>403</ele>
        <time>2018-03-24T16:25:15Z</time>
      </trkpt>
      <trkpt lat="47.92107" lon="7.17002">
        <ele>398</ele>
        <time>2018-03-24T16:25:19Z</time>
      </trkpt>
      <trkpt lat="47.92108" lon="7.17046">
        <ele>399</ele>
        <time>2018-03-24T16:25:24Z</time>
      </trkpt>
      <trkpt lat="47.92094" lon="7.17085">
        <ele>391</ele>
        <time>2018-03-24T16:25:28Z</time>
      </trkpt>
      <trkpt lat="47.9209" lon="7.17128">
        <ele>395</ele>
        <time>2018-03-24T16:25:33Z</time>
      </trkpt>
      <trkpt lat="47.92087" lon="7.17166">
        <ele>394</ele>
        <time>2018-03-24T16:25:38Z</time>
      </trkpt>
      <trkpt lat="47.92086" lon="7.17186">
        <ele>393</ele>
        <time>2018-03-24T16:25:41Z</time>
      </trkpt>
      <trkpt lat="47.92088" lon="7.17216">
        <ele>392</ele>
        <time>2018-03-24T16:25:46Z</time>
      </trkpt>
      <trkpt lat="47.92086" lon="7.17242">
        <ele>393</ele>
        <time>2018-03-24T16:25:51Z</time>
      </trkpt>
      <trkpt lat="47.92087" lon="7.17258">
        <ele>392</ele>
        <time>2018-03-24T16:25:55Z</time>
      </trkpt>
      <trkpt lat="47.92088" lon="7.17271">
        <ele>391</ele>
        <time>2018-03-24T16:26:00Z</time>
      </trkpt>
      <trkpt lat="47.92082" lon="7.17279">
        <ele>402</ele>
        <time>2018-03-24T16:26:43Z</time>
      </trkpt>
      <trkpt lat="47.92074" lon="7.17284">
        <ele>403</ele>
        <time>2018-03-24T16:26:51Z</time>
      </trkpt>
      <trkpt lat="47.92067" lon="7.17292">
        <ele>404</ele>
        <time>2018-03-24T16:27:00Z</time>
      </trkpt>
      <trkpt lat="47.92063" lon="7.17303">
        <ele>404</ele>
        <time>2018-03-24T16:27:12Z</time>
      </trkpt>
      <trkpt lat="47.92058" lon="7.17319">
        <ele>404</ele>
        <time>2018-03-24T16:27:16Z</time>
      </trkpt>
      <trkpt lat="47.92058" lon="7.17333">
        <ele>404</ele>
        <time>2018-03-24T16:27:21Z</time>
      </trkpt>
      <trkpt lat="47.92059" lon="7.17345">
        <ele>403</ele>
        <time>2018-03-24T16:27:26Z</time>
      </trkpt>
      <trkpt lat="47.92059" lon="7.17358">
        <ele>404</ele>
        <time>2018-03-24T16:27:35Z</time>
      </trkpt>
      <trkpt lat="47.92061" lon="7.17371">
        <ele>404</ele>
        <time>2018-03-24T16:27:41Z</time>
      </trkpt>
      <trkpt lat="47.92062" lon="7.17383">
        <ele>404</ele>
        <time>2018-03-24T16:27:47Z</time>
      </trkpt>
      <trkpt lat="47.92062" lon="7.17385">
        <ele>403</ele>
        <time>2018-03-24T16:27:49Z</time>
      </trkpt>
      <trkpt lat="47.92063" lon="7.17397">
        <ele>402</ele>
        <time>2018-03-24T16:27:54Z</time>
      </trkpt>
      <trkpt lat="47.92068" lon="7.17409">
        <ele>400</ele>
        <time>2018-03-24T16:27:59Z</time>
      </trkpt>
      <trkpt lat="47.92071" lon="7.17421">
        <ele>397</ele>
        <time>2018-03-24T16:28:04Z</time>
      </trkpt>
      <trkpt lat="47.92069" lon="7.17429">
        <ele>398</ele>
        <time>2018-03-24T16:28:08Z</time>
      </trkpt>
      <trkpt lat="47.92063" lon="7.17437">
        <ele>399</ele>
        <time>2018-03-24T16:28:14Z</time>
      </trkpt>
      <trkpt lat="47.92055" lon="7.17442">
        <ele>400</ele>
        <time>2018-03-24T16:28:19Z</time>
      </trkpt>
      <trkpt lat="47.92049" lon="7.1745">
        <ele>401</ele>
        <time>2018-03-24T16:28:26Z</time>
      </trkpt>
      <trkpt lat="47.92044" lon="7.17461">
        <ele>401</ele>
        <time>2018-03-24T16:28:35Z</time>
      </trkpt>
      <trkpt lat="47.92041" lon="7.1747">
        <ele>402</ele>
        <time>2018-03-24T16:28:40Z</time>
      </trkpt>
      <trkpt lat="47.92036" lon="7.17479">
        <ele>402</ele>
        <time>2018-03-24T16:28:46Z</time>
      </trkpt>
      <trkpt lat="47.9203" lon="7.17488">
        <ele>403</ele>
        <time>2018-03-24T16:28:51Z</time>
      </trkpt>
      <trkpt lat="47.92028" lon="7.175">
        <ele>404</ele>
        <time>2018-03-24T16:28:59Z</time>
      </trkpt>
      <trkpt lat="47.92026" lon="7.17511">
        <ele>397</ele>
        <time>2018-03-24T16:29:04Z</time>
      </trkpt>
      <trkpt lat="47.9202" lon="7.17519">
        <ele>397</ele>
        <time>2018-03-24T16:29:09Z</time>
      </trkpt>
      <trkpt lat="47.92013" lon="7.17523">
        <ele>398</ele>
        <time>2018-03-24T16:29:14Z</time>
      </trkpt>
      <trkpt lat="47.92005" lon="7.17531">
        <ele>397</ele>
        <time>2018-03-24T16:29:19Z</time>
      </trkpt>
      <trkpt lat="47.91997" lon="7.17537">
        <ele>408</ele>
        <time>2018-03-24T16:29:23Z</time>
      </trkpt>
      <trkpt lat="47.9199" lon="7.17542">
        <ele>408</ele>
        <time>2018-03-24T16:29:27Z</time>
      </trkpt>
      <trkpt lat="47.91984" lon="7.17545">
        <ele>408</ele>
        <time>2018-03-24T16:29:31Z</time>
      </trkpt>
      <trkpt lat="47.91973" lon="7.17549">
        <ele>408</ele>
        <time>2018-03-24T16:29:36Z</time>
      </trkpt>
      <trkpt lat="47.91964" lon="7.17552">
        <ele>409</ele>
        <time>2018-03-24T16:29:42Z</time>
      </trkpt>
      <trkpt lat="47.91957" lon="7.17553">
        <ele>410</ele>
        <time>2018-03-24T16:29:48Z</time>
      </trkpt>
      <trkpt lat="47.91951" lon="7.17556">
        <ele>410</ele>
        <time>2018-03-24T16:29:52Z</time>
      </trkpt>
      <trkpt lat="47.9194" lon="7.17561">
        <ele>410</ele>
        <time>2018-03-24T16:29:57Z</time>
      </trkpt>
      <trkpt lat="47.91932" lon="7.17563">
        <ele>410</ele>
        <time>2018-03-24T16:30:01Z</time>
      </trkpt>
      <trkpt lat="47.9192" lon="7.17567">
        <ele>410</ele>
        <time>2018-03-24T16:30:05Z</time>
      </trkpt>
      <trkpt lat="47.9191" lon="7.17571">
        <ele>416</ele>
        <time>2018-03-24T16:30:09Z</time>
      </trkpt>
      <trkpt lat="47.91896" lon="7.17575">
        <ele>419</ele>
        <time>2018-03-24T16:30:14Z</time>
      </trkpt>
      <trkpt lat="47.91882" lon="7.17578">
        <ele>421</ele>
        <time>2018-03-24T16:30:18Z</time>
      </trkpt>
      <trkpt lat="47.91875" lon="7.17578">
        <ele>422</ele>
        <time>2018-03-24T16:30:23Z</time>
      </trkpt>
      <trkpt lat="47.91867" lon="7.17575">
        <ele>423</ele>
        <time>2018-03-24T16:30:27Z</time>
      </trkpt>
      <trkpt lat="47.91858" lon="7.17572">
        <ele>424</ele>
        <time>2018-03-24T16:30:33Z</time>
      </trkpt>
      <trkpt lat="47.9185" lon="7.17567">
        <ele>425</ele>
        <time>2018-03-24T16:30:37Z</time>
      </trkpt>
      <trkpt lat="47.91843" lon="7.17566">
        <ele>425</ele>
        <time>2018-03-24T16:30:42Z</time>
      </trkpt>
      <trkpt lat="47.91832" lon="7.17568">
        <ele>431</ele>
        <time>2018-03-24T16:30:47Z</time>
      </trkpt>
      <trkpt lat="47.91818" lon="7.17572">
        <ele>432</ele>
        <time>2018-03-24T16:30:52Z</time>
      </trkpt>
      <trkpt lat="47.91807" lon="7.17576">
        <ele>434</ele>
        <time>2018-03-24T16:30:56Z</time>
      </trkpt>
      <trkpt lat="47.91799" lon="7.17579">
        <ele>436</ele>
        <time>2018-03-24T16:31:01Z</time>
      </trkpt>
      <trkpt lat="47.9179" lon="7.17587">
        <ele>430</ele>
        <time>2018-03-24T16:31:06Z</time>
      </trkpt>
      <trkpt lat="47.91781" lon="7.17595">
        <ele>431</ele>
        <time>2018-03-24T16:31:11Z</time>
      </trkpt>
      <trkpt lat="47.91774" lon="7.17603">
        <ele>431</ele>
        <time>2018-03-24T16:31:17Z</time>
      </trkpt>
      <trkpt lat="47.91765" lon="7.17607">
        <ele>432</ele>
        <time>2018-03-24T16:31:22Z</time>
      </trkpt>
      <trkpt lat="47.91754" lon="7.1761">
        <ele>433</ele>
        <time>2018-03-24T16:31:27Z</time>
      </trkpt>
      <trkpt lat="47.91743" lon="7.17615">
        <ele>441</ele>
        <time>2018-03-24T16:31:32Z</time>
      </trkpt>
      <trkpt lat="47.91737" lon="7.1763">
        <ele>441</ele>
        <time>2018-03-24T16:31:36Z</time>
      </trkpt>
      <trkpt lat="47.91737" lon="7.17649">
        <ele>440</ele>
        <time>2018-03-24T16:31:40Z</time>
      </trkpt>
      <trkpt lat="47.91742" lon="7.17664">
        <ele>437</ele>
        <time>2018-03-24T16:31:45Z</time>
      </trkpt>
      <trkpt lat="47.91738" lon="7.17675">
        <ele>439</ele>
        <time>2018-03-24T16:32:04Z</time>
      </trkpt>
      <trkpt lat="47.91735" lon="7.17686">
        <ele>440</ele>
        <time>2018-03-24T16:32:13Z</time>
      </trkpt>
      <trkpt lat="47.91728" lon="7.17696">
        <ele>441</ele>
        <time>2018-03-24T16:32:21Z</time>
      </trkpt>
      <trkpt lat="47.91724" lon="7.17705">
        <ele>442</ele>
        <time>2018-03-24T16:32:26Z</time>
      </trkpt>
      <trkpt lat="47.91719" lon="7.17713">
        <ele>443</ele>
        <time>2018-03-24T16:32:31Z</time>
      </trkpt>
      <trkpt lat="47.91714" lon="7.17721">
        <ele>443</ele>
        <time>2018-03-24T16:32:36Z</time>
      </trkpt>
      <trkpt lat="47.91707" lon="7.17727">
        <ele>443</ele>
        <time>2018-03-24T16:32:41Z</time>
      </trkpt>
      <trkpt lat="47.91704" lon="7.17738">
        <ele>444</ele>
        <time>2018-03-24T16:32:46Z</time>
      </trkpt>
      <trkpt lat="47.91698" lon="7.17747">
        <ele>444</ele>
        <time>2018-03-24T16:32:51Z</time>
      </trkpt>
      <trkpt lat="47.91691" lon="7.17753">
        <ele>448</ele>
        <time>2018-03-24T16:32:56Z</time>
      </trkpt>
      <trkpt lat="47.91685" lon="7.17763">
        <ele>448</ele>
        <time>2018-03-24T16:33:02Z</time>
      </trkpt>
      <trkpt lat="47.91678" lon="7.17769">
        <ele>448</ele>
        <time>2018-03-24T16:33:08Z</time>
      </trkpt>
      <trkpt lat="47.91672" lon="7.17778">
        <ele>448</ele>
        <time>2018-03-24T16:33:15Z</time>
      </trkpt>
      <trkpt lat="47.91666" lon="7.17786">
        <ele>451</ele>
        <time>2018-03-24T16:33:24Z</time>
      </trkpt>
      <trkpt lat="47.9166" lon="7.1779">
        <ele>451</ele>
        <time>2018-03-24T16:33:30Z</time>
      </trkpt>
      <trkpt lat="47.91652" lon="7.1779">
        <ele>452</ele>
        <time>2018-03-24T16:33:34Z</time>
      </trkpt>
      <trkpt lat="47.91646" lon="7.17792">
        <ele>452</ele>
        <time>2018-03-24T16:33:38Z</time>
      </trkpt>
      <trkpt lat="47.91639" lon="7.17795">
        <ele>452</ele>
        <time>2018-03-24T16:33:43Z</time>
      </trkpt>
      <trkpt lat="47.91631" lon="7.17799">
        <ele>453</ele>
        <time>2018-03-24T16:33:50Z</time>
      </trkpt>
      <trkpt lat="47.91624" lon="7.17801">
        <ele>453</ele>
        <time>2018-03-24T16:33:55Z</time>
      </trkpt>
      <trkpt lat="47.91616" lon="7.17804">
        <ele>454</ele>
        <time>2018-03-24T16:33:59Z</time>
      </trkpt>
      <trkpt lat="47.91606" lon="7.17807">
        <ele>454</ele>
        <time>2018-03-24T16:34:04Z</time>
      </trkpt>
      <trkpt lat="47.91598" lon="7.1781">
        <ele>455</ele>
        <time>2018-03-24T16:34:12Z</time>
      </trkpt>
      <trkpt lat="47.9159" lon="7.17813">
        <ele>456</ele>
        <time>2018-03-24T16:34:22Z</time>
      </trkpt>
      <trkpt lat="47.91581" lon="7.17817">
        <ele>459</ele>
        <time>2018-03-24T16:34:29Z</time>
      </trkpt>
      <trkpt lat="47.91573" lon="7.17819">
        <ele>459</ele>
        <time>2018-03-24T16:34:33Z</time>
      </trkpt>
      <trkpt lat="47.91563" lon="7.17819">
        <ele>458</ele>
        <time>2018-03-24T16:34:37Z</time>
      </trkpt>
      <trkpt lat="47.91555" lon="7.1782">
        <ele>458</ele>
        <time>2018-03-24T16:34:41Z</time>
      </trkpt>
      <trkpt lat="47.91547" lon="7.17824">
        <ele>458</ele>
        <time>2018-03-24T16:34:45Z</time>
      </trkpt>
      <trkpt lat="47.91537" lon="7.17826">
        <ele>459</ele>
        <time>2018-03-24T16:34:50Z</time>
      </trkpt>
      <trkpt lat="47.91529" lon="7.17827">
        <ele>459</ele>
        <time>2018-03-24T16:34:56Z</time>
      </trkpt>
      <trkpt lat="47.9152" lon="7.17828">
        <ele>460</ele>
        <time>2018-03-24T16:34:59Z</time>
      </trkpt>
      <trkpt lat="47.9151" lon="7.1783">
        <ele>462</ele>
        <time>2018-03-24T16:35:04Z</time>
      </trkpt>
      <trkpt lat="47.91501" lon="7.1783">
        <ele>463</ele>
        <time>2018-03-24T16:35:08Z</time>
      </trkpt>
      <trkpt lat="47.91494" lon="7.17831">
        <ele>464</ele>
        <time>2018-03-24T16:35:17Z</time>
      </trkpt>
      <trkpt lat="47.91486" lon="7.17832">
        <ele>464</ele>
        <time>2018-03-24T16:35:23Z</time>
      </trkpt>
      <trkpt lat="47.91478" lon="7.1783">
        <ele>464</ele>
        <time>2018-03-24T16:35:28Z</time>
      </trkpt>
      <trkpt lat="47.91466" lon="7.17826">
        <ele>464</ele>
        <time>2018-03-24T16:35:32Z</time>
      </trkpt>
      <trkpt lat="47.91449" lon="7.17821">
        <ele>465</ele>
        <time>2018-03-24T16:35:37Z</time>
      </trkpt>
      <trkpt lat="47.91441" lon="7.17817">
        <ele>466</ele>
        <time>2018-03-24T16:35:45Z</time>
      </trkpt>
      <trkpt lat="47.91433" lon="7.17814">
        <ele>466</ele>
        <time>2018-03-24T16:35:52Z</time>
      </trkpt>
      <trkpt lat="47.91424" lon="7.17816">
        <ele>467</ele>
        <time>2018-03-24T16:35:57Z</time>
      </trkpt>
      <trkpt lat="47.91416" lon="7.17812">
        <ele>474</ele>
        <time>2018-03-24T16:36:09Z</time>
      </trkpt>
      <trkpt lat="47.91407" lon="7.17811">
        <ele>474</ele>
        <time>2018-03-24T16:36:17Z</time>
      </trkpt>
      <trkpt lat="47.91398" lon="7.17811">
        <ele>475</ele>
        <time>2018-03-24T16:36:24Z</time>
      </trkpt>
      <trkpt lat="47.91386" lon="7.17811">
        <ele>476</ele>
        <time>2018-03-24T16:36:28Z</time>
      </trkpt>
      <trkpt lat="47.91373" lon="7.17806">
        <ele>477</ele>
        <time>2018-03-24T16:36:33Z</time>
      </trkpt>
      <trkpt lat="47.91369" lon="7.17795">
        <ele>477</ele>
        <time>2018-03-24T16:36:39Z</time>
      </trkpt>
      <trkpt lat="47.91367" lon="7.17782">
        <ele>477</ele>
        <time>2018-03-24T16:36:46Z</time>
      </trkpt>
      <trkpt lat="47.91372" lon="7.17771">
        <ele>476</ele>
        <time>2018-03-24T16:36:52Z</time>
      </trkpt>
      <trkpt lat="47.91374" lon="7.17758">
        <ele>475</ele>
        <time>2018-03-24T16:37:02Z</time>
      </trkpt>
      <trkpt lat="47.91376" lon="7.17746">
        <ele>478</ele>
        <time>2018-03-24T16:37:08Z</time>
      </trkpt>
      <trkpt lat="47.91375" lon="7.17734">
        <ele>479</ele>
        <time>2018-03-24T16:37:14Z</time>
      </trkpt>
      <trkpt lat="47.91374" lon="7.17722">
        <ele>480</ele>
        <time>2018-03-24T16:37:23Z</time>
      </trkpt>
      <trkpt lat="47.91381" lon="7.17715">
        <ele>480</ele>
        <time>2018-03-24T16:37:28Z</time>
      </trkpt>
      <trkpt lat="47.91387" lon="7.17707">
        <ele>480</ele>
        <time>2018-03-24T16:37:34Z</time>
      </trkpt>
      <trkpt lat="47.91389" lon="7.17696">
        <ele>481</ele>
        <time>2018-03-24T16:37:39Z</time>
      </trkpt>
      <trkpt lat="47.91382" lon="7.17703">
        <ele>481</ele>
        <time>2018-03-24T16:38:09Z</time>
      </trkpt>
      <trkpt lat="47.91374" lon="7.17708">
        <ele>481</ele>
        <time>2018-03-24T16:38:17Z</time>
      </trkpt>
      <trkpt lat="47.91367" lon="7.17709">
        <ele>482</ele>
        <time>2018-03-24T16:38:22Z</time>
      </trkpt>
      <trkpt lat="47.9136" lon="7.1771">
        <ele>483</ele>
        <time>2018-03-24T16:38:26Z</time>
      </trkpt>
      <trkpt lat="47.91352" lon="7.17715">
        <ele>483</ele>
        <time>2018-03-24T16:38:34Z</time>
      </trkpt>
      <trkpt lat="47.91345" lon="7.17718">
        <ele>483</ele>
        <time>2018-03-24T16:38:38Z</time>
      </trkpt>
      <trkpt lat="47.91337" lon="7.17723">
        <ele>483</ele>
        <time>2018-03-24T16:38:44Z</time>
      </trkpt>
      <trkpt lat="47.91329" lon="7.17729">
        <ele>491</ele>
        <time>2018-03-24T16:38:50Z</time>
      </trkpt>
      <trkpt lat="47.91321" lon="7.17735">
        <ele>491</ele>
        <time>2018-03-24T16:38:57Z</time>
      </trkpt>
      <trkpt lat="47.91313" lon="7.17736">
        <ele>492</ele>
        <time>2018-03-24T16:39:02Z</time>
      </trkpt>
      <trkpt lat="47.91305" lon="7.17741">
        <ele>493</ele>
        <time>2018-03-24T16:39:07Z</time>
      </trkpt>
      <trkpt lat="47.91297" lon="7.17748">
        <ele>494</ele>
        <time>2018-03-24T16:39:12Z</time>
      </trkpt>
      <trkpt lat="47.91291" lon="7.17754">
        <ele>492</ele>
        <time>2018-03-24T16:39:17Z</time>
      </trkpt>
      <trkpt lat="47.91283" lon="7.1776">
        <ele>493</ele>
        <time>2018-03-24T16:39:24Z</time>
      </trkpt>
      <trkpt lat="47.91277" lon="7.17764">
        <ele>494</ele>
        <time>2018-03-24T16:39:29Z</time>
      </trkpt>
      <trkpt lat="47.9127" lon="7.17771">
        <ele>494</ele>
        <time>2018-03-24T16:39:36Z</time>
      </trkpt>
      <trkpt lat="47.91261" lon="7.17774">
        <ele>495</ele>
        <time>2018-03-24T16:39:41Z</time>
      </trkpt>
      <trkpt lat="47.91253" lon="7.17775">
        <ele>495</ele>
        <time>2018-03-24T16:39:46Z</time>
      </trkpt>
      <trkpt lat="47.91245" lon="7.17774">
        <ele>502</ele>
        <time>2018-03-24T16:39:50Z</time>
      </trkpt>
      <trkpt lat="47.9124" lon="7.17776">
        <ele>502</ele>
        <time>2018-03-24T16:39:56Z</time>
      </trkpt>
      <trkpt lat="47.91236" lon="7.17788">
        <ele>503</ele>
        <time>2018-03-24T16:40:02Z</time>
      </trkpt>
      <trkpt lat="47.91229" lon="7.17793">
        <ele>504</ele>
        <time>2018-03-24T16:43:11Z</time>
      </trkpt>
      <trkpt lat="47.91218" lon="7.17785">
        <ele>504</ele>
        <time>2018-03-24T16:43:16Z</time>
      </trkpt>
      <trkpt lat="47.9121" lon="7.17777">
        <ele>504</ele>
        <time>2018-03-24T16:43:20Z</time>
      </trkpt>
      <trkpt lat="47.91206" lon="7.17765">
        <ele>504</ele>
        <time>2018-03-24T16:43:24Z</time>
      </trkpt>
      <trkpt lat="47.91204" lon="7.1775">
        <ele>503</ele>
        <time>2018-03-24T16:43:29Z</time>
      </trkpt>
      <trkpt lat="47.91209" lon="7.1774">
        <ele>507</ele>
        <time>2018-03-24T16:43:35Z</time>
      </trkpt>
      <trkpt lat="47.91214" lon="7.1773">
        <ele>507</ele>
        <time>2018-03-24T16:43:40Z</time>
      </trkpt>
      <trkpt lat="47.91218" lon="7.17723">
        <ele>508</ele>
        <time>2018-03-24T16:43:46Z</time>
      </trkpt>
      <trkpt lat="47.91224" lon="7.17717">
        <ele>508</ele>
        <time>2018-03-24T16:43:50Z</time>
      </trkpt>
      <trkpt lat="47.91232" lon="7.17712">
        <ele>508</ele>
        <time>2018-03-24T16:43:55Z</time>
      </trkpt>
      <trkpt lat="47.91242" lon="7.17706">
        <ele>509</ele>
        <time>2018-03-24T16:43:59Z</time>
      </trkpt>
      <trkpt lat="47.9125" lon="7.17702">
        <ele>510</ele>
        <time>2018-03-24T16:44:03Z</time>
      </trkpt>
      <trkpt lat="47.91258" lon="7.17699">
        <ele>503</ele>
        <time>2018-03-24T16:44:06Z</time>
      </trkpt>
      <trkpt lat="47.91264" lon="7.17694">
        <ele>504</ele>
        <time>2018-03-24T16:44:10Z</time>
      </trkpt>
      <trkpt lat="47.91268" lon="7.17684">
        <ele>505</ele>
        <time>2018-03-24T16:44:15Z</time>
      </trkpt>
      <trkpt lat="47.91274" lon="7.17674">
        <ele>505</ele>
        <time>2018-03-24T16:44:20Z</time>
      </trkpt>
      <trkpt lat="47.91278" lon="7.17663">
        <ele>517</ele>
        <time>2018-03-24T16:44:24Z</time>
      </trkpt>
      <trkpt lat="47.91282" lon="7.17652">
        <ele>517</ele>
        <time>2018-03-24T16:44:29Z</time>
      </trkpt>
      <trkpt lat="47.91288" lon="7.17644">
        <ele>517</ele>
        <time>2018-03-24T16:44:34Z</time>
      </trkpt>
      <trkpt lat="47.91294" lon="7.17632">
        <ele>518</ele>
        <time>2018-03-24T16:44:39Z</time>
      </trkpt>
      <trkpt lat="47.91299" lon="7.17622">
        <ele>519</ele>
        <time>2018-03-24T16:44:44Z</time>
      </trkpt>
      <trkpt lat="47.91306" lon="7.17615">
        <ele>519</ele>
        <time>2018-03-24T16:44:48Z</time>
      </trkpt>
      <trkpt lat="47.91312" lon="7.17605">
        <ele>520</ele>
        <time>2018-03-24T16:44:53Z</time>
      </trkpt>
      <trkpt lat="47.91314" lon="7.17597">
        <ele>520</ele>
        <time>2018-03-24T16:44:57Z</time>
      </trkpt>
      <trkpt lat="47.91324" lon="7.17587">
        <ele>521</ele>
        <time>2018-03-24T16:45:01Z</time>
      </trkpt>
      <trkpt lat="47.91328" lon="7.17577">
        <ele>527</ele>
        <time>2018-03-24T16:45:08Z</time>
      </trkpt>
      <trkpt lat="47.91331" lon="7.17567">
        <ele>531</ele>
        <time>2018-03-24T16:45:13Z</time>
      </trkpt>
      <trkpt lat="47.91337" lon="7.17558">
        <ele>521</ele>
        <time>2018-03-24T16:45:18Z</time>
      </trkpt>
      <trkpt lat="47.91344" lon="7.1755">
        <ele>522</ele>
        <time>2018-03-24T16:45:24Z</time>
      </trkpt>
      <trkpt lat="47.91354" lon="7.17541">
        <ele>522</ele>
        <time>2018-03-24T16:45:29Z</time>
      </trkpt>
      <trkpt lat="47.91351" lon="7.1753">
        <ele>525</ele>
        <time>2018-03-24T16:45:37Z</time>
      </trkpt>
      <trkpt lat="47.91356" lon="7.17522">
        <ele>525</ele>
        <time>2018-03-24T16:45:41Z</time>
      </trkpt>
      <trkpt lat="47.91362" lon="7.17516">
        <ele>524</ele>
        <time>2018-03-24T16:45:45Z</time>
      </trkpt>
      <trkpt lat="47.91366" lon="7.17504">
        <ele>525</ele>
        <time>2018-03-24T16:45:50Z</time>
      </trkpt>
      <trkpt lat="47.91368" lon="7.17492">
        <ele>532</ele>
        <time>2018-03-24T16:45:59Z</time>
      </trkpt>
      <trkpt lat="47.91368" lon="7.17482">
        <ele>533</ele>
        <time>2018-03-24T16:46:05Z</time>
      </trkpt>
      <trkpt lat="47.91372" lon="7.17473">
        <ele>532</ele>
        <time>2018-03-24T16:46:11Z</time>
      </trkpt>
      <trkpt lat="47.91376" lon="7.17465">
        <ele>532</ele>
        <time>2018-03-24T16:46:15Z</time>
      </trkpt>
      <trkpt lat="47.91377" lon="7.17451">
        <ele>532</ele>
        <time>2018-03-24T16:46:20Z</time>
      </trkpt>
      <trkpt lat="47.91379" lon="7.17439">
        <ele>532</ele>
        <time>2018-03-24T16:46:25Z</time>
      </trkpt>
      <trkpt lat="47.91378" lon="7.17427">
        <ele>533</ele>
        <time>2018-03-24T16:46:30Z</time>
      </trkpt>
      <trkpt lat="47.91377" lon="7.17415">
        <ele>539</ele>
        <time>2018-03-24T16:46:35Z</time>
      </trkpt>
      <trkpt lat="47.9138" lon="7.17408">
        <ele>538</ele>
        <time>2018-03-24T16:46:38Z</time>
      </trkpt>
      <trkpt lat="47.9138" lon="7.17394">
        <ele>539</ele>
        <time>2018-03-24T16:46:43Z</time>
      </trkpt>
      <trkpt lat="47.91381" lon="7.17382">
        <ele>539</ele>
        <time>2018-03-24T16:46:47Z</time>
      </trkpt>
      <trkpt lat="47.91378" lon="7.17369">
        <ele>541</ele>
        <time>2018-03-24T16:46:51Z</time>
      </trkpt>
      <trkpt lat="47.91374" lon="7.17352">
        <ele>542</ele>
        <time>2018-03-24T16:46:56Z</time>
      </trkpt>
      <trkpt lat="47.91377" lon="7.1734">
        <ele>542</ele>
        <time>2018-03-24T16:47:00Z</time>
      </trkpt>
      <trkpt lat="47.91381" lon="7.17328">
        <ele>547</ele>
        <time>2018-03-24T16:47:05Z</time>
      </trkpt>
      <trkpt lat="47.91385" lon="7.17315">
        <ele>548</ele>
        <time>2018-03-24T16:47:09Z</time>
      </trkpt>
      <trkpt lat="47.91388" lon="7.17305">
        <ele>548</ele>
        <time>2018-03-24T16:47:13Z</time>
      </trkpt>
      <trkpt lat="47.91391" lon="7.17293">
        <ele>549</ele>
        <time>2018-03-24T16:47:17Z</time>
      </trkpt>
      <trkpt lat="47.91395" lon="7.17281">
        <ele>550</ele>
        <time>2018-03-24T16:47:22Z</time>
      </trkpt>
      <trkpt lat="47.91403" lon="7.17276">
        <ele>550</ele>
        <time>2018-03-24T16:47:40Z</time>
      </trkpt>
      <trkpt lat="47.91411" lon="7.17279">
        <ele>549</ele>
        <time>2018-03-24T16:47:48Z</time>
      </trkpt>
      <trkpt lat="47.91419" lon="7.17285">
        <ele>541</ele>
        <time>2018-03-24T16:47:56Z</time>
      </trkpt>
      <trkpt lat="47.91433" lon="7.17281">
        <ele>541</ele>
        <time>2018-03-24T16:48:01Z</time>
      </trkpt>
      <trkpt lat="47.91445" lon="7.17277">
        <ele>541</ele>
        <time>2018-03-24T16:48:05Z</time>
      </trkpt>
      <trkpt lat="47.91459" lon="7.17272">
        <ele>541</ele>
        <time>2018-03-24T16:48:10Z</time>
      </trkpt>
      <trkpt lat="47.91453" lon="7.17278">
        <ele>540</ele>
        <time>2018-03-24T16:50:50Z</time>
      </trkpt>
      <trkpt lat="47.91444" lon="7.17276">
        <ele>541</ele>
        <time>2018-03-24T16:50:54Z</time>
      </trkpt>
      <trkpt lat="47.91433" lon="7.17271">
        <ele>542</ele>
        <time>2018-03-24T16:50:59Z</time>
      </trkpt>
      <trkpt lat="47.91419" lon="7.17266">
        <ele>545</ele>
        <time>2018-03-24T16:51:03Z</time>
      </trkpt>
      <trkpt lat="47.91406" lon="7.17255">
        <ele>551</ele>
        <time>2018-03-24T16:51:07Z</time>
      </trkpt>
      <trkpt lat="47.91395" lon="7.1725">
        <ele>552</ele>
        <time>2018-03-24T16:51:12Z</time>
      </trkpt>
      <trkpt lat="47.91382" lon="7.17252">
        <ele>553</ele>
        <time>2018-03-24T16:51:17Z</time>
      </trkpt>
      <trkpt lat="47.91376" lon="7.17263">
        <ele>553</ele>
        <time>2018-03-24T16:51:21Z</time>
      </trkpt>
      <trkpt lat="47.9137" lon="7.17276">
        <ele>553</ele>
        <time>2018-03-24T16:51:26Z</time>
      </trkpt>
      <trkpt lat="47.91366" lon="7.17291">
        <ele>553</ele>
        <time>2018-03-24T16:51:31Z</time>
      </trkpt>
      <trkpt lat="47.91363" lon="7.17304">
        <ele>552</ele>
        <time>2018-03-24T16:51:35Z</time>
      </trkpt>
      <trkpt lat="47.91359" lon="7.17317">
        <ele>553</ele>
        <time>2018-03-24T16:51:40Z</time>
      </trkpt>
      <trkpt lat="47.91349" lon="7.17328">
        <ele>554</ele>
        <time>2018-03-24T16:51:44Z</time>
      </trkpt>
      <trkpt lat="47.91336" lon="7.17331">
        <ele>557</ele>
        <time>2018-03-24T16:51:49Z</time>
      </trkpt>
      <trkpt lat="47.91328" lon="7.1734">
        <ele>562</ele>
        <time>2018-03-24T16:51:53Z</time>
      </trkpt>
      <trkpt lat="47.91324" lon="7.17357">
        <ele>565</ele>
        <time>2018-03-24T16:51:57Z</time>
      </trkpt>
      <trkpt lat="47.91321" lon="7.17375">
        <ele>566</ele>
        <time>2018-03-24T16:52:01Z</time>
      </trkpt>
      <trkpt lat="47.91324" lon="7.17399">
        <ele>562</ele>
        <time>2018-03-24T16:52:06Z</time>
      </trkpt>
      <trkpt lat="47.91329" lon="7.17419">
        <ele>555</ele>
        <time>2018-03-24T16:52:11Z</time>
      </trkpt>
      <trkpt lat="47.91324" lon="7.17432">
        <ele>557</ele>
        <time>2018-03-24T16:52:15Z</time>
      </trkpt>
      <trkpt lat="47.91322" lon="7.17452">
        <ele>557</ele>
        <time>2018-03-24T16:52:20Z</time>
      </trkpt>
      <trkpt lat="47.9132" lon="7.1747">
        <ele>556</ele>
        <time>2018-03-24T16:52:24Z</time>
      </trkpt>
      <trkpt lat="47.91317" lon="7.17485">
        <ele>553</ele>
        <time>2018-03-24T16:52:28Z</time>
      </trkpt>
      <trkpt lat="47.91305" lon="7.17498">
        <ele>555</ele>
        <time>2018-03-24T16:52:32Z</time>
      </trkpt>
      <trkpt lat="47.91292" lon="7.17502">
        <ele>546</ele>
        <time>2018-03-24T16:52:37Z</time>
      </trkpt>
      <trkpt lat="47.9128" lon="7.17505">
        <ele>549</ele>
        <time>2018-03-24T16:52:41Z</time>
      </trkpt>
      <trkpt lat="47.91269" lon="7.17508">
        <ele>552</ele>
        <time>2018-03-24T16:52:45Z</time>
      </trkpt>
      <trkpt lat="47.91261" lon="7.1751">
        <ele>554</ele>
        <time>2018-03-24T16:52:49Z</time>
      </trkpt>
      <trkpt lat="47.91253" lon="7.17513">
        <ele>555</ele>
        <time>2018-03-24T16:52:54Z</time>
      </trkpt>
      <trkpt lat="47.91242" lon="7.17516">
        <ele>560</ele>
        <time>2018-03-24T16:52:58Z</time>
      </trkpt>
      <trkpt lat="47.91231" lon="7.17519">
        <ele>559</ele>
        <time>2018-03-24T16:53:03Z</time>
      </trkpt>
      <trkpt lat="47.91225" lon="7.17522">
        <ele>558</ele>
        <time>2018-03-24T16:53:05Z</time>
      </trkpt>
      <trkpt lat="47.91205" lon="7.17525">
        <ele>559</ele>
        <time>2018-03-24T16:53:13Z</time>
      </trkpt>
      <trkpt lat="47.91195" lon="7.17526">
        <ele>559</ele>
        <time>2018-03-24T16:53:18Z</time>
      </trkpt>
      <trkpt lat="47.91188" lon="7.17525">
        <ele>560</ele>
        <time>2018-03-24T16:53:23Z</time>
      </trkpt>
      <trkpt lat="47.91181" lon="7.1753">
        <ele>560</ele>
        <time>2018-03-24T16:53:54Z</time>
      </trkpt>
      <trkpt lat="47.91174" lon="7.17536">
        <ele>559</ele>
        <time>2018-03-24T16:54:00Z</time>
      </trkpt>
      <trkpt lat="47.91166" lon="7.17535">
        <ele>563</ele>
        <time>2018-03-24T16:54:15Z</time>
      </trkpt>
      <trkpt lat="47.91157" lon="7.17535">
        <ele>563</ele>
        <time>2018-03-24T16:54:25Z</time>
      </trkpt>
      <trkpt lat="47.91145" lon="7.17536">
        <ele>562</ele>
        <time>2018-03-24T16:54:29Z</time>
      </trkpt>
      <trkpt lat="47.91135" lon="7.17533">
        <ele>563</ele>
        <time>2018-03-24T16:54:34Z</time>
      </trkpt>
      <trkpt lat="47.91125" lon="7.17529">
        <ele>563</ele>
        <time>2018-03-24T16:54:39Z</time>
      </trkpt>
      <trkpt lat="47.91112" lon="7.17526">
        <ele>564</ele>
        <time>2018-03-24T16:54:44Z</time>
      </trkpt>
      <trkpt lat="47.91102" lon="7.1753">
        <ele>564</ele>
        <time>2018-03-24T16:54:49Z</time>
      </trkpt>
      <trkpt lat="47.91088" lon="7.1753">
        <ele>564</ele>
        <time>2018-03-24T16:54:54Z</time>
      </trkpt>
      <trkpt lat="47.91076" lon="7.17531">
        <ele>567</ele>
        <time>2018-03-24T16:54:58Z</time>
      </trkpt>
      <trkpt lat="47.91067" lon="7.1753">
        <ele>567</ele>
        <time>2018-03-24T16:55:03Z</time>
      </trkpt>
      <trkpt lat="47.91057" lon="7.17528">
        <ele>567</ele>
        <time>2018-03-24T16:55:07Z</time>
      </trkpt>
      <trkpt lat="47.91047" lon="7.17522">
        <ele>568</ele>
        <time>2018-03-24T16:55:12Z</time>
      </trkpt>
      <trkpt lat="47.91036" lon="7.17521">
        <ele>568</ele>
        <time>2018-03-24T16:55:16Z</time>
      </trkpt>
      <trkpt lat="47.91025" lon="7.17522">
        <ele>569</ele>
        <time>2018-03-24T16:55:20Z</time>
      </trkpt>
      <trkpt lat="47.91016" lon="7.17522">
        <ele>569</ele>
        <time>2018-03-24T16:55:25Z</time>
      </trkpt>
      <trkpt lat="47.91011" lon="7.17514">
        <ele>570</ele>
        <time>2018-03-24T16:55:29Z</time>
      </trkpt>
      <trkpt lat="47.91004" lon="7.17517">
        <ele>570</ele>
        <time>2018-03-24T16:55:33Z</time>
      </trkpt>
      <trkpt lat="47.90997" lon="7.17526">
        <ele>573</ele>
        <time>2018-03-24T16:55:38Z</time>
      </trkpt>
      <trkpt lat="47.90989" lon="7.17544">
        <ele>572</ele>
        <time>2018-03-24T16:55:42Z</time>
      </trkpt>
      <trkpt lat="47.90984" lon="7.17557">
        <ele>571</ele>
        <time>2018-03-24T16:55:45Z</time>
      </trkpt>
      <trkpt lat="47.90975" lon="7.17578">
        <ele>571</ele>
        <time>2018-03-24T16:55:50Z</time>
      </trkpt>
      <trkpt lat="47.90974" lon="7.17596">
        <ele>568</ele>
        <time>2018-03-24T16:55:54Z</time>
      </trkpt>
      <trkpt lat="47.90975" lon="7.17609">
        <ele>568</ele>
        <time>2018-03-24T16:55:59Z</time>
      </trkpt>
      <trkpt lat="47.90976" lon="7.17618">
        <ele>568</ele>
        <time>2018-03-24T16:56:02Z</time>
      </trkpt>
      <trkpt lat="47.90973" lon="7.17633">
        <ele>567</ele>
        <time>2018-03-24T16:56:07Z</time>
      </trkpt>
      <trkpt lat="47.90965" lon="7.17648">
        <ele>567</ele>
        <time>2018-03-24T16:56:11Z</time>
      </trkpt>
      <trkpt lat="47.90962" lon="7.17663">
        <ele>567</ele>
        <time>2018-03-24T16:56:15Z</time>
      </trkpt>
      <trkpt lat="47.90957" lon="7.17672">
        <ele>566</ele>
        <time>2018-03-24T16:56:19Z</time>
      </trkpt>
      <trkpt lat="47.90953" lon="7.17683">
        <ele>566</ele>
        <time>2018-03-24T16:56:25Z</time>
      </trkpt>
      <trkpt lat="47.9095" lon="7.17695">
        <ele>566</ele>
        <time>2018-03-24T16:56:33Z</time>
      </trkpt>
      <trkpt lat="47.90953" lon="7.17706">
        <ele>566</ele>
        <time>2018-03-24T16:56:43Z</time>
      </trkpt>
      <trkpt lat="47.90958" lon="7.17717">
        <ele>566</ele>
        <time>2018-03-24T16:56:51Z</time>
      </trkpt>
      <trkpt lat="47.90966" lon="7.17719">
        <ele>566</ele>
        <time>2018-03-24T16:57:27Z</time>
      </trkpt>
      <trkpt lat="47.90963" lon="7.17731">
        <ele>566</ele>
        <time>2018-03-24T16:58:40Z</time>
      </trkpt>
      <trkpt lat="47.90962" lon="7.17743">
        <ele>566</ele>
        <time>2018-03-24T16:58:46Z</time>
      </trkpt>
      <trkpt lat="47.90964" lon="7.17754">
        <ele>569</ele>
        <time>2018-03-24T16:58:51Z</time>
      </trkpt>
      <trkpt lat="47.90966" lon="7.17766">
        <ele>570</ele>
        <time>2018-03-24T16:58:56Z</time>
      </trkpt>
      <trkpt lat="47.90962" lon="7.17779">
        <ele>570</ele>
        <time>2018-03-24T16:59:01Z</time>
      </trkpt>
      <trkpt lat="47.90959" lon="7.17785">
        <ele>571</ele>
        <time>2018-03-24T16:59:06Z</time>
      </trkpt>
      <trkpt lat="47.90954" lon="7.17799">
        <ele>571</ele>
        <time>2018-03-24T16:59:11Z</time>
      </trkpt>
      <trkpt lat="47.90949" lon="7.1781">
        <ele>572</ele>
        <time>2018-03-24T16:59:17Z</time>
      </trkpt>
      <trkpt lat="47.90941" lon="7.17818">
        <ele>573</ele>
        <time>2018-03-24T16:59:22Z</time>
      </trkpt>
      <trkpt lat="47.90936" lon="7.17827">
        <ele>574</ele>
        <time>2018-03-24T16:59:28Z</time>
      </trkpt>
      <trkpt lat="47.90931" lon="7.17836">
        <ele>580</ele>
        <time>2018-03-24T16:59:32Z</time>
      </trkpt>
      <trkpt lat="47.90924" lon="7.17845">
        <ele>580</ele>
        <time>2018-03-24T16:59:37Z</time>
      </trkpt>
      <trkpt lat="47.90918" lon="7.17855">
        <ele>581</ele>
        <time>2018-03-24T16:59:43Z</time>
      </trkpt>
      <trkpt lat="47.90912" lon="7.17864">
        <ele>577</ele>
        <time>2018-03-24T16:59:48Z</time>
      </trkpt>
      <trkpt lat="47.90906" lon="7.17874">
        <ele>577</ele>
        <time>2018-03-24T16:59:53Z</time>
      </trkpt>
      <trkpt lat="47.909" lon="7.17883">
        <ele>578</ele>
        <time>2018-03-24T16:59:58Z</time>
      </trkpt>
      <trkpt lat="47.90892" lon="7.17889">
        <ele>578</ele>
        <time>2018-03-24T17:00:02Z</time>
      </trkpt>
      <trkpt lat="47.90888" lon="7.17895">
        <ele>578</ele>
        <time>2018-03-24T17:00:07Z</time>
      </trkpt>
      <trkpt lat="47.90881" lon="7.17904">
        <ele>578</ele>
        <time>2018-03-24T17:00:11Z</time>
      </trkpt>
      <trkpt lat="47.90876" lon="7.17915">
        <ele>577</ele>
        <time>2018-03-24T17:00:17Z</time>
      </trkpt>
      <trkpt lat="47.90874" lon="7.17928">
        <ele>586</ele>
        <time>2018-03-24T17:00:23Z</time>
      </trkpt>
      <trkpt lat="47.90872" lon="7.1794">
        <ele>586</ele>
        <time>2018-03-24T17:00:28Z</time>
      </trkpt>
      <trkpt lat="47.90869" lon="7.17954">
        <ele>586</ele>
        <time>2018-03-24T17:00:33Z</time>
      </trkpt>
      <trkpt lat="47.90869" lon="7.17967">
        <ele>587</ele>
        <time>2018-03-24T17:00:38Z</time>
      </trkpt>
      <trkpt lat="47.9087" lon="7.17978">
        <ele>588</ele>
        <time>2018-03-24T17:00:42Z</time>
      </trkpt>
      <trkpt lat="47.90868" lon="7.17991">
        <ele>588</ele>
        <time>2018-03-24T17:00:47Z</time>
      </trkpt>
      <trkpt lat="47.90868" lon="7.18004">
        <ele>593</ele>
        <time>2018-03-24T17:00:51Z</time>
      </trkpt>
      <trkpt lat="47.90868" lon="7.18018">
        <ele>593</ele>
        <time>2018-03-24T17:00:56Z</time>
      </trkpt>
      <trkpt lat="47.90866" lon="7.18028">
        <ele>593</ele>
        <time>2018-03-24T17:01:00Z</time>
      </trkpt>
      <trkpt lat="47.90864" lon="7.18041">
        <ele>594</ele>
        <time>2018-03-24T17:01:05Z</time>
      </trkpt>
      <trkpt lat="47.90861" lon="7.18052">
        <ele>593</ele>
        <time>2018-03-24T17:01:10Z</time>
      </trkpt>
      <trkpt lat="47.90863" lon="7.18064">
        <ele>594</ele>
        <time>2018-03-24T17:01:15Z</time>
      </trkpt>
      <trkpt lat="47.90862" lon="7.18077">
        <ele>593</ele>
        <time>2018-03-24T17:01:20Z</time>
      </trkpt>
      <trkpt lat="47.90858" lon="7.18087">
        <ele>596</ele>
        <time>2018-03-24T17:01:24Z</time>
      </trkpt>
      <trkpt lat="47.90853" lon="7.18096">
        <ele>596</ele>
        <time>2018-03-24T17:01:29Z</time>
      </trkpt>
      <trkpt lat="47.90846" lon="7.18105">
        <ele>596</ele>
        <time>2018-03-24T17:01:32Z</time>
      </trkpt>
      <trkpt lat="47.90837" lon="7.18116">
        <ele>597</ele>
        <time>2018-03-24T17:01:37Z</time>
      </trkpt>
      <trkpt lat="47.90823" lon="7.18131">
        <ele>585</ele>
        <time>2018-03-24T17:01:41Z</time>
      </trkpt>
      <trkpt lat="47.90814" lon="7.18144">
        <ele>586</ele>
        <time>2018-03-24T17:01:46Z</time>
      </trkpt>
      <trkpt lat="47.90807" lon="7.18156">
        <ele>586</ele>
        <time>2018-03-24T17:01:50Z</time>
      </trkpt>
      <trkpt lat="47.90799" lon="7.18169">
        <ele>594</ele>
        <time>2018-03-24T17:01:54Z</time>
      </trkpt>
      <trkpt lat="47.90792" lon="7.18184">
        <ele>593</ele>
        <time>2018-03-24T17:01:59Z</time>
      </trkpt>
      <trkpt lat="47.90784" lon="7.18197">
        <ele>593</ele>
        <time>2018-03-24T17:02:03Z</time>
      </trkpt>
      <trkpt lat="47.90772" lon="7.18211">
        <ele>594</ele>
        <time>2018-03-24T17:02:07Z</time>
      </trkpt>
      <trkpt lat="47.90763" lon="7.18221">
        <ele>594</ele>
        <time>2018-03-24T17:02:10Z</time>
      </trkpt>
      <trkpt lat="47.90755" lon="7.18236">
        <ele>595</ele>
        <time>2018-03-24T17:02:14Z</time>
      </trkpt>
      <trkpt lat="47.9075" lon="7.18249">
        <ele>596</ele>
        <time>2018-03-24T17:02:18Z</time>
      </trkpt>
      <trkpt lat="47.90745" lon="7.18264">
        <ele>596</ele>
        <time>2018-03-24T17:02:22Z</time>
      </trkpt>
      <trkpt lat="47.90737" lon="7.1828">
        <ele>596</ele>
        <time>2018-03-24T17:02:27Z</time>
      </trkpt>
      <trkpt lat="47.90731" lon="7.18291">
        <ele>597</ele>
        <time>2018-03-24T17:02:31Z</time>
      </trkpt>
      <trkpt lat="47.90724" lon="7.18301">
        <ele>597</ele>
        <time>2018-03-24T17:02:35Z</time>
      </trkpt>
      <trkpt lat="47.90715" lon="7.18314">
        <ele>597</ele>
        <time>2018-03-24T17:02:39Z</time>
      </trkpt>
      <trkpt lat="47.90701" lon="7.18329">
        <ele>597</ele>
        <time>2018-03-24T17:02:44Z</time>
      </trkpt>
      <trkpt lat="47.90696" lon="7.18339">
        <ele>597</ele>
        <time>2018-03-24T17:02:48Z</time>
      </trkpt>
      <trkpt lat="47.90691" lon="7.18348">
        <ele>596</ele>
        <time>2018-03-24T17:02:53Z</time>
      </trkpt>
      <trkpt lat="47.90686" lon="7.18359">
        <ele>596</ele>
        <time>2018-03-24T17:02:58Z</time>
      </trkpt>
      <trkpt lat="47.9068" lon="7.18369">
        <ele>595</ele>
        <time>2018-03-24T17:03:03Z</time>
      </trkpt>
      <trkpt lat="47.90675" lon="7.18378">
        <ele>595</ele>
        <time>2018-03-24T17:03:08Z</time>
      </trkpt>
      <trkpt lat="47.90671" lon="7.18386">
        <ele>595</ele>
        <time>2018-03-24T17:03:13Z</time>
      </trkpt>
      <trkpt lat="47.90667" lon="7.18392">
        <ele>603</ele>
        <time>2018-03-24T17:03:17Z</time>
      </trkpt>
      <trkpt lat="47.9066" lon="7.18399">
        <ele>602</ele>
        <time>2018-03-24T17:03:22Z</time>
      </trkpt>
      <trkpt lat="47.90655" lon="7.18408">
        <ele>601</ele>
        <time>2018-03-24T17:03:27Z</time>
      </trkpt>
      <trkpt lat="47.90647" lon="7.18419">
        <ele>598</ele>
        <time>2018-03-24T17:03:32Z</time>
      </trkpt>
      <trkpt lat="47.90642" lon="7.18428">
        <ele>598</ele>
        <time>2018-03-24T17:03:37Z</time>
      </trkpt>
      <trkpt lat="47.90634" lon="7.1843">
        <ele>599</ele>
        <time>2018-03-24T17:03:42Z</time>
      </trkpt>
      <trkpt lat="47.90625" lon="7.1843">
        <ele>601</ele>
        <time>2018-03-24T17:03:50Z</time>
      </trkpt>
      <trkpt lat="47.9063" lon="7.1844">
        <ele>599</ele>
        <time>2018-03-24T17:07:30Z</time>
      </trkpt>
      <trkpt lat="47.90636" lon="7.18455">
        <ele>597</ele>
        <time>2018-03-24T17:07:34Z</time>
      </trkpt>
      <trkpt lat="47.90646" lon="7.18458">
        <ele>596</ele>
        <time>2018-03-24T17:07:39Z</time>
      </trkpt>
      <trkpt lat="47.90654" lon="7.18463">
        <ele>594</ele>
        <time>2018-03-24T17:07:43Z</time>
      </trkpt>
      <trkpt lat="47.90657" lon="7.18476">
        <ele>592</ele>
        <time>2018-03-24T17:07:53Z</time>
      </trkpt>
      <trkpt lat="47.90664" lon="7.1848">
        <ele>590</ele>
        <time>2018-03-24T17:08:02Z</time>
      </trkpt>
      <trkpt lat="47.90672" lon="7.18486">
        <ele>580</ele>
        <time>2018-03-24T17:09:08Z</time>
      </trkpt>
      <trkpt lat="47.90682" lon="7.18512">
        <ele>571</ele>
        <time>2018-03-24T17:09:13Z</time>
      </trkpt>
      <trkpt lat="47.9069" lon="7.18516">
        <ele>568</ele>
        <time>2018-03-24T17:09:24Z</time>
      </trkpt>
      <trkpt lat="47.90698" lon="7.18516">
        <ele>566</ele>
        <time>2018-03-24T17:09:30Z</time>
      </trkpt>
      <trkpt lat="47.90705" lon="7.18523">
        <ele>564</ele>
        <time>2018-03-24T17:09:49Z</time>
      </trkpt>
      <trkpt lat="47.90704" lon="7.18532">
        <ele>564</ele>
        <time>2018-03-24T17:10:00Z</time>
      </trkpt>
      <trkpt lat="47.90691" lon="7.18558">
        <ele>562</ele>
        <time>2018-03-24T17:10:04Z</time>
      </trkpt>
      <trkpt lat="47.90672" lon="7.18602">
        <ele>553</ele>
        <time>2018-03-24T17:10:09Z</time>
      </trkpt>
      <trkpt lat="47.90673" lon="7.1863">
        <ele>548</ele>
        <time>2018-03-24T17:10:13Z</time>
      </trkpt>
      <trkpt lat="47.90655" lon="7.18634">
        <ele>549</ele>
        <time>2018-03-24T17:10:17Z</time>
      </trkpt>
      <trkpt lat="47.90649" lon="7.1864">
        <ele>549</ele>
        <time>2018-03-24T17:10:21Z</time>
      </trkpt>
      <trkpt lat="47.90655" lon="7.18647">
        <ele>548</ele>
        <time>2018-03-24T17:10:29Z</time>
      </trkpt>
      <trkpt lat="47.90662" lon="7.18645">
        <ele>548</ele>
        <time>2018-03-24T17:10:34Z</time>
      </trkpt>
      <trkpt lat="47.90673" lon="7.18645">
        <ele>547</ele>
        <time>2018-03-24T17:10:38Z</time>
      </trkpt>
      <trkpt lat="47.90683" lon="7.18651">
        <ele>546</ele>
        <time>2018-03-24T17:10:43Z</time>
      </trkpt>
      <trkpt lat="47.90676" lon="7.18645">
        <ele>547</ele>
        <time>2018-03-24T17:11:03Z</time>
      </trkpt>
      <trkpt lat="47.90683" lon="7.1865">
        <ele>546</ele>
        <time>2018-03-24T17:11:10Z</time>
      </trkpt>
      <trkpt lat="47.90678" lon="7.18655">
        <ele>546</ele>
        <time>2018-03-24T17:12:22Z</time>
      </trkpt>
      <trkpt lat="47.9067" lon="7.18684">
        <ele>539</ele>
        <time>2018-03-24T17:12:27Z</time>
      </trkpt>
      <trkpt lat="47.90657" lon="7.18722">
        <ele>535</ele>
        <time>2018-03-24T17:12:31Z</time>
      </trkpt>
      <trkpt lat="47.90651" lon="7.18754">
        <ele>529</ele>
        <time>2018-03-24T17:12:36Z</time>
      </trkpt>
      <trkpt lat="47.90641" lon="7.18754">
        <ele>527</ele>
        <time>2018-03-24T17:12:40Z</time>
      </trkpt>
      <trkpt lat="47.90627" lon="7.1873">
        <ele>533</ele>
        <time>2018-03-24T17:12:45Z</time>
      </trkpt>
      <trkpt lat="47.90619" lon="7.18724">
        <ele>532</ele>
        <time>2018-03-24T17:12:52Z</time>
      </trkpt>
      <trkpt lat="47.90614" lon="7.18733">
        <ele>531</ele>
        <time>2018-03-24T17:13:14Z</time>
      </trkpt>
      <trkpt lat="47.90615" lon="7.1876">
        <ele>524</ele>
        <time>2018-03-24T17:13:18Z</time>
      </trkpt>
      <trkpt lat="47.90626" lon="7.18791">
        <ele>523</ele>
        <time>2018-03-24T17:13:23Z</time>
      </trkpt>
      <trkpt lat="47.90648" lon="7.18823">
        <ele>523</ele>
        <time>2018-03-24T17:13:27Z</time>
      </trkpt>
      <trkpt lat="47.90683" lon="7.18821">
        <ele>522</ele>
        <time>2018-03-24T17:13:31Z</time>
      </trkpt>
      <trkpt lat="47.90709" lon="7.18809">
        <ele>520</ele>
        <time>2018-03-24T17:13:36Z</time>
      </trkpt>
      <trkpt lat="47.90712" lon="7.18823">
        <ele>519</ele>
        <time>2018-03-24T17:13:41Z</time>
      </trkpt>
      <trkpt lat="47.90709" lon="7.18834">
        <ele>510</ele>
        <time>2018-03-24T17:13:52Z</time>
      </trkpt>
      <trkpt lat="47.90712" lon="7.18847">
        <ele>509</ele>
        <time>2018-03-24T17:13:57Z</time>
      </trkpt>
      <trkpt lat="47.90715" lon="7.18864">
        <ele>507</ele>
        <time>2018-03-24T17:14:01Z</time>
      </trkpt>
      <trkpt lat="47.90715" lon="7.18889">
        <ele>505</ele>
        <time>2018-03-24T17:14:06Z</time>
      </trkpt>
      <trkpt lat="47.9072" lon="7.1892">
        <ele>493</ele>
        <time>2018-03-24T17:14:10Z</time>
      </trkpt>
      <trkpt lat="47.90725" lon="7.18948">
        <ele>491</ele>
        <time>2018-03-24T17:14:14Z</time>
      </trkpt>
      <trkpt lat="47.90726" lon="7.18966">
        <ele>489</ele>
        <time>2018-03-24T17:14:18Z</time>
      </trkpt>
      <trkpt lat="47.90733" lon="7.19007">
        <ele>480</ele>
        <time>2018-03-24T17:14:22Z</time>
      </trkpt>
      <trkpt lat="47.90742" lon="7.19036">
        <ele>479</ele>
        <time>2018-03-24T17:14:27Z</time>
      </trkpt>
      <trkpt lat="47.90748" lon="7.19053">
        <ele>478</ele>
        <time>2018-03-24T17:14:31Z</time>
      </trkpt>
      <trkpt lat="47.90741" lon="7.19058">
        <ele>477</ele>
        <time>2018-03-24T17:15:11Z</time>
      </trkpt>
      <trkpt lat="47.90732" lon="7.19072">
        <ele>477</ele>
        <time>2018-03-24T17:15:14Z</time>
      </trkpt>
      <trkpt lat="47.90734" lon="7.1911">
        <ele>472</ele>
        <time>2018-03-24T17:15:18Z</time>
      </trkpt>
      <trkpt lat="47.9075" lon="7.19139">
        <ele>471</ele>
        <time>2018-03-24T17:15:23Z</time>
      </trkpt>
      <trkpt lat="47.9076" lon="7.19167">
        <ele>468</ele>
        <time>2018-03-24T17:15:27Z</time>
      </trkpt>
      <trkpt lat="47.90772" lon="7.19207">
        <ele>467</ele>
        <time>2018-03-24T17:15:31Z</time>
      </trkpt>
      <trkpt lat="47.90767" lon="7.19217">
        <ele>468</ele>
        <time>2018-03-24T17:15:36Z</time>
      </trkpt>
      <trkpt lat="47.9076" lon="7.19222">
        <ele>468</ele>
        <time>2018-03-24T17:15:40Z</time>
      </trkpt>
      <trkpt lat="47.90752" lon="7.19227">
        <ele>469</ele>
        <time>2018-03-24T17:15:48Z</time>
      </trkpt>
      <trkpt lat="47.90746" lon="7.19237">
        <ele>470</ele>
        <time>2018-03-24T17:15:55Z</time>
      </trkpt>
      <trkpt lat="47.90744" lon="7.19249">
        <ele>471</ele>
        <time>2018-03-24T17:16:02Z</time>
      </trkpt>
      <trkpt lat="47.90741" lon="7.19259">
        <ele>470</ele>
        <time>2018-03-24T17:16:27Z</time>
      </trkpt>
      <trkpt lat="47.90735" lon="7.19278">
        <ele>469</ele>
        <time>2018-03-24T17:16:32Z</time>
      </trkpt>
      <trkpt lat="47.90733" lon="7.19296">
        <ele>469</ele>
        <time>2018-03-24T17:16:36Z</time>
      </trkpt>
      <trkpt lat="47.90734" lon="7.19317">
        <ele>470</ele>
        <time>2018-03-24T17:16:41Z</time>
      </trkpt>
      <trkpt lat="47.90729" lon="7.19333">
        <ele>470</ele>
        <time>2018-03-24T17:16:45Z</time>
      </trkpt>
      <trkpt lat="47.90726" lon="7.19351">
        <ele>468</ele>
        <time>2018-03-24T17:16:50Z</time>
      </trkpt>
      <trkpt lat="47.9072" lon="7.19367">
        <ele>466</ele>
        <time>2018-03-24T17:16:55Z</time>
      </trkpt>
      <trkpt lat="47.90716" lon="7.19382">
        <ele>466</ele>
        <time>2018-03-24T17:16:59Z</time>
      </trkpt>
      <trkpt lat="47.90717" lon="7.19391">
        <ele>466</ele>
        <time>2018-03-24T17:17:05Z</time>
      </trkpt>
      <trkpt lat="47.90725" lon="7.19399">
        <ele>467</ele>
        <time>2018-03-24T17:17:10Z</time>
      </trkpt>
      <trkpt lat="47.90734" lon="7.19396">
        <ele>468</ele>
        <time>2018-03-24T17:17:18Z</time>
      </trkpt>
      <trkpt lat="47.9074" lon="7.19389">
        <ele>468</ele>
        <time>2018-03-24T17:17:27Z</time>
      </trkpt>
      <trkpt lat="47.90743" lon="7.19379">
        <ele>468</ele>
        <time>2018-03-24T17:17:35Z</time>
      </trkpt>
      <trkpt lat="47.90753" lon="7.19368">
        <ele>477</ele>
        <time>2018-03-24T17:17:39Z</time>
      </trkpt>
      <trkpt lat="47.90762" lon="7.19359">
        <ele>477</ele>
        <time>2018-03-24T17:17:44Z</time>
      </trkpt>
      <trkpt lat="47.90768" lon="7.1935">
        <ele>477</ele>
        <time>2018-03-24T17:17:51Z</time>
      </trkpt>
      <trkpt lat="47.90769" lon="7.19337">
        <ele>477</ele>
        <time>2018-03-24T17:17:59Z</time>
      </trkpt>
      <trkpt lat="47.90772" lon="7.19325">
        <ele>475</ele>
        <time>2018-03-24T17:18:07Z</time>
      </trkpt>
      <trkpt lat="47.90776" lon="7.19324">
        <ele>475</ele>
        <time>2018-03-24T17:18:10Z</time>
      </trkpt>
      <trkpt lat="47.90788" lon="7.19331">
        <ele>475</ele>
        <time>2018-03-24T17:18:14Z</time>
      </trkpt>
      <trkpt lat="47.90795" lon="7.19339">
        <ele>478</ele>
        <time>2018-03-24T17:18:19Z</time>
      </trkpt>
      <trkpt lat="47.908" lon="7.19347">
        <ele>478</ele>
        <time>2018-03-24T17:18:24Z</time>
      </trkpt>
      <trkpt lat="47.90806" lon="7.19364">
        <ele>478</ele>
        <time>2018-03-24T17:18:28Z</time>
      </trkpt>
      <trkpt lat="47.90819" lon="7.19379">
        <ele>479</ele>
        <time>2018-03-24T17:18:32Z</time>
      </trkpt>
      <trkpt lat="47.90829" lon="7.19386">
        <ele>479</ele>
        <time>2018-03-24T17:18:36Z</time>
      </trkpt>
      <trkpt lat="47.90837" lon="7.19399">
        <ele>478</ele>
        <time>2018-03-24T17:18:41Z</time>
      </trkpt>
      <trkpt lat="47.90844" lon="7.19405">
        <ele>478</ele>
        <time>2018-03-24T17:18:45Z</time>
      </trkpt>
      <trkpt lat="47.90849" lon="7.19412">
        <ele>478</ele>
        <time>2018-03-24T17:18:49Z</time>
      </trkpt>
      <trkpt lat="47.90856" lon="7.19425">
        <ele>476</ele>
        <time>2018-03-24T17:18:54Z</time>
      </trkpt>
      <trkpt lat="47.90856" lon="7.19437">
        <ele>476</ele>
        <time>2018-03-24T17:18:58Z</time>
      </trkpt>
      <trkpt lat="47.90853" lon="7.19448">
        <ele>475</ele>
        <time>2018-03-24T17:19:01Z</time>
      </trkpt>
      <trkpt lat="47.90857" lon="7.19461">
        <ele>474</ele>
        <time>2018-03-24T17:19:06Z</time>
      </trkpt>
      <trkpt lat="47.90865" lon="7.19465">
        <ele>473</ele>
        <time>2018-03-24T17:19:13Z</time>
      </trkpt>
      <trkpt lat="47.90874" lon="7.19465">
        <ele>473</ele>
        <time>2018-03-24T17:19:17Z</time>
      </trkpt>
      <trkpt lat="47.90885" lon="7.19477">
        <ele>472</ele>
        <time>2018-03-24T17:19:21Z</time>
      </trkpt>
      <trkpt lat="47.90897" lon="7.19498">
        <ele>471</ele>
        <time>2018-03-24T17:19:25Z</time>
      </trkpt>
      <trkpt lat="47.90932" lon="7.19538">
        <ele>457</ele>
        <time>2018-03-24T17:19:30Z</time>
      </trkpt>
      <trkpt lat="47.90945" lon="7.19558">
        <ele>455</ele>
        <time>2018-03-24T17:19:34Z</time>
      </trkpt>
      <trkpt lat="47.90957" lon="7.19575">
        <ele>454</ele>
        <time>2018-03-24T17:19:39Z</time>
      </trkpt>
      <trkpt lat="47.90954" lon="7.19587">
        <ele>448</ele>
        <time>2018-03-24T17:19:45Z</time>
      </trkpt>
      <trkpt lat="47.90942" lon="7.19612">
        <ele>448</ele>
        <time>2018-03-24T17:19:48Z</time>
      </trkpt>
      <trkpt lat="47.90899" lon="7.1964">
        <ele>447</ele>
        <time>2018-03-24T17:19:53Z</time>
      </trkpt>
      <trkpt lat="47.90873" lon="7.19651">
        <ele>445</ele>
        <time>2018-03-24T17:19:57Z</time>
      </trkpt>
      <trkpt lat="47.90846" lon="7.19642">
        <ele>444</ele>
        <time>2018-03-24T17:20:01Z</time>
      </trkpt>
      <trkpt lat="47.90833" lon="7.19632">
        <ele>440</ele>
        <time>2018-03-24T17:20:04Z</time>
      </trkpt>
      <trkpt lat="47.90801" lon="7.19641">
        <ele>437</ele>
        <time>2018-03-24T17:20:08Z</time>
      </trkpt>
      <trkpt lat="47.90781" lon="7.19633">
        <ele>436</ele>
        <time>2018-03-24T17:20:12Z</time>
      </trkpt>
      <trkpt lat="47.90756" lon="7.1963">
        <ele>435</ele>
        <time>2018-03-24T17:20:17Z</time>
      </trkpt>
      <trkpt lat="47.90733" lon="7.19622">
        <ele>426</ele>
        <time>2018-03-24T17:20:21Z</time>
      </trkpt>
      <trkpt lat="47.90708" lon="7.19615">
        <ele>424</ele>
        <time>2018-03-24T17:20:26Z</time>
      </trkpt>
      <trkpt lat="47.90693" lon="7.19605">
        <ele>424</ele>
        <time>2018-03-24T17:20:31Z</time>
      </trkpt>
      <trkpt lat="47.90692" lon="7.19617">
        <ele>422</ele>
        <time>2018-03-24T17:20:41Z</time>
      </trkpt>
      <trkpt lat="47.90679" lon="7.19625">
        <ele>420</ele>
        <time>2018-03-24T17:20:45Z</time>
      </trkpt>
      <trkpt lat="47.90674" lon="7.19639">
        <ele>416</ele>
        <time>2018-03-24T17:20:50Z</time>
      </trkpt>
      <trkpt lat="47.90677" lon="7.1966">
        <ele>409</ele>
        <time>2018-03-24T17:20:54Z</time>
      </trkpt>
      <trkpt lat="47.90676" lon="7.19679">
        <ele>398</ele>
        <time>2018-03-24T17:20:58Z</time>
      </trkpt>
      <trkpt lat="47.90685" lon="7.19691">
        <ele>397</ele>
        <time>2018-03-24T17:21:03Z</time>
      </trkpt>
      <trkpt lat="47.90688" lon="7.19707">
        <ele>395</ele>
        <time>2018-03-24T17:21:07Z</time>
      </trkpt>
      <trkpt lat="47.90682" lon="7.19698">
        <ele>396</ele>
        <time>2018-03-24T17:22:07Z</time>
      </trkpt>
      <trkpt lat="47.90677" lon="7.19687">
        <ele>398</ele>
        <time>2018-03-24T17:22:28Z</time>
      </trkpt>
      <trkpt lat="47.90671" lon="7.1968">
        <ele>398</ele>
        <time>2018-03-24T17:22:43Z</time>
      </trkpt>
      <trkpt lat="47.90668" lon="7.19668">
        <ele>400</ele>
        <time>2018-03-24T17:22:58Z</time>
      </trkpt>
      <trkpt lat="47.9067" lon="7.19656">
        <ele>408</ele>
        <time>2018-03-24T17:23:18Z</time>
      </trkpt>
      <trkpt lat="47.90674" lon="7.19645">
        <ele>414</ele>
        <time>2018-03-24T17:23:26Z</time>
      </trkpt>
      <trkpt lat="47.90676" lon="7.19632">
        <ele>418</ele>
        <time>2018-03-24T17:24:18Z</time>
      </trkpt>
      <trkpt lat="47.90681" lon="7.19622">
        <ele>421</ele>
        <time>2018-03-24T17:24:32Z</time>
      </trkpt>
      <trkpt lat="47.90677" lon="7.1961">
        <ele>423</ele>
        <time>2018-03-24T17:24:54Z</time>
      </trkpt>
      <trkpt lat="47.90673" lon="7.19602">
        <ele>424</ele>
        <time>2018-03-24T17:25:26Z</time>
      </trkpt>
      <trkpt lat="47.90657" lon="7.19597">
        <ele>416</ele>
        <time>2018-03-24T17:25:31Z</time>
      </trkpt>
      <trkpt lat="47.90643" lon="7.19591">
        <ele>413</ele>
        <time>2018-03-24T17:25:35Z</time>
      </trkpt>
      <trkpt lat="47.90623" lon="7.19585">
        <ele>410</ele>
        <time>2018-03-24T17:25:40Z</time>
      </trkpt>
      <trkpt lat="47.90611" lon="7.19581">
        <ele>420</ele>
        <time>2018-03-24T17:25:44Z</time>
      </trkpt>
      <trkpt lat="47.90591" lon="7.19574">
        <ele>415</ele>
        <time>2018-03-24T17:25:48Z</time>
      </trkpt>
      <trkpt lat="47.90575" lon="7.1956">
        <ele>410</ele>
        <time>2018-03-24T17:25:52Z</time>
      </trkpt>
      <trkpt lat="47.90558" lon="7.19548">
        <ele>411</ele>
        <time>2018-03-24T17:25:57Z</time>
      </trkpt>
      <trkpt lat="47.90548" lon="7.19563">
        <ele>409</ele>
        <time>2018-03-24T17:26:01Z</time>
      </trkpt>
      <trkpt lat="47.90541" lon="7.19569">
        <ele>408</ele>
        <time>2018-03-24T17:26:27Z</time>
      </trkpt>
      <trkpt lat="47.90537" lon="7.19581">
        <ele>407</ele>
        <time>2018-03-24T17:26:31Z</time>
      </trkpt>
      <trkpt lat="47.90535" lon="7.19592">
        <ele>396</ele>
        <time>2018-03-24T17:26:37Z</time>
      </trkpt>
      <trkpt lat="47.9053" lon="7.19606">
        <ele>394</ele>
        <time>2018-03-24T17:26:41Z</time>
      </trkpt>
      <trkpt lat="47.90532" lon="7.19633">
        <ele>391</ele>
        <time>2018-03-24T17:26:46Z</time>
      </trkpt>
      <trkpt lat="47.90527" lon="7.1968">
        <ele>376</ele>
        <time>2018-03-24T17:26:50Z</time>
      </trkpt>
      <trkpt lat="47.90519" lon="7.19716">
        <ele>373</ele>
        <time>2018-03-24T17:26:55Z</time>
      </trkpt>
      <trkpt lat="47.90518" lon="7.19721">
        <ele>373</ele>
        <time>2018-03-24T17:26:58Z</time>
      </trkpt>
      <trkpt lat="47.90503" lon="7.19719">
        <ele>372</ele>
        <time>2018-03-24T17:27:02Z</time>
      </trkpt>
      <trkpt lat="47.90503" lon="7.19707">
        <ele>374</ele>
        <time>2018-03-24T17:27:12Z</time>
      </trkpt>
      <trkpt lat="47.9051" lon="7.19703">
        <ele>374</ele>
        <time>2018-03-24T17:27:48Z</time>
      </trkpt>
      <trkpt lat="47.9051" lon="7.19703">
        <ele>374</ele>
        <time>2018-03-24T17:27:48Z</time>
      </trkpt>
    </trkseg>
  </trk>
</gpx>